<?xml version="1.0" encoding="UTF-8" standalone="no" ?>
<gpx xmlns="http://www.topografix.com/GPX/1/1" xmlns:xsi="http://www.w3.org/2001/XMLSchema-instance" xsi:schemaLocation="http://www.topografix.com/GPX/1/1 http://www.topografix.com/GPX/1/1/gpx.xsd" version="1.1" creator="VisuGPX - https://www.visugpx.com">
  <metadata>
    <name>Valberg-Rigaud 2017</name>
    <desc><![CDATA[Trace AlpineQuest 07/10/2017 09:42:26]]></desc>
  </metadata>
  <trk>
    <name><![CDATA[Valberg-Rigaud 2017]]></name>
    <trkseg>
      <trkpt lat="44.09079" lon="6.96969">
        <ele>1567.4079589844</ele>
        <time>2017-10-07T07:42:26Z</time>
      </trkpt>
      <trkpt lat="44.09072" lon="6.9697">
        <ele>1557.4079589844</ele>
        <time>2017-10-07T07:43:22Z</time>
      </trkpt>
      <trkpt lat="44.09064" lon="6.9697">
        <ele>1559.4079589844</ele>
        <time>2017-10-07T07:44:44Z</time>
      </trkpt>
      <trkpt lat="44.09062" lon="6.9698">
        <ele>1556.4079589844</ele>
        <time>2017-10-07T07:45:15Z</time>
      </trkpt>
      <trkpt lat="44.09068" lon="6.97">
        <ele>1556.4079589844</ele>
        <time>2017-10-07T07:45:23Z</time>
      </trkpt>
      <trkpt lat="44.09076" lon="6.97019">
        <ele>1556.4079589844</ele>
        <time>2017-10-07T07:45:32Z</time>
      </trkpt>
      <trkpt lat="44.09072" lon="6.9704">
        <ele>1554.4079589844</ele>
        <time>2017-10-07T07:45:39Z</time>
      </trkpt>
      <trkpt lat="44.09062" lon="6.97026">
        <ele>1552.4079589844</ele>
        <time>2017-10-07T07:45:47Z</time>
      </trkpt>
      <trkpt lat="44.09053" lon="6.97005">
        <ele>1550.4079589844</ele>
        <time>2017-10-07T07:45:57Z</time>
      </trkpt>
      <trkpt lat="44.09043" lon="6.96983">
        <ele>1548.4079589844</ele>
        <time>2017-10-07T07:46:03Z</time>
      </trkpt>
      <trkpt lat="44.09035" lon="6.9696">
        <ele>1547.4079589844</ele>
        <time>2017-10-07T07:46:08Z</time>
      </trkpt>
      <trkpt lat="44.09021" lon="6.96924">
        <ele>1545.4079589844</ele>
        <time>2017-10-07T07:46:14Z</time>
      </trkpt>
      <trkpt lat="44.09006" lon="6.9689">
        <ele>1545.4069824219</ele>
        <time>2017-10-07T07:46:20Z</time>
      </trkpt>
      <trkpt lat="44.08987" lon="6.96855">
        <ele>1542.4069824219</ele>
        <time>2017-10-07T07:46:26Z</time>
      </trkpt>
      <trkpt lat="44.08969" lon="6.96824">
        <ele>1541.4069824219</ele>
        <time>2017-10-07T07:46:32Z</time>
      </trkpt>
      <trkpt lat="44.08956" lon="6.96796">
        <ele>1540.4069824219</ele>
        <time>2017-10-07T07:46:38Z</time>
      </trkpt>
      <trkpt lat="44.08942" lon="6.96768">
        <ele>1540.4069824219</ele>
        <time>2017-10-07T07:46:44Z</time>
      </trkpt>
      <trkpt lat="44.08933" lon="6.96746">
        <ele>1541.4069824219</ele>
        <time>2017-10-07T07:46:49Z</time>
      </trkpt>
      <trkpt lat="44.08922" lon="6.96719">
        <ele>1541.4069824219</ele>
        <time>2017-10-07T07:46:55Z</time>
      </trkpt>
      <trkpt lat="44.08913" lon="6.96689">
        <ele>1539.4069824219</ele>
        <time>2017-10-07T07:47:01Z</time>
      </trkpt>
      <trkpt lat="44.0891" lon="6.96652">
        <ele>1538.4069824219</ele>
        <time>2017-10-07T07:47:07Z</time>
      </trkpt>
      <trkpt lat="44.08914" lon="6.96612">
        <ele>1540.4069824219</ele>
        <time>2017-10-07T07:47:13Z</time>
      </trkpt>
      <trkpt lat="44.08913" lon="6.96573">
        <ele>1540.4069824219</ele>
        <time>2017-10-07T07:47:19Z</time>
      </trkpt>
      <trkpt lat="44.0891" lon="6.96534">
        <ele>1540.4069824219</ele>
        <time>2017-10-07T07:47:25Z</time>
      </trkpt>
      <trkpt lat="44.08904" lon="6.96522">
        <ele>1541.4069824219</ele>
        <time>2017-10-07T07:47:27Z</time>
      </trkpt>
      <trkpt lat="44.08882" lon="6.96504">
        <ele>1540.4060058594</ele>
        <time>2017-10-07T07:47:33Z</time>
      </trkpt>
      <trkpt lat="44.08854" lon="6.96493">
        <ele>1542.4060058594</ele>
        <time>2017-10-07T07:47:39Z</time>
      </trkpt>
      <trkpt lat="44.08827" lon="6.96484">
        <ele>1541.4060058594</ele>
        <time>2017-10-07T07:47:45Z</time>
      </trkpt>
      <trkpt lat="44.08801" lon="6.96474">
        <ele>1539.4060058594</ele>
        <time>2017-10-07T07:47:51Z</time>
      </trkpt>
      <trkpt lat="44.08776" lon="6.96464">
        <ele>1540.4060058594</ele>
        <time>2017-10-07T07:47:57Z</time>
      </trkpt>
      <trkpt lat="44.08751" lon="6.96446">
        <ele>1539.4060058594</ele>
        <time>2017-10-07T07:48:03Z</time>
      </trkpt>
      <trkpt lat="44.08726" lon="6.96435">
        <ele>1540.4060058594</ele>
        <time>2017-10-07T07:48:09Z</time>
      </trkpt>
      <trkpt lat="44.08699" lon="6.96421">
        <ele>1539.4060058594</ele>
        <time>2017-10-07T07:48:15Z</time>
      </trkpt>
      <trkpt lat="44.08678" lon="6.96403">
        <ele>1540.4060058594</ele>
        <time>2017-10-07T07:48:21Z</time>
      </trkpt>
      <trkpt lat="44.08658" lon="6.96381">
        <ele>1540.4060058594</ele>
        <time>2017-10-07T07:48:27Z</time>
      </trkpt>
      <trkpt lat="44.08638" lon="6.96356">
        <ele>1538.4060058594</ele>
        <time>2017-10-07T07:48:33Z</time>
      </trkpt>
      <trkpt lat="44.08623" lon="6.96326">
        <ele>1538.4060058594</ele>
        <time>2017-10-07T07:48:39Z</time>
      </trkpt>
      <trkpt lat="44.08614" lon="6.96305">
        <ele>1536.4060058594</ele>
        <time>2017-10-07T07:49:49Z</time>
      </trkpt>
      <trkpt lat="44.08607" lon="6.96287">
        <ele>1536.4060058594</ele>
        <time>2017-10-07T07:49:54Z</time>
      </trkpt>
      <trkpt lat="44.086" lon="6.96252">
        <ele>1537.4060058594</ele>
        <time>2017-10-07T07:50:00Z</time>
      </trkpt>
      <trkpt lat="44.086" lon="6.96213">
        <ele>1538.4050292969</ele>
        <time>2017-10-07T07:50:06Z</time>
      </trkpt>
      <trkpt lat="44.08596" lon="6.96174">
        <ele>1537.4050292969</ele>
        <time>2017-10-07T07:50:12Z</time>
      </trkpt>
      <trkpt lat="44.08593" lon="6.96148">
        <ele>1537.4050292969</ele>
        <time>2017-10-07T07:50:17Z</time>
      </trkpt>
      <trkpt lat="44.08594" lon="6.96137">
        <ele>1538.4050292969</ele>
        <time>2017-10-07T07:50:23Z</time>
      </trkpt>
      <trkpt lat="44.0859" lon="6.96113">
        <ele>1539.4050292969</ele>
        <time>2017-10-07T07:50:30Z</time>
      </trkpt>
      <trkpt lat="44.08585" lon="6.96087">
        <ele>1537.4050292969</ele>
        <time>2017-10-07T07:50:36Z</time>
      </trkpt>
      <trkpt lat="44.08575" lon="6.96066">
        <ele>1536.4050292969</ele>
        <time>2017-10-07T07:50:42Z</time>
      </trkpt>
      <trkpt lat="44.08569" lon="6.96032">
        <ele>1537.4050292969</ele>
        <time>2017-10-07T07:50:48Z</time>
      </trkpt>
      <trkpt lat="44.08566" lon="6.96019">
        <ele>1536.4050292969</ele>
        <time>2017-10-07T07:50:50Z</time>
      </trkpt>
      <trkpt lat="44.08558" lon="6.95977">
        <ele>1534.4050292969</ele>
        <time>2017-10-07T07:50:56Z</time>
      </trkpt>
      <trkpt lat="44.08555" lon="6.95962">
        <ele>1532.4050292969</ele>
        <time>2017-10-07T07:50:58Z</time>
      </trkpt>
      <trkpt lat="44.08549" lon="6.95919">
        <ele>1527.4050292969</ele>
        <time>2017-10-07T07:51:03Z</time>
      </trkpt>
      <trkpt lat="44.08544" lon="6.95875">
        <ele>1527.4050292969</ele>
        <time>2017-10-07T07:51:09Z</time>
      </trkpt>
      <trkpt lat="44.08541" lon="6.95833">
        <ele>1530.4050292969</ele>
        <time>2017-10-07T07:51:15Z</time>
      </trkpt>
      <trkpt lat="44.08538" lon="6.95791">
        <ele>1527.4050292969</ele>
        <time>2017-10-07T07:51:21Z</time>
      </trkpt>
      <trkpt lat="44.0853" lon="6.95739">
        <ele>1522.4040527344</ele>
        <time>2017-10-07T07:51:27Z</time>
      </trkpt>
      <trkpt lat="44.08519" lon="6.95696">
        <ele>1519.4040527344</ele>
        <time>2017-10-07T07:51:33Z</time>
      </trkpt>
      <trkpt lat="44.08507" lon="6.95682">
        <ele>1519.4040527344</ele>
        <time>2017-10-07T07:51:45Z</time>
      </trkpt>
      <trkpt lat="44.08499" lon="6.95679">
        <ele>1522.4040527344</ele>
        <time>2017-10-07T07:51:51Z</time>
      </trkpt>
      <trkpt lat="44.08492" lon="6.95676">
        <ele>1516.4040527344</ele>
        <time>2017-10-07T07:51:58Z</time>
      </trkpt>
      <trkpt lat="44.08484" lon="6.95675">
        <ele>1515.4040527344</ele>
        <time>2017-10-07T07:52:04Z</time>
      </trkpt>
      <trkpt lat="44.08476" lon="6.95674">
        <ele>1514.4040527344</ele>
        <time>2017-10-07T07:52:09Z</time>
      </trkpt>
      <trkpt lat="44.08468" lon="6.95671">
        <ele>1514.4040527344</ele>
        <time>2017-10-07T07:52:15Z</time>
      </trkpt>
      <trkpt lat="44.0846" lon="6.95669">
        <ele>1514.4040527344</ele>
        <time>2017-10-07T07:52:21Z</time>
      </trkpt>
      <trkpt lat="44.08453" lon="6.95665">
        <ele>1514.4040527344</ele>
        <time>2017-10-07T07:52:27Z</time>
      </trkpt>
      <trkpt lat="44.08446" lon="6.95663">
        <ele>1512.4040527344</ele>
        <time>2017-10-07T07:52:32Z</time>
      </trkpt>
      <trkpt lat="44.08439" lon="6.9566">
        <ele>1514.4040527344</ele>
        <time>2017-10-07T07:52:39Z</time>
      </trkpt>
      <trkpt lat="44.0843" lon="6.95658">
        <ele>1512.4040527344</ele>
        <time>2017-10-07T07:52:47Z</time>
      </trkpt>
      <trkpt lat="44.08422" lon="6.95657">
        <ele>1512.4040527344</ele>
        <time>2017-10-07T07:53:02Z</time>
      </trkpt>
      <trkpt lat="44.08404" lon="6.95654">
        <ele>1512.4040527344</ele>
        <time>2017-10-07T07:53:09Z</time>
      </trkpt>
      <trkpt lat="44.08386" lon="6.95653">
        <ele>1512.4040527344</ele>
        <time>2017-10-07T07:53:14Z</time>
      </trkpt>
      <trkpt lat="44.08363" lon="6.9565">
        <ele>1511.4040527344</ele>
        <time>2017-10-07T07:53:20Z</time>
      </trkpt>
      <trkpt lat="44.08339" lon="6.95642">
        <ele>1509.4040527344</ele>
        <time>2017-10-07T07:53:26Z</time>
      </trkpt>
      <trkpt lat="44.08313" lon="6.95632">
        <ele>1510.4040527344</ele>
        <time>2017-10-07T07:53:32Z</time>
      </trkpt>
      <trkpt lat="44.08288" lon="6.95621">
        <ele>1510.4040527344</ele>
        <time>2017-10-07T07:53:38Z</time>
      </trkpt>
      <trkpt lat="44.08262" lon="6.95613">
        <ele>1510.4040527344</ele>
        <time>2017-10-07T07:53:44Z</time>
      </trkpt>
      <trkpt lat="44.08234" lon="6.95609">
        <ele>1511.4040527344</ele>
        <time>2017-10-07T07:53:50Z</time>
      </trkpt>
      <trkpt lat="44.08204" lon="6.95611">
        <ele>1511.4040527344</ele>
        <time>2017-10-07T07:53:56Z</time>
      </trkpt>
      <trkpt lat="44.08171" lon="6.9561">
        <ele>1512.4040527344</ele>
        <time>2017-10-07T07:54:02Z</time>
      </trkpt>
      <trkpt lat="44.08146" lon="6.9561">
        <ele>1510.4040527344</ele>
        <time>2017-10-07T07:54:09Z</time>
      </trkpt>
      <trkpt lat="44.08137" lon="6.95609">
        <ele>1511.4040527344</ele>
        <time>2017-10-07T07:54:12Z</time>
      </trkpt>
      <trkpt lat="44.08121" lon="6.9561">
        <ele>1510.4040527344</ele>
        <time>2017-10-07T07:54:22Z</time>
      </trkpt>
      <trkpt lat="44.08112" lon="6.95607">
        <ele>1517.4040527344</ele>
        <time>2017-10-07T07:55:29Z</time>
      </trkpt>
      <trkpt lat="44.08104" lon="6.95607">
        <ele>1514.4040527344</ele>
        <time>2017-10-07T07:55:34Z</time>
      </trkpt>
      <trkpt lat="44.08089" lon="6.95613">
        <ele>1507.4040527344</ele>
        <time>2017-10-07T07:55:43Z</time>
      </trkpt>
      <trkpt lat="44.08081" lon="6.95614">
        <ele>1509.4040527344</ele>
        <time>2017-10-07T07:55:48Z</time>
      </trkpt>
      <trkpt lat="44.08073" lon="6.95611">
        <ele>1507.4040527344</ele>
        <time>2017-10-07T07:55:53Z</time>
      </trkpt>
      <trkpt lat="44.08065" lon="6.95612">
        <ele>1503.4040527344</ele>
        <time>2017-10-07T07:55:58Z</time>
      </trkpt>
      <trkpt lat="44.08059" lon="6.95617">
        <ele>1503.4040527344</ele>
        <time>2017-10-07T07:56:05Z</time>
      </trkpt>
      <trkpt lat="44.08063" lon="6.95626">
        <ele>1499.4040527344</ele>
        <time>2017-10-07T07:56:40Z</time>
      </trkpt>
      <trkpt lat="44.08076" lon="6.9564">
        <ele>1496.4040527344</ele>
        <time>2017-10-07T07:56:47Z</time>
      </trkpt>
      <trkpt lat="44.08059" lon="6.95648">
        <ele>1496.4040527344</ele>
        <time>2017-10-07T07:56:53Z</time>
      </trkpt>
      <trkpt lat="44.0804" lon="6.95657">
        <ele>1495.4040527344</ele>
        <time>2017-10-07T07:56:58Z</time>
      </trkpt>
      <trkpt lat="44.08017" lon="6.95671">
        <ele>1496.4040527344</ele>
        <time>2017-10-07T07:57:04Z</time>
      </trkpt>
      <trkpt lat="44.07993" lon="6.95685">
        <ele>1492.4040527344</ele>
        <time>2017-10-07T07:57:10Z</time>
      </trkpt>
      <trkpt lat="44.07979" lon="6.95699">
        <ele>1493.4040527344</ele>
        <time>2017-10-07T07:57:15Z</time>
      </trkpt>
      <trkpt lat="44.07973" lon="6.95705">
        <ele>1493.4040527344</ele>
        <time>2017-10-07T07:57:22Z</time>
      </trkpt>
      <trkpt lat="44.07961" lon="6.95717">
        <ele>1492.4040527344</ele>
        <time>2017-10-07T07:57:29Z</time>
      </trkpt>
      <trkpt lat="44.07946" lon="6.95734">
        <ele>1493.4040527344</ele>
        <time>2017-10-07T07:57:35Z</time>
      </trkpt>
      <trkpt lat="44.07932" lon="6.9575">
        <ele>1489.4040527344</ele>
        <time>2017-10-07T07:57:40Z</time>
      </trkpt>
      <trkpt lat="44.07918" lon="6.95763">
        <ele>1489.4040527344</ele>
        <time>2017-10-07T07:57:44Z</time>
      </trkpt>
      <trkpt lat="44.07895" lon="6.95774">
        <ele>1490.4040527344</ele>
        <time>2017-10-07T07:57:50Z</time>
      </trkpt>
      <trkpt lat="44.07869" lon="6.95776">
        <ele>1492.4040527344</ele>
        <time>2017-10-07T07:57:56Z</time>
      </trkpt>
      <trkpt lat="44.07852" lon="6.95779">
        <ele>1489.4040527344</ele>
        <time>2017-10-07T07:58:00Z</time>
      </trkpt>
      <trkpt lat="44.07829" lon="6.95795">
        <ele>1490.4040527344</ele>
        <time>2017-10-07T07:58:06Z</time>
      </trkpt>
      <trkpt lat="44.07805" lon="6.95804">
        <ele>1488.4029541016</ele>
        <time>2017-10-07T07:58:12Z</time>
      </trkpt>
      <trkpt lat="44.07795" lon="6.95803">
        <ele>1487.4029541016</ele>
        <time>2017-10-07T07:58:14Z</time>
      </trkpt>
      <trkpt lat="44.07767" lon="6.95794">
        <ele>1486.4029541016</ele>
        <time>2017-10-07T07:58:20Z</time>
      </trkpt>
      <trkpt lat="44.07736" lon="6.95794">
        <ele>1483.4029541016</ele>
        <time>2017-10-07T07:58:26Z</time>
      </trkpt>
      <trkpt lat="44.07707" lon="6.958">
        <ele>1482.4029541016</ele>
        <time>2017-10-07T07:58:32Z</time>
      </trkpt>
      <trkpt lat="44.07674" lon="6.95794">
        <ele>1482.4029541016</ele>
        <time>2017-10-07T07:58:38Z</time>
      </trkpt>
      <trkpt lat="44.0764" lon="6.95792">
        <ele>1482.4029541016</ele>
        <time>2017-10-07T07:58:44Z</time>
      </trkpt>
      <trkpt lat="44.07606" lon="6.95792">
        <ele>1483.4029541016</ele>
        <time>2017-10-07T07:58:50Z</time>
      </trkpt>
      <trkpt lat="44.07578" lon="6.95804">
        <ele>1485.4029541016</ele>
        <time>2017-10-07T07:58:56Z</time>
      </trkpt>
      <trkpt lat="44.07568" lon="6.9581">
        <ele>1485.4029541016</ele>
        <time>2017-10-07T07:58:58Z</time>
      </trkpt>
      <trkpt lat="44.0754" lon="6.95821">
        <ele>1488.4029541016</ele>
        <time>2017-10-07T07:59:04Z</time>
      </trkpt>
      <trkpt lat="44.07524" lon="6.95825">
        <ele>1491.4029541016</ele>
        <time>2017-10-07T07:59:11Z</time>
      </trkpt>
      <trkpt lat="44.07516" lon="6.95825">
        <ele>1491.4029541016</ele>
        <time>2017-10-07T07:59:14Z</time>
      </trkpt>
      <trkpt lat="44.07497" lon="6.95826">
        <ele>1491.4029541016</ele>
        <time>2017-10-07T07:59:21Z</time>
      </trkpt>
      <trkpt lat="44.07488" lon="6.95827">
        <ele>1489.4029541016</ele>
        <time>2017-10-07T07:59:24Z</time>
      </trkpt>
      <trkpt lat="44.07479" lon="6.95827">
        <ele>1489.4029541016</ele>
        <time>2017-10-07T07:59:27Z</time>
      </trkpt>
      <trkpt lat="44.07462" lon="6.95828">
        <ele>1487.4029541016</ele>
        <time>2017-10-07T07:59:33Z</time>
      </trkpt>
      <trkpt lat="44.07446" lon="6.95832">
        <ele>1488.4029541016</ele>
        <time>2017-10-07T07:59:40Z</time>
      </trkpt>
      <trkpt lat="44.0743" lon="6.9584">
        <ele>1489.4029541016</ele>
        <time>2017-10-07T07:59:47Z</time>
      </trkpt>
      <trkpt lat="44.07422" lon="6.95845">
        <ele>1495.4029541016</ele>
        <time>2017-10-07T07:59:52Z</time>
      </trkpt>
      <trkpt lat="44.07406" lon="6.95853">
        <ele>1495.4029541016</ele>
        <time>2017-10-07T07:59:59Z</time>
      </trkpt>
      <trkpt lat="44.07389" lon="6.95858">
        <ele>1494.4029541016</ele>
        <time>2017-10-07T08:00:07Z</time>
      </trkpt>
      <trkpt lat="44.07382" lon="6.95863">
        <ele>1489.4029541016</ele>
        <time>2017-10-07T08:00:10Z</time>
      </trkpt>
      <trkpt lat="44.07374" lon="6.95867">
        <ele>1488.4029541016</ele>
        <time>2017-10-07T08:00:14Z</time>
      </trkpt>
      <trkpt lat="44.07366" lon="6.95869">
        <ele>1489.4029541016</ele>
        <time>2017-10-07T08:00:18Z</time>
      </trkpt>
      <trkpt lat="44.07349" lon="6.95872">
        <ele>1491.4029541016</ele>
        <time>2017-10-07T08:00:26Z</time>
      </trkpt>
      <trkpt lat="44.07332" lon="6.95876">
        <ele>1496.4029541016</ele>
        <time>2017-10-07T08:00:34Z</time>
      </trkpt>
      <trkpt lat="44.07314" lon="6.95879">
        <ele>1498.4029541016</ele>
        <time>2017-10-07T08:00:42Z</time>
      </trkpt>
      <trkpt lat="44.073" lon="6.95887">
        <ele>1503.4029541016</ele>
        <time>2017-10-07T08:00:50Z</time>
      </trkpt>
      <trkpt lat="44.07291" lon="6.95891">
        <ele>1504.4029541016</ele>
        <time>2017-10-07T08:00:55Z</time>
      </trkpt>
      <trkpt lat="44.07275" lon="6.95894">
        <ele>1506.4029541016</ele>
        <time>2017-10-07T08:01:03Z</time>
      </trkpt>
      <trkpt lat="44.07259" lon="6.95897">
        <ele>1507.4029541016</ele>
        <time>2017-10-07T08:01:11Z</time>
      </trkpt>
      <trkpt lat="44.07244" lon="6.95902">
        <ele>1508.4029541016</ele>
        <time>2017-10-07T08:01:18Z</time>
      </trkpt>
      <trkpt lat="44.07229" lon="6.9591">
        <ele>1509.4029541016</ele>
        <time>2017-10-07T08:01:26Z</time>
      </trkpt>
      <trkpt lat="44.07221" lon="6.95914">
        <ele>1509.4029541016</ele>
        <time>2017-10-07T08:01:31Z</time>
      </trkpt>
      <trkpt lat="44.07214" lon="6.95919">
        <ele>1513.4029541016</ele>
        <time>2017-10-07T08:01:36Z</time>
      </trkpt>
      <trkpt lat="44.07199" lon="6.95926">
        <ele>1516.4029541016</ele>
        <time>2017-10-07T08:01:44Z</time>
      </trkpt>
      <trkpt lat="44.07182" lon="6.95929">
        <ele>1517.4029541016</ele>
        <time>2017-10-07T08:01:52Z</time>
      </trkpt>
      <trkpt lat="44.07166" lon="6.95924">
        <ele>1515.4029541016</ele>
        <time>2017-10-07T08:02:00Z</time>
      </trkpt>
      <trkpt lat="44.07152" lon="6.95908">
        <ele>1515.4029541016</ele>
        <time>2017-10-07T08:02:08Z</time>
      </trkpt>
      <trkpt lat="44.07146" lon="6.95887">
        <ele>1516.4029541016</ele>
        <time>2017-10-07T08:02:16Z</time>
      </trkpt>
      <trkpt lat="44.0714" lon="6.95867">
        <ele>1515.4029541016</ele>
        <time>2017-10-07T08:02:24Z</time>
      </trkpt>
      <trkpt lat="44.07135" lon="6.95847">
        <ele>1518.4029541016</ele>
        <time>2017-10-07T08:02:32Z</time>
      </trkpt>
      <trkpt lat="44.07126" lon="6.95831">
        <ele>1518.4029541016</ele>
        <time>2017-10-07T08:02:40Z</time>
      </trkpt>
      <trkpt lat="44.07111" lon="6.9584">
        <ele>1519.4019775391</ele>
        <time>2017-10-07T08:02:48Z</time>
      </trkpt>
      <trkpt lat="44.07098" lon="6.95851">
        <ele>1521.4019775391</ele>
        <time>2017-10-07T08:02:57Z</time>
      </trkpt>
      <trkpt lat="44.07083" lon="6.95861">
        <ele>1521.4019775391</ele>
        <time>2017-10-07T08:03:06Z</time>
      </trkpt>
      <trkpt lat="44.07076" lon="6.95866">
        <ele>1522.4019775391</ele>
        <time>2017-10-07T08:03:11Z</time>
      </trkpt>
      <trkpt lat="44.07071" lon="6.95876">
        <ele>1522.4029541016</ele>
        <time>2017-10-07T08:03:16Z</time>
      </trkpt>
      <trkpt lat="44.07067" lon="6.95887">
        <ele>1524.4029541016</ele>
        <time>2017-10-07T08:03:21Z</time>
      </trkpt>
      <trkpt lat="44.07063" lon="6.95896">
        <ele>1526.4029541016</ele>
        <time>2017-10-07T08:03:26Z</time>
      </trkpt>
      <trkpt lat="44.07055" lon="6.95913">
        <ele>1530.4029541016</ele>
        <time>2017-10-07T08:03:34Z</time>
      </trkpt>
      <trkpt lat="44.07049" lon="6.9592">
        <ele>1530.4029541016</ele>
        <time>2017-10-07T08:03:39Z</time>
      </trkpt>
      <trkpt lat="44.07036" lon="6.95931">
        <ele>1529.4029541016</ele>
        <time>2017-10-07T08:03:47Z</time>
      </trkpt>
      <trkpt lat="44.07023" lon="6.95943">
        <ele>1529.4029541016</ele>
        <time>2017-10-07T08:03:56Z</time>
      </trkpt>
      <trkpt lat="44.07016" lon="6.95951">
        <ele>1527.4029541016</ele>
        <time>2017-10-07T08:04:01Z</time>
      </trkpt>
      <trkpt lat="44.0701" lon="6.95958">
        <ele>1527.4029541016</ele>
        <time>2017-10-07T08:04:06Z</time>
      </trkpt>
      <trkpt lat="44.07004" lon="6.95966">
        <ele>1525.4029541016</ele>
        <time>2017-10-07T08:04:11Z</time>
      </trkpt>
      <trkpt lat="44.06996" lon="6.95973">
        <ele>1529.4029541016</ele>
        <time>2017-10-07T08:04:16Z</time>
      </trkpt>
      <trkpt lat="44.06987" lon="6.9598">
        <ele>1527.4029541016</ele>
        <time>2017-10-07T08:04:22Z</time>
      </trkpt>
      <trkpt lat="44.0698" lon="6.95989">
        <ele>1529.4029541016</ele>
        <time>2017-10-07T08:04:26Z</time>
      </trkpt>
      <trkpt lat="44.06966" lon="6.95997">
        <ele>1529.4029541016</ele>
        <time>2017-10-07T08:04:34Z</time>
      </trkpt>
      <trkpt lat="44.06958" lon="6.96002">
        <ele>1530.4029541016</ele>
        <time>2017-10-07T08:04:39Z</time>
      </trkpt>
      <trkpt lat="44.06951" lon="6.96005">
        <ele>1528.4029541016</ele>
        <time>2017-10-07T08:04:44Z</time>
      </trkpt>
      <trkpt lat="44.06936" lon="6.96012">
        <ele>1528.4029541016</ele>
        <time>2017-10-07T08:04:52Z</time>
      </trkpt>
      <trkpt lat="44.06928" lon="6.96016">
        <ele>1530.4029541016</ele>
        <time>2017-10-07T08:04:57Z</time>
      </trkpt>
      <trkpt lat="44.06912" lon="6.96021">
        <ele>1533.4029541016</ele>
        <time>2017-10-07T08:05:05Z</time>
      </trkpt>
      <trkpt lat="44.06896" lon="6.96029">
        <ele>1536.4029541016</ele>
        <time>2017-10-07T08:05:13Z</time>
      </trkpt>
      <trkpt lat="44.06889" lon="6.96032">
        <ele>1539.4029541016</ele>
        <time>2017-10-07T08:05:18Z</time>
      </trkpt>
      <trkpt lat="44.06881" lon="6.96036">
        <ele>1540.4029541016</ele>
        <time>2017-10-07T08:05:23Z</time>
      </trkpt>
      <trkpt lat="44.06865" lon="6.9604">
        <ele>1539.4029541016</ele>
        <time>2017-10-07T08:05:31Z</time>
      </trkpt>
      <trkpt lat="44.06849" lon="6.96048">
        <ele>1542.4029541016</ele>
        <time>2017-10-07T08:05:39Z</time>
      </trkpt>
      <trkpt lat="44.06835" lon="6.96058">
        <ele>1542.4029541016</ele>
        <time>2017-10-07T08:05:47Z</time>
      </trkpt>
      <trkpt lat="44.06829" lon="6.96064">
        <ele>1545.4029541016</ele>
        <time>2017-10-07T08:05:52Z</time>
      </trkpt>
      <trkpt lat="44.06815" lon="6.96074">
        <ele>1544.4029541016</ele>
        <time>2017-10-07T08:06:00Z</time>
      </trkpt>
      <trkpt lat="44.06807" lon="6.96079">
        <ele>1543.4029541016</ele>
        <time>2017-10-07T08:06:05Z</time>
      </trkpt>
      <trkpt lat="44.06791" lon="6.96089">
        <ele>1544.4019775391</ele>
        <time>2017-10-07T08:06:13Z</time>
      </trkpt>
      <trkpt lat="44.06783" lon="6.96095">
        <ele>1546.4019775391</ele>
        <time>2017-10-07T08:06:18Z</time>
      </trkpt>
      <trkpt lat="44.0677" lon="6.96106">
        <ele>1548.4029541016</ele>
        <time>2017-10-07T08:06:26Z</time>
      </trkpt>
      <trkpt lat="44.06765" lon="6.96113">
        <ele>1551.4029541016</ele>
        <time>2017-10-07T08:06:32Z</time>
      </trkpt>
      <trkpt lat="44.06756" lon="6.9613">
        <ele>1559.4029541016</ele>
        <time>2017-10-07T08:06:40Z</time>
      </trkpt>
      <trkpt lat="44.0675" lon="6.96137">
        <ele>1559.4029541016</ele>
        <time>2017-10-07T08:06:45Z</time>
      </trkpt>
      <trkpt lat="44.06736" lon="6.96149">
        <ele>1560.4029541016</ele>
        <time>2017-10-07T08:06:55Z</time>
      </trkpt>
      <trkpt lat="44.06723" lon="6.96164">
        <ele>1562.4029541016</ele>
        <time>2017-10-07T08:07:03Z</time>
      </trkpt>
      <trkpt lat="44.06717" lon="6.96172">
        <ele>1563.4029541016</ele>
        <time>2017-10-07T08:07:08Z</time>
      </trkpt>
      <trkpt lat="44.06705" lon="6.96187">
        <ele>1567.4029541016</ele>
        <time>2017-10-07T08:07:17Z</time>
      </trkpt>
      <trkpt lat="44.06698" lon="6.96191">
        <ele>1566.4029541016</ele>
        <time>2017-10-07T08:07:22Z</time>
      </trkpt>
      <trkpt lat="44.06692" lon="6.962">
        <ele>1568.4029541016</ele>
        <time>2017-10-07T08:07:27Z</time>
      </trkpt>
      <trkpt lat="44.0668" lon="6.96217">
        <ele>1567.4029541016</ele>
        <time>2017-10-07T08:07:35Z</time>
      </trkpt>
      <trkpt lat="44.06673" lon="6.96223">
        <ele>1566.4029541016</ele>
        <time>2017-10-07T08:07:40Z</time>
      </trkpt>
      <trkpt lat="44.06666" lon="6.9623">
        <ele>1568.4029541016</ele>
        <time>2017-10-07T08:07:45Z</time>
      </trkpt>
      <trkpt lat="44.06658" lon="6.96237">
        <ele>1569.4029541016</ele>
        <time>2017-10-07T08:07:50Z</time>
      </trkpt>
      <trkpt lat="44.06644" lon="6.96251">
        <ele>1568.4029541016</ele>
        <time>2017-10-07T08:07:59Z</time>
      </trkpt>
      <trkpt lat="44.06638" lon="6.96258">
        <ele>1567.4029541016</ele>
        <time>2017-10-07T08:08:04Z</time>
      </trkpt>
      <trkpt lat="44.06623" lon="6.96265">
        <ele>1572.4029541016</ele>
        <time>2017-10-07T08:08:12Z</time>
      </trkpt>
      <trkpt lat="44.06609" lon="6.96275">
        <ele>1572.4029541016</ele>
        <time>2017-10-07T08:08:21Z</time>
      </trkpt>
      <trkpt lat="44.06596" lon="6.96285">
        <ele>1573.4029541016</ele>
        <time>2017-10-07T08:08:29Z</time>
      </trkpt>
      <trkpt lat="44.0658" lon="6.96296">
        <ele>1573.4029541016</ele>
        <time>2017-10-07T08:08:37Z</time>
      </trkpt>
      <trkpt lat="44.06567" lon="6.9631">
        <ele>1578.4029541016</ele>
        <time>2017-10-07T08:08:45Z</time>
      </trkpt>
      <trkpt lat="44.06555" lon="6.96324">
        <ele>1580.4029541016</ele>
        <time>2017-10-07T08:08:52Z</time>
      </trkpt>
      <trkpt lat="44.0655" lon="6.9633">
        <ele>1580.4029541016</ele>
        <time>2017-10-07T08:08:56Z</time>
      </trkpt>
      <trkpt lat="44.06536" lon="6.96344">
        <ele>1579.4029541016</ele>
        <time>2017-10-07T08:09:04Z</time>
      </trkpt>
      <trkpt lat="44.0653" lon="6.96349">
        <ele>1579.4029541016</ele>
        <time>2017-10-07T08:09:09Z</time>
      </trkpt>
      <trkpt lat="44.06516" lon="6.96358">
        <ele>1579.4029541016</ele>
        <time>2017-10-07T08:09:17Z</time>
      </trkpt>
      <trkpt lat="44.065" lon="6.96358">
        <ele>1579.4029541016</ele>
        <time>2017-10-07T08:09:25Z</time>
      </trkpt>
      <trkpt lat="44.06491" lon="6.96354">
        <ele>1578.4029541016</ele>
        <time>2017-10-07T08:09:30Z</time>
      </trkpt>
      <trkpt lat="44.06477" lon="6.96344">
        <ele>1579.4029541016</ele>
        <time>2017-10-07T08:09:39Z</time>
      </trkpt>
      <trkpt lat="44.06469" lon="6.96339">
        <ele>1580.4029541016</ele>
        <time>2017-10-07T08:09:44Z</time>
      </trkpt>
      <trkpt lat="44.06461" lon="6.96337">
        <ele>1581.4019775391</ele>
        <time>2017-10-07T08:09:49Z</time>
      </trkpt>
      <trkpt lat="44.06453" lon="6.96335">
        <ele>1578.4019775391</ele>
        <time>2017-10-07T08:11:23Z</time>
      </trkpt>
      <trkpt lat="44.06435" lon="6.9634">
        <ele>1587.4019775391</ele>
        <time>2017-10-07T08:11:29Z</time>
      </trkpt>
      <trkpt lat="44.0641" lon="6.96348">
        <ele>1581.4019775391</ele>
        <time>2017-10-07T08:11:35Z</time>
      </trkpt>
      <trkpt lat="44.06389" lon="6.96359">
        <ele>1580.4019775391</ele>
        <time>2017-10-07T08:11:40Z</time>
      </trkpt>
      <trkpt lat="44.0636" lon="6.9636">
        <ele>1577.4019775391</ele>
        <time>2017-10-07T08:11:46Z</time>
      </trkpt>
      <trkpt lat="44.06339" lon="6.96333">
        <ele>1572.4019775391</ele>
        <time>2017-10-07T08:11:52Z</time>
      </trkpt>
      <trkpt lat="44.06324" lon="6.96286">
        <ele>1567.4019775391</ele>
        <time>2017-10-07T08:11:58Z</time>
      </trkpt>
      <trkpt lat="44.06301" lon="6.96244">
        <ele>1563.4019775391</ele>
        <time>2017-10-07T08:12:04Z</time>
      </trkpt>
      <trkpt lat="44.06265" lon="6.96213">
        <ele>1559.4019775391</ele>
        <time>2017-10-07T08:12:10Z</time>
      </trkpt>
      <trkpt lat="44.06228" lon="6.96187">
        <ele>1558.4019775391</ele>
        <time>2017-10-07T08:12:16Z</time>
      </trkpt>
      <trkpt lat="44.06201" lon="6.96154">
        <ele>1559.4019775391</ele>
        <time>2017-10-07T08:12:22Z</time>
      </trkpt>
      <trkpt lat="44.06185" lon="6.96138">
        <ele>1561.4019775391</ele>
        <time>2017-10-07T08:12:26Z</time>
      </trkpt>
      <trkpt lat="44.06168" lon="6.96104">
        <ele>1559.4019775391</ele>
        <time>2017-10-07T08:12:32Z</time>
      </trkpt>
      <trkpt lat="44.06164" lon="6.96067">
        <ele>1559.4019775391</ele>
        <time>2017-10-07T08:12:38Z</time>
      </trkpt>
      <trkpt lat="44.06139" lon="6.96047">
        <ele>1560.4010009766</ele>
        <time>2017-10-07T08:12:44Z</time>
      </trkpt>
      <trkpt lat="44.06118" lon="6.96012">
        <ele>1559.4010009766</ele>
        <time>2017-10-07T08:12:50Z</time>
      </trkpt>
      <trkpt lat="44.06103" lon="6.95973">
        <ele>1558.4010009766</ele>
        <time>2017-10-07T08:12:56Z</time>
      </trkpt>
      <trkpt lat="44.06089" lon="6.95927">
        <ele>1558.4010009766</ele>
        <time>2017-10-07T08:13:02Z</time>
      </trkpt>
      <trkpt lat="44.06067" lon="6.95885">
        <ele>1554.4010009766</ele>
        <time>2017-10-07T08:13:08Z</time>
      </trkpt>
      <trkpt lat="44.06056" lon="6.95877">
        <ele>1554.4010009766</ele>
        <time>2017-10-07T08:13:10Z</time>
      </trkpt>
      <trkpt lat="44.06043" lon="6.95907">
        <ele>1549.4010009766</ele>
        <time>2017-10-07T08:13:16Z</time>
      </trkpt>
      <trkpt lat="44.06041" lon="6.95941">
        <ele>1547.4010009766</ele>
        <time>2017-10-07T08:13:22Z</time>
      </trkpt>
      <trkpt lat="44.06042" lon="6.95952">
        <ele>1546.4010009766</ele>
        <time>2017-10-07T08:13:24Z</time>
      </trkpt>
      <trkpt lat="44.06045" lon="6.95979">
        <ele>1545.4010009766</ele>
        <time>2017-10-07T08:13:30Z</time>
      </trkpt>
      <trkpt lat="44.06043" lon="6.96004">
        <ele>1546.4010009766</ele>
        <time>2017-10-07T08:13:35Z</time>
      </trkpt>
      <trkpt lat="44.06042" lon="6.96016">
        <ele>1544.4010009766</ele>
        <time>2017-10-07T08:13:40Z</time>
      </trkpt>
      <trkpt lat="44.06042" lon="6.96027">
        <ele>1547.4010009766</ele>
        <time>2017-10-07T08:13:44Z</time>
      </trkpt>
      <trkpt lat="44.0604" lon="6.96037">
        <ele>1553.4010009766</ele>
        <time>2017-10-07T08:13:49Z</time>
      </trkpt>
      <trkpt lat="44.06033" lon="6.96046">
        <ele>1555.4010009766</ele>
        <time>2017-10-07T08:13:54Z</time>
      </trkpt>
      <trkpt lat="44.06027" lon="6.96067">
        <ele>1557.4010009766</ele>
        <time>2017-10-07T08:14:03Z</time>
      </trkpt>
      <trkpt lat="44.06032" lon="6.96089">
        <ele>1555.4010009766</ele>
        <time>2017-10-07T08:14:11Z</time>
      </trkpt>
      <trkpt lat="44.06035" lon="6.96111">
        <ele>1555.4010009766</ele>
        <time>2017-10-07T08:14:20Z</time>
      </trkpt>
      <trkpt lat="44.06038" lon="6.96121">
        <ele>1557.4010009766</ele>
        <time>2017-10-07T08:14:25Z</time>
      </trkpt>
      <trkpt lat="44.06037" lon="6.96133">
        <ele>1556.4010009766</ele>
        <time>2017-10-07T08:14:30Z</time>
      </trkpt>
      <trkpt lat="44.06036" lon="6.96143">
        <ele>1558.4010009766</ele>
        <time>2017-10-07T08:14:35Z</time>
      </trkpt>
      <trkpt lat="44.06039" lon="6.96155">
        <ele>1560.4010009766</ele>
        <time>2017-10-07T08:14:40Z</time>
      </trkpt>
      <trkpt lat="44.06039" lon="6.96166">
        <ele>1562.4019775391</ele>
        <time>2017-10-07T08:14:45Z</time>
      </trkpt>
      <trkpt lat="44.06039" lon="6.96178">
        <ele>1561.4019775391</ele>
        <time>2017-10-07T08:14:50Z</time>
      </trkpt>
      <trkpt lat="44.0604" lon="6.96189">
        <ele>1559.4019775391</ele>
        <time>2017-10-07T08:14:55Z</time>
      </trkpt>
      <trkpt lat="44.06036" lon="6.96199">
        <ele>1562.4019775391</ele>
        <time>2017-10-07T08:15:01Z</time>
      </trkpt>
      <trkpt lat="44.0603" lon="6.96208">
        <ele>1563.4019775391</ele>
        <time>2017-10-07T08:15:07Z</time>
      </trkpt>
      <trkpt lat="44.06025" lon="6.96216">
        <ele>1565.4019775391</ele>
        <time>2017-10-07T08:15:13Z</time>
      </trkpt>
      <trkpt lat="44.06022" lon="6.96227">
        <ele>1566.4019775391</ele>
        <time>2017-10-07T08:15:19Z</time>
      </trkpt>
      <trkpt lat="44.06019" lon="6.96238">
        <ele>1565.4019775391</ele>
        <time>2017-10-07T08:15:25Z</time>
      </trkpt>
      <trkpt lat="44.0602" lon="6.96248">
        <ele>1566.4019775391</ele>
        <time>2017-10-07T08:15:30Z</time>
      </trkpt>
      <trkpt lat="44.06027" lon="6.96267">
        <ele>1567.4019775391</ele>
        <time>2017-10-07T08:15:39Z</time>
      </trkpt>
      <trkpt lat="44.0603" lon="6.96277">
        <ele>1571.4019775391</ele>
        <time>2017-10-07T08:15:46Z</time>
      </trkpt>
      <trkpt lat="44.06034" lon="6.96286">
        <ele>1566.4019775391</ele>
        <time>2017-10-07T08:15:52Z</time>
      </trkpt>
      <trkpt lat="44.06037" lon="6.96295">
        <ele>1568.4019775391</ele>
        <time>2017-10-07T08:15:59Z</time>
      </trkpt>
      <trkpt lat="44.06039" lon="6.96306">
        <ele>1569.4019775391</ele>
        <time>2017-10-07T08:16:05Z</time>
      </trkpt>
      <trkpt lat="44.06041" lon="6.96317">
        <ele>1570.4019775391</ele>
        <time>2017-10-07T08:16:10Z</time>
      </trkpt>
      <trkpt lat="44.06042" lon="6.96328">
        <ele>1569.4019775391</ele>
        <time>2017-10-07T08:16:16Z</time>
      </trkpt>
      <trkpt lat="44.06042" lon="6.9634">
        <ele>1571.4019775391</ele>
        <time>2017-10-07T08:16:21Z</time>
      </trkpt>
      <trkpt lat="44.06041" lon="6.9635">
        <ele>1575.4019775391</ele>
        <time>2017-10-07T08:16:26Z</time>
      </trkpt>
      <trkpt lat="44.06041" lon="6.9636">
        <ele>1577.4019775391</ele>
        <time>2017-10-07T08:16:31Z</time>
      </trkpt>
      <trkpt lat="44.06038" lon="6.96371">
        <ele>1579.4019775391</ele>
        <time>2017-10-07T08:16:37Z</time>
      </trkpt>
      <trkpt lat="44.06035" lon="6.96382">
        <ele>1581.4019775391</ele>
        <time>2017-10-07T08:16:43Z</time>
      </trkpt>
      <trkpt lat="44.06032" lon="6.96391">
        <ele>1582.4019775391</ele>
        <time>2017-10-07T08:16:48Z</time>
      </trkpt>
      <trkpt lat="44.06029" lon="6.96401">
        <ele>1582.4019775391</ele>
        <time>2017-10-07T08:16:54Z</time>
      </trkpt>
      <trkpt lat="44.06024" lon="6.96408">
        <ele>1583.4019775391</ele>
        <time>2017-10-07T08:16:59Z</time>
      </trkpt>
      <trkpt lat="44.06017" lon="6.96416">
        <ele>1585.4019775391</ele>
        <time>2017-10-07T08:17:04Z</time>
      </trkpt>
      <trkpt lat="44.06012" lon="6.96426">
        <ele>1587.4019775391</ele>
        <time>2017-10-07T08:17:09Z</time>
      </trkpt>
      <trkpt lat="44.06008" lon="6.96434">
        <ele>1588.4019775391</ele>
        <time>2017-10-07T08:17:14Z</time>
      </trkpt>
      <trkpt lat="44.06001" lon="6.96441">
        <ele>1591.4019775391</ele>
        <time>2017-10-07T08:17:20Z</time>
      </trkpt>
      <trkpt lat="44.05993" lon="6.96441">
        <ele>1590.4019775391</ele>
        <time>2017-10-07T08:17:27Z</time>
      </trkpt>
      <trkpt lat="44.05987" lon="6.96435">
        <ele>1590.4019775391</ele>
        <time>2017-10-07T08:17:33Z</time>
      </trkpt>
      <trkpt lat="44.05981" lon="6.96428">
        <ele>1589.4019775391</ele>
        <time>2017-10-07T08:17:40Z</time>
      </trkpt>
      <trkpt lat="44.05976" lon="6.96421">
        <ele>1592.4019775391</ele>
        <time>2017-10-07T08:17:46Z</time>
      </trkpt>
      <trkpt lat="44.05969" lon="6.96416">
        <ele>1594.4019775391</ele>
        <time>2017-10-07T08:17:52Z</time>
      </trkpt>
      <trkpt lat="44.05964" lon="6.96409">
        <ele>1594.4019775391</ele>
        <time>2017-10-07T08:17:58Z</time>
      </trkpt>
      <trkpt lat="44.05957" lon="6.96404">
        <ele>1597.4019775391</ele>
        <time>2017-10-07T08:18:05Z</time>
      </trkpt>
      <trkpt lat="44.05949" lon="6.96402">
        <ele>1597.4019775391</ele>
        <time>2017-10-07T08:18:12Z</time>
      </trkpt>
      <trkpt lat="44.05941" lon="6.96401">
        <ele>1597.4019775391</ele>
        <time>2017-10-07T08:18:18Z</time>
      </trkpt>
      <trkpt lat="44.05934" lon="6.96404">
        <ele>1598.4019775391</ele>
        <time>2017-10-07T08:18:23Z</time>
      </trkpt>
      <trkpt lat="44.05927" lon="6.96408">
        <ele>1600.4019775391</ele>
        <time>2017-10-07T08:18:28Z</time>
      </trkpt>
      <trkpt lat="44.05912" lon="6.96422">
        <ele>1602.4019775391</ele>
        <time>2017-10-07T08:18:36Z</time>
      </trkpt>
      <trkpt lat="44.05897" lon="6.96434">
        <ele>1604.4019775391</ele>
        <time>2017-10-07T08:18:43Z</time>
      </trkpt>
      <trkpt lat="44.05883" lon="6.96446">
        <ele>1603.4019775391</ele>
        <time>2017-10-07T08:18:50Z</time>
      </trkpt>
      <trkpt lat="44.05874" lon="6.96464">
        <ele>1604.4019775391</ele>
        <time>2017-10-07T08:18:56Z</time>
      </trkpt>
      <trkpt lat="44.05866" lon="6.96481">
        <ele>1607.4019775391</ele>
        <time>2017-10-07T08:19:03Z</time>
      </trkpt>
      <trkpt lat="44.05858" lon="6.96503">
        <ele>1608.4019775391</ele>
        <time>2017-10-07T08:19:10Z</time>
      </trkpt>
      <trkpt lat="44.05849" lon="6.96522">
        <ele>1609.4019775391</ele>
        <time>2017-10-07T08:19:16Z</time>
      </trkpt>
      <trkpt lat="44.05835" lon="6.96537">
        <ele>1611.4019775391</ele>
        <time>2017-10-07T08:19:24Z</time>
      </trkpt>
      <trkpt lat="44.05819" lon="6.96547">
        <ele>1610.4019775391</ele>
        <time>2017-10-07T08:19:32Z</time>
      </trkpt>
      <trkpt lat="44.05812" lon="6.96555">
        <ele>1611.4019775391</ele>
        <time>2017-10-07T08:19:36Z</time>
      </trkpt>
      <trkpt lat="44.05801" lon="6.96572">
        <ele>1614.4019775391</ele>
        <time>2017-10-07T08:19:42Z</time>
      </trkpt>
      <trkpt lat="44.05797" lon="6.96591">
        <ele>1617.4019775391</ele>
        <time>2017-10-07T08:19:50Z</time>
      </trkpt>
      <trkpt lat="44.05794" lon="6.96602">
        <ele>1616.4019775391</ele>
        <time>2017-10-07T08:19:55Z</time>
      </trkpt>
      <trkpt lat="44.05788" lon="6.96621">
        <ele>1615.4019775391</ele>
        <time>2017-10-07T08:20:03Z</time>
      </trkpt>
      <trkpt lat="44.05781" lon="6.96642">
        <ele>1616.4019775391</ele>
        <time>2017-10-07T08:20:11Z</time>
      </trkpt>
      <trkpt lat="44.05775" lon="6.96664">
        <ele>1615.4019775391</ele>
        <time>2017-10-07T08:20:19Z</time>
      </trkpt>
      <trkpt lat="44.05766" lon="6.96684">
        <ele>1616.4019775391</ele>
        <time>2017-10-07T08:20:27Z</time>
      </trkpt>
      <trkpt lat="44.05751" lon="6.96699">
        <ele>1617.4019775391</ele>
        <time>2017-10-07T08:20:35Z</time>
      </trkpt>
      <trkpt lat="44.05736" lon="6.96704">
        <ele>1618.4019775391</ele>
        <time>2017-10-07T08:20:41Z</time>
      </trkpt>
      <trkpt lat="44.05721" lon="6.96706">
        <ele>1617.4019775391</ele>
        <time>2017-10-07T08:20:47Z</time>
      </trkpt>
      <trkpt lat="44.05703" lon="6.96701">
        <ele>1616.4019775391</ele>
        <time>2017-10-07T08:20:55Z</time>
      </trkpt>
      <trkpt lat="44.05688" lon="6.96691">
        <ele>1617.4019775391</ele>
        <time>2017-10-07T08:21:03Z</time>
      </trkpt>
      <trkpt lat="44.05672" lon="6.96686">
        <ele>1619.4019775391</ele>
        <time>2017-10-07T08:21:11Z</time>
      </trkpt>
      <trkpt lat="44.05656" lon="6.96682">
        <ele>1620.4019775391</ele>
        <time>2017-10-07T08:21:19Z</time>
      </trkpt>
      <trkpt lat="44.05647" lon="6.96681">
        <ele>1622.4019775391</ele>
        <time>2017-10-07T08:21:24Z</time>
      </trkpt>
      <trkpt lat="44.05631" lon="6.96682">
        <ele>1622.4019775391</ele>
        <time>2017-10-07T08:21:32Z</time>
      </trkpt>
      <trkpt lat="44.05615" lon="6.96685">
        <ele>1622.4019775391</ele>
        <time>2017-10-07T08:21:41Z</time>
      </trkpt>
      <trkpt lat="44.05606" lon="6.96687">
        <ele>1622.4019775391</ele>
        <time>2017-10-07T08:21:46Z</time>
      </trkpt>
      <trkpt lat="44.05598" lon="6.96687">
        <ele>1624.4019775391</ele>
        <time>2017-10-07T08:21:51Z</time>
      </trkpt>
      <trkpt lat="44.05583" lon="6.96679">
        <ele>1626.4019775391</ele>
        <time>2017-10-07T08:22:00Z</time>
      </trkpt>
      <trkpt lat="44.05569" lon="6.96671">
        <ele>1628.4019775391</ele>
        <time>2017-10-07T08:22:08Z</time>
      </trkpt>
      <trkpt lat="44.05561" lon="6.96673">
        <ele>1629.4019775391</ele>
        <time>2017-10-07T08:22:13Z</time>
      </trkpt>
      <trkpt lat="44.05555" lon="6.96679">
        <ele>1630.4019775391</ele>
        <time>2017-10-07T08:22:18Z</time>
      </trkpt>
      <trkpt lat="44.05547" lon="6.96683">
        <ele>1631.4019775391</ele>
        <time>2017-10-07T08:22:24Z</time>
      </trkpt>
      <trkpt lat="44.05541" lon="6.96688">
        <ele>1632.4019775391</ele>
        <time>2017-10-07T08:22:30Z</time>
      </trkpt>
      <trkpt lat="44.05533" lon="6.96693">
        <ele>1633.4019775391</ele>
        <time>2017-10-07T08:22:37Z</time>
      </trkpt>
      <trkpt lat="44.05525" lon="6.96695">
        <ele>1634.4019775391</ele>
        <time>2017-10-07T08:22:45Z</time>
      </trkpt>
      <trkpt lat="44.05519" lon="6.96686">
        <ele>1635.4019775391</ele>
        <time>2017-10-07T08:22:52Z</time>
      </trkpt>
      <trkpt lat="44.05515" lon="6.96678">
        <ele>1635.4019775391</ele>
        <time>2017-10-07T08:22:57Z</time>
      </trkpt>
      <trkpt lat="44.05502" lon="6.96662">
        <ele>1634.4019775391</ele>
        <time>2017-10-07T08:23:05Z</time>
      </trkpt>
      <trkpt lat="44.05489" lon="6.96645">
        <ele>1628.4019775391</ele>
        <time>2017-10-07T08:23:12Z</time>
      </trkpt>
      <trkpt lat="44.05476" lon="6.96629">
        <ele>1632.4019775391</ele>
        <time>2017-10-07T08:23:18Z</time>
      </trkpt>
      <trkpt lat="44.05444" lon="6.96612">
        <ele>1627.4010009766</ele>
        <time>2017-10-07T08:23:24Z</time>
      </trkpt>
      <trkpt lat="44.0541" lon="6.96606">
        <ele>1625.4010009766</ele>
        <time>2017-10-07T08:23:29Z</time>
      </trkpt>
      <trkpt lat="44.05394" lon="6.96616">
        <ele>1628.4010009766</ele>
        <time>2017-10-07T08:23:34Z</time>
      </trkpt>
      <trkpt lat="44.05378" lon="6.96621">
        <ele>1632.4010009766</ele>
        <time>2017-10-07T08:23:41Z</time>
      </trkpt>
      <trkpt lat="44.05366" lon="6.96632">
        <ele>1636.4010009766</ele>
        <time>2017-10-07T08:23:48Z</time>
      </trkpt>
      <trkpt lat="44.05351" lon="6.96642">
        <ele>1637.4010009766</ele>
        <time>2017-10-07T08:23:56Z</time>
      </trkpt>
      <trkpt lat="44.05343" lon="6.96647">
        <ele>1640.4010009766</ele>
        <time>2017-10-07T08:24:00Z</time>
      </trkpt>
      <trkpt lat="44.05328" lon="6.96656">
        <ele>1640.4010009766</ele>
        <time>2017-10-07T08:24:07Z</time>
      </trkpt>
      <trkpt lat="44.05311" lon="6.96657">
        <ele>1641.4010009766</ele>
        <time>2017-10-07T08:24:14Z</time>
      </trkpt>
      <trkpt lat="44.05302" lon="6.96655">
        <ele>1643.4010009766</ele>
        <time>2017-10-07T08:24:18Z</time>
      </trkpt>
      <trkpt lat="44.05287" lon="6.96646">
        <ele>1642.4010009766</ele>
        <time>2017-10-07T08:24:25Z</time>
      </trkpt>
      <trkpt lat="44.05272" lon="6.96635">
        <ele>1643.4010009766</ele>
        <time>2017-10-07T08:24:33Z</time>
      </trkpt>
      <trkpt lat="44.05258" lon="6.9662">
        <ele>1643.4010009766</ele>
        <time>2017-10-07T08:24:41Z</time>
      </trkpt>
      <trkpt lat="44.05247" lon="6.96601">
        <ele>1642.4010009766</ele>
        <time>2017-10-07T08:24:48Z</time>
      </trkpt>
      <trkpt lat="44.05224" lon="6.96577">
        <ele>1640.4010009766</ele>
        <time>2017-10-07T08:24:54Z</time>
      </trkpt>
      <trkpt lat="44.0519" lon="6.96574">
        <ele>1639.4010009766</ele>
        <time>2017-10-07T08:25:00Z</time>
      </trkpt>
      <trkpt lat="44.05168" lon="6.96587">
        <ele>1639.4010009766</ele>
        <time>2017-10-07T08:25:06Z</time>
      </trkpt>
      <trkpt lat="44.05135" lon="6.96591">
        <ele>1636.4010009766</ele>
        <time>2017-10-07T08:25:12Z</time>
      </trkpt>
      <trkpt lat="44.0511" lon="6.96599">
        <ele>1634.4010009766</ele>
        <time>2017-10-07T08:25:16Z</time>
      </trkpt>
      <trkpt lat="44.05078" lon="6.96609">
        <ele>1628.4010009766</ele>
        <time>2017-10-07T08:25:22Z</time>
      </trkpt>
      <trkpt lat="44.05042" lon="6.96611">
        <ele>1625.4010009766</ele>
        <time>2017-10-07T08:25:28Z</time>
      </trkpt>
      <trkpt lat="44.05022" lon="6.96609">
        <ele>1622.4010009766</ele>
        <time>2017-10-07T08:25:33Z</time>
      </trkpt>
      <trkpt lat="44.05004" lon="6.96605">
        <ele>1619.4010009766</ele>
        <time>2017-10-07T08:25:46Z</time>
      </trkpt>
      <trkpt lat="44.05002" lon="6.96593">
        <ele>1617.4010009766</ele>
        <time>2017-10-07T08:31:13Z</time>
      </trkpt>
      <trkpt lat="44.04998" lon="6.96568">
        <ele>1616.4010009766</ele>
        <time>2017-10-07T08:31:18Z</time>
      </trkpt>
      <trkpt lat="44.04992" lon="6.96522">
        <ele>1615.4010009766</ele>
        <time>2017-10-07T08:31:24Z</time>
      </trkpt>
      <trkpt lat="44.04987" lon="6.96472">
        <ele>1609.4010009766</ele>
        <time>2017-10-07T08:31:30Z</time>
      </trkpt>
      <trkpt lat="44.04973" lon="6.96427">
        <ele>1608.4000244141</ele>
        <time>2017-10-07T08:31:36Z</time>
      </trkpt>
      <trkpt lat="44.0496" lon="6.96385">
        <ele>1606.4000244141</ele>
        <time>2017-10-07T08:31:41Z</time>
      </trkpt>
      <trkpt lat="44.04946" lon="6.96348">
        <ele>1602.4000244141</ele>
        <time>2017-10-07T08:31:46Z</time>
      </trkpt>
      <trkpt lat="44.04937" lon="6.96303">
        <ele>1597.4000244141</ele>
        <time>2017-10-07T08:31:52Z</time>
      </trkpt>
      <trkpt lat="44.04931" lon="6.96254">
        <ele>1594.4000244141</ele>
        <time>2017-10-07T08:31:58Z</time>
      </trkpt>
      <trkpt lat="44.04932" lon="6.96224">
        <ele>1590.4000244141</ele>
        <time>2017-10-07T08:32:01Z</time>
      </trkpt>
      <trkpt lat="44.04933" lon="6.96207">
        <ele>1587.4000244141</ele>
        <time>2017-10-07T08:32:03Z</time>
      </trkpt>
      <trkpt lat="44.04932" lon="6.96194">
        <ele>1586.4000244141</ele>
        <time>2017-10-07T08:32:05Z</time>
      </trkpt>
      <trkpt lat="44.04925" lon="6.96183">
        <ele>1586.4000244141</ele>
        <time>2017-10-07T08:32:07Z</time>
      </trkpt>
      <trkpt lat="44.04906" lon="6.96158">
        <ele>1583.4000244141</ele>
        <time>2017-10-07T08:32:13Z</time>
      </trkpt>
      <trkpt lat="44.04895" lon="6.96126">
        <ele>1581.4000244141</ele>
        <time>2017-10-07T08:32:19Z</time>
      </trkpt>
      <trkpt lat="44.04883" lon="6.96084">
        <ele>1580.4000244141</ele>
        <time>2017-10-07T08:32:25Z</time>
      </trkpt>
      <trkpt lat="44.04856" lon="6.96039">
        <ele>1579.3990478516</ele>
        <time>2017-10-07T08:32:31Z</time>
      </trkpt>
      <trkpt lat="44.04822" lon="6.96043">
        <ele>1575.3990478516</ele>
        <time>2017-10-07T08:32:37Z</time>
      </trkpt>
      <trkpt lat="44.04805" lon="6.96015">
        <ele>1579.3990478516</ele>
        <time>2017-10-07T08:32:43Z</time>
      </trkpt>
      <trkpt lat="44.04803" lon="6.95972">
        <ele>1576.3990478516</ele>
        <time>2017-10-07T08:32:49Z</time>
      </trkpt>
      <trkpt lat="44.0479" lon="6.95944">
        <ele>1575.3990478516</ele>
        <time>2017-10-07T08:32:55Z</time>
      </trkpt>
      <trkpt lat="44.04764" lon="6.95932">
        <ele>1577.3990478516</ele>
        <time>2017-10-07T08:33:01Z</time>
      </trkpt>
      <trkpt lat="44.04741" lon="6.95919">
        <ele>1577.3990478516</ele>
        <time>2017-10-07T08:33:07Z</time>
      </trkpt>
      <trkpt lat="44.0473" lon="6.95897">
        <ele>1576.3990478516</ele>
        <time>2017-10-07T08:33:13Z</time>
      </trkpt>
      <trkpt lat="44.04727" lon="6.95859">
        <ele>1573.3990478516</ele>
        <time>2017-10-07T08:33:19Z</time>
      </trkpt>
      <trkpt lat="44.0473" lon="6.9581">
        <ele>1572.3990478516</ele>
        <time>2017-10-07T08:33:25Z</time>
      </trkpt>
      <trkpt lat="44.04733" lon="6.95769">
        <ele>1570.3990478516</ele>
        <time>2017-10-07T08:33:31Z</time>
      </trkpt>
      <trkpt lat="44.04736" lon="6.95726">
        <ele>1566.3990478516</ele>
        <time>2017-10-07T08:33:36Z</time>
      </trkpt>
      <trkpt lat="44.04728" lon="6.95672">
        <ele>1565.3990478516</ele>
        <time>2017-10-07T08:33:42Z</time>
      </trkpt>
      <trkpt lat="44.0472" lon="6.95629">
        <ele>1567.3979492188</ele>
        <time>2017-10-07T08:33:48Z</time>
      </trkpt>
      <trkpt lat="44.04709" lon="6.95614">
        <ele>1566.3979492188</ele>
        <time>2017-10-07T08:33:56Z</time>
      </trkpt>
      <trkpt lat="44.04699" lon="6.95595">
        <ele>1565.3979492188</ele>
        <time>2017-10-07T08:34:03Z</time>
      </trkpt>
      <trkpt lat="44.04687" lon="6.95581">
        <ele>1565.3979492188</ele>
        <time>2017-10-07T08:34:09Z</time>
      </trkpt>
      <trkpt lat="44.04671" lon="6.95577">
        <ele>1566.3979492188</ele>
        <time>2017-10-07T08:34:17Z</time>
      </trkpt>
      <trkpt lat="44.04656" lon="6.95567">
        <ele>1568.3979492188</ele>
        <time>2017-10-07T08:34:26Z</time>
      </trkpt>
      <trkpt lat="44.04646" lon="6.95552">
        <ele>1571.3979492188</ele>
        <time>2017-10-07T08:34:34Z</time>
      </trkpt>
      <trkpt lat="44.04644" lon="6.95542">
        <ele>1573.3979492188</ele>
        <time>2017-10-07T08:34:40Z</time>
      </trkpt>
      <trkpt lat="44.04644" lon="6.9553">
        <ele>1575.3979492188</ele>
        <time>2017-10-07T08:34:46Z</time>
      </trkpt>
      <trkpt lat="44.04644" lon="6.9552">
        <ele>1577.3979492188</ele>
        <time>2017-10-07T08:34:51Z</time>
      </trkpt>
      <trkpt lat="44.04644" lon="6.95508">
        <ele>1578.3979492188</ele>
        <time>2017-10-07T08:34:56Z</time>
      </trkpt>
      <trkpt lat="44.04646" lon="6.95497">
        <ele>1577.3979492188</ele>
        <time>2017-10-07T08:35:02Z</time>
      </trkpt>
      <trkpt lat="44.04645" lon="6.95486">
        <ele>1579.3979492188</ele>
        <time>2017-10-07T08:35:08Z</time>
      </trkpt>
      <trkpt lat="44.04645" lon="6.95474">
        <ele>1581.3979492188</ele>
        <time>2017-10-07T08:35:15Z</time>
      </trkpt>
      <trkpt lat="44.04642" lon="6.95464">
        <ele>1582.3979492188</ele>
        <time>2017-10-07T08:35:21Z</time>
      </trkpt>
      <trkpt lat="44.04636" lon="6.95459">
        <ele>1584.3979492188</ele>
        <time>2017-10-07T08:35:27Z</time>
      </trkpt>
      <trkpt lat="44.04628" lon="6.9546">
        <ele>1585.3979492188</ele>
        <time>2017-10-07T08:35:34Z</time>
      </trkpt>
      <trkpt lat="44.04621" lon="6.95454">
        <ele>1584.3979492188</ele>
        <time>2017-10-07T08:35:39Z</time>
      </trkpt>
      <trkpt lat="44.04617" lon="6.95445">
        <ele>1584.3979492188</ele>
        <time>2017-10-07T08:35:44Z</time>
      </trkpt>
      <trkpt lat="44.04615" lon="6.95434">
        <ele>1583.3979492188</ele>
        <time>2017-10-07T08:35:50Z</time>
      </trkpt>
      <trkpt lat="44.04613" lon="6.95423">
        <ele>1583.3979492188</ele>
        <time>2017-10-07T08:35:55Z</time>
      </trkpt>
      <trkpt lat="44.04611" lon="6.95412">
        <ele>1585.3979492188</ele>
        <time>2017-10-07T08:36:01Z</time>
      </trkpt>
      <trkpt lat="44.0461" lon="6.95401">
        <ele>1585.3979492188</ele>
        <time>2017-10-07T08:36:07Z</time>
      </trkpt>
      <trkpt lat="44.0461" lon="6.9539">
        <ele>1586.3979492188</ele>
        <time>2017-10-07T08:36:12Z</time>
      </trkpt>
      <trkpt lat="44.04614" lon="6.95379">
        <ele>1586.3979492188</ele>
        <time>2017-10-07T08:36:18Z</time>
      </trkpt>
      <trkpt lat="44.04617" lon="6.9536">
        <ele>1589.3979492188</ele>
        <time>2017-10-07T08:36:26Z</time>
      </trkpt>
      <trkpt lat="44.04616" lon="6.95348">
        <ele>1590.3979492188</ele>
        <time>2017-10-07T08:36:31Z</time>
      </trkpt>
      <trkpt lat="44.04614" lon="6.95326">
        <ele>1591.3979492188</ele>
        <time>2017-10-07T08:36:41Z</time>
      </trkpt>
      <trkpt lat="44.0461" lon="6.95315">
        <ele>1593.3979492188</ele>
        <time>2017-10-07T08:36:46Z</time>
      </trkpt>
      <trkpt lat="44.04603" lon="6.95308">
        <ele>1594.3979492188</ele>
        <time>2017-10-07T08:36:51Z</time>
      </trkpt>
      <trkpt lat="44.04596" lon="6.95301">
        <ele>1593.3979492188</ele>
        <time>2017-10-07T08:36:56Z</time>
      </trkpt>
      <trkpt lat="44.04581" lon="6.95291">
        <ele>1595.3979492188</ele>
        <time>2017-10-07T08:37:05Z</time>
      </trkpt>
      <trkpt lat="44.04566" lon="6.95294">
        <ele>1598.3979492188</ele>
        <time>2017-10-07T08:37:13Z</time>
      </trkpt>
      <trkpt lat="44.04552" lon="6.95305">
        <ele>1597.3979492188</ele>
        <time>2017-10-07T08:37:21Z</time>
      </trkpt>
      <trkpt lat="44.04537" lon="6.95313">
        <ele>1599.3979492188</ele>
        <time>2017-10-07T08:37:28Z</time>
      </trkpt>
      <trkpt lat="44.04522" lon="6.95302">
        <ele>1598.3969726562</ele>
        <time>2017-10-07T08:37:36Z</time>
      </trkpt>
      <trkpt lat="44.04514" lon="6.95281">
        <ele>1602.3969726562</ele>
        <time>2017-10-07T08:37:43Z</time>
      </trkpt>
      <trkpt lat="44.0451" lon="6.9526">
        <ele>1602.3969726562</ele>
        <time>2017-10-07T08:37:49Z</time>
      </trkpt>
      <trkpt lat="44.04513" lon="6.95237">
        <ele>1602.3969726562</ele>
        <time>2017-10-07T08:37:56Z</time>
      </trkpt>
      <trkpt lat="44.04513" lon="6.95214">
        <ele>1602.3969726562</ele>
        <time>2017-10-07T08:38:02Z</time>
      </trkpt>
      <trkpt lat="44.0451" lon="6.95192">
        <ele>1602.3969726562</ele>
        <time>2017-10-07T08:38:08Z</time>
      </trkpt>
      <trkpt lat="44.04502" lon="6.95169">
        <ele>1602.3969726562</ele>
        <time>2017-10-07T08:38:14Z</time>
      </trkpt>
      <trkpt lat="44.04492" lon="6.9515">
        <ele>1604.3969726562</ele>
        <time>2017-10-07T08:38:20Z</time>
      </trkpt>
      <trkpt lat="44.0448" lon="6.95133">
        <ele>1604.3969726562</ele>
        <time>2017-10-07T08:38:26Z</time>
      </trkpt>
      <trkpt lat="44.04469" lon="6.95116">
        <ele>1604.3969726562</ele>
        <time>2017-10-07T08:38:32Z</time>
      </trkpt>
      <trkpt lat="44.04462" lon="6.95094">
        <ele>1604.3969726562</ele>
        <time>2017-10-07T08:38:38Z</time>
      </trkpt>
      <trkpt lat="44.04457" lon="6.95072">
        <ele>1606.3969726562</ele>
        <time>2017-10-07T08:38:44Z</time>
      </trkpt>
      <trkpt lat="44.04451" lon="6.95049">
        <ele>1607.3969726562</ele>
        <time>2017-10-07T08:38:50Z</time>
      </trkpt>
      <trkpt lat="44.04438" lon="6.95035">
        <ele>1608.3969726562</ele>
        <time>2017-10-07T08:38:56Z</time>
      </trkpt>
      <trkpt lat="44.04427" lon="6.9502">
        <ele>1610.3969726562</ele>
        <time>2017-10-07T08:39:02Z</time>
      </trkpt>
      <trkpt lat="44.04415" lon="6.95004">
        <ele>1612.3969726562</ele>
        <time>2017-10-07T08:39:08Z</time>
      </trkpt>
      <trkpt lat="44.04406" lon="6.94987">
        <ele>1612.3969726562</ele>
        <time>2017-10-07T08:39:14Z</time>
      </trkpt>
      <trkpt lat="44.04395" lon="6.94971">
        <ele>1612.3969726562</ele>
        <time>2017-10-07T08:39:20Z</time>
      </trkpt>
      <trkpt lat="44.04387" lon="6.9495">
        <ele>1613.3969726562</ele>
        <time>2017-10-07T08:39:26Z</time>
      </trkpt>
      <trkpt lat="44.04378" lon="6.9493">
        <ele>1613.3969726562</ele>
        <time>2017-10-07T08:39:32Z</time>
      </trkpt>
      <trkpt lat="44.04371" lon="6.94911">
        <ele>1613.3959960938</ele>
        <time>2017-10-07T08:39:38Z</time>
      </trkpt>
      <trkpt lat="44.04356" lon="6.94908">
        <ele>1615.3959960938</ele>
        <time>2017-10-07T08:39:46Z</time>
      </trkpt>
      <trkpt lat="44.04349" lon="6.94911">
        <ele>1615.3959960938</ele>
        <time>2017-10-07T08:39:51Z</time>
      </trkpt>
      <trkpt lat="44.04341" lon="6.94911">
        <ele>1616.3959960938</ele>
        <time>2017-10-07T08:39:57Z</time>
      </trkpt>
      <trkpt lat="44.04334" lon="6.94905">
        <ele>1616.3959960938</ele>
        <time>2017-10-07T08:40:03Z</time>
      </trkpt>
      <trkpt lat="44.04327" lon="6.949">
        <ele>1618.3959960938</ele>
        <time>2017-10-07T08:40:08Z</time>
      </trkpt>
      <trkpt lat="44.04322" lon="6.94893">
        <ele>1618.3959960938</ele>
        <time>2017-10-07T08:40:13Z</time>
      </trkpt>
      <trkpt lat="44.04316" lon="6.94884">
        <ele>1620.3959960938</ele>
        <time>2017-10-07T08:40:18Z</time>
      </trkpt>
      <trkpt lat="44.0431" lon="6.94876">
        <ele>1622.3959960938</ele>
        <time>2017-10-07T08:40:23Z</time>
      </trkpt>
      <trkpt lat="44.04304" lon="6.94867">
        <ele>1622.3959960938</ele>
        <time>2017-10-07T08:40:29Z</time>
      </trkpt>
      <trkpt lat="44.04299" lon="6.94859">
        <ele>1624.3959960938</ele>
        <time>2017-10-07T08:40:34Z</time>
      </trkpt>
      <trkpt lat="44.04294" lon="6.94851">
        <ele>1624.3959960938</ele>
        <time>2017-10-07T08:40:39Z</time>
      </trkpt>
      <trkpt lat="44.04291" lon="6.94842">
        <ele>1625.3959960938</ele>
        <time>2017-10-07T08:40:44Z</time>
      </trkpt>
      <trkpt lat="44.04287" lon="6.94832">
        <ele>1624.3959960938</ele>
        <time>2017-10-07T08:40:49Z</time>
      </trkpt>
      <trkpt lat="44.04287" lon="6.94811">
        <ele>1625.3959960938</ele>
        <time>2017-10-07T08:40:58Z</time>
      </trkpt>
      <trkpt lat="44.0429" lon="6.94802">
        <ele>1626.3959960938</ele>
        <time>2017-10-07T08:41:06Z</time>
      </trkpt>
      <trkpt lat="44.04296" lon="6.94796">
        <ele>1627.3959960938</ele>
        <time>2017-10-07T08:41:49Z</time>
      </trkpt>
      <trkpt lat="44.04299" lon="6.94787">
        <ele>1628.3959960938</ele>
        <time>2017-10-07T08:41:54Z</time>
      </trkpt>
      <trkpt lat="44.04304" lon="6.94778">
        <ele>1624.3959960938</ele>
        <time>2017-10-07T08:41:59Z</time>
      </trkpt>
      <trkpt lat="44.04309" lon="6.9477">
        <ele>1625.3959960938</ele>
        <time>2017-10-07T08:42:04Z</time>
      </trkpt>
      <trkpt lat="44.0432" lon="6.94753">
        <ele>1626.3959960938</ele>
        <time>2017-10-07T08:42:12Z</time>
      </trkpt>
      <trkpt lat="44.04329" lon="6.94732">
        <ele>1628.3959960938</ele>
        <time>2017-10-07T08:42:19Z</time>
      </trkpt>
      <trkpt lat="44.04338" lon="6.94715">
        <ele>1628.3959960938</ele>
        <time>2017-10-07T08:42:26Z</time>
      </trkpt>
      <trkpt lat="44.04343" lon="6.94704">
        <ele>1629.3959960938</ele>
        <time>2017-10-07T08:42:30Z</time>
      </trkpt>
      <trkpt lat="44.04349" lon="6.94685">
        <ele>1628.3959960938</ele>
        <time>2017-10-07T08:42:36Z</time>
      </trkpt>
      <trkpt lat="44.04359" lon="6.94663">
        <ele>1628.3959960938</ele>
        <time>2017-10-07T08:42:42Z</time>
      </trkpt>
      <trkpt lat="44.04367" lon="6.9464">
        <ele>1629.3959960938</ele>
        <time>2017-10-07T08:42:48Z</time>
      </trkpt>
      <trkpt lat="44.04376" lon="6.94618">
        <ele>1631.3959960938</ele>
        <time>2017-10-07T08:42:54Z</time>
      </trkpt>
      <trkpt lat="44.0439" lon="6.94609">
        <ele>1631.3959960938</ele>
        <time>2017-10-07T08:43:00Z</time>
      </trkpt>
      <trkpt lat="44.044" lon="6.94591">
        <ele>1634.3959960938</ele>
        <time>2017-10-07T08:43:07Z</time>
      </trkpt>
      <trkpt lat="44.04408" lon="6.9457">
        <ele>1637.3959960938</ele>
        <time>2017-10-07T08:43:15Z</time>
      </trkpt>
      <trkpt lat="44.04411" lon="6.94547">
        <ele>1636.3959960938</ele>
        <time>2017-10-07T08:43:24Z</time>
      </trkpt>
      <trkpt lat="44.044" lon="6.94534">
        <ele>1638.3959960938</ele>
        <time>2017-10-07T08:43:32Z</time>
      </trkpt>
      <trkpt lat="44.04395" lon="6.94525">
        <ele>1640.3959960938</ele>
        <time>2017-10-07T08:43:38Z</time>
      </trkpt>
      <trkpt lat="44.04392" lon="6.94515">
        <ele>1642.3959960938</ele>
        <time>2017-10-07T08:43:45Z</time>
      </trkpt>
      <trkpt lat="44.04389" lon="6.94505">
        <ele>1644.3959960938</ele>
        <time>2017-10-07T08:43:51Z</time>
      </trkpt>
      <trkpt lat="44.04385" lon="6.94496">
        <ele>1646.3959960938</ele>
        <time>2017-10-07T08:43:57Z</time>
      </trkpt>
      <trkpt lat="44.04381" lon="6.94486">
        <ele>1646.3959960938</ele>
        <time>2017-10-07T08:44:04Z</time>
      </trkpt>
      <trkpt lat="44.04377" lon="6.94478">
        <ele>1648.3959960938</ele>
        <time>2017-10-07T08:44:10Z</time>
      </trkpt>
      <trkpt lat="44.04373" lon="6.94468">
        <ele>1650.3959960938</ele>
        <time>2017-10-07T08:44:17Z</time>
      </trkpt>
      <trkpt lat="44.04368" lon="6.9446">
        <ele>1650.3959960938</ele>
        <time>2017-10-07T08:44:25Z</time>
      </trkpt>
      <trkpt lat="44.04365" lon="6.9445">
        <ele>1651.3959960938</ele>
        <time>2017-10-07T08:44:33Z</time>
      </trkpt>
      <trkpt lat="44.04364" lon="6.94439">
        <ele>1652.3959960938</ele>
        <time>2017-10-07T08:44:43Z</time>
      </trkpt>
      <trkpt lat="44.04361" lon="6.94427">
        <ele>1651.3959960938</ele>
        <time>2017-10-07T08:44:50Z</time>
      </trkpt>
      <trkpt lat="44.04361" lon="6.94415">
        <ele>1651.3950195312</ele>
        <time>2017-10-07T08:44:55Z</time>
      </trkpt>
      <trkpt lat="44.04359" lon="6.94395">
        <ele>1650.3950195312</ele>
        <time>2017-10-07T08:45:03Z</time>
      </trkpt>
      <trkpt lat="44.0436" lon="6.94373">
        <ele>1653.3950195312</ele>
        <time>2017-10-07T08:45:11Z</time>
      </trkpt>
      <trkpt lat="44.0436" lon="6.94363">
        <ele>1654.3950195312</ele>
        <time>2017-10-07T08:45:31Z</time>
      </trkpt>
      <trkpt lat="44.04359" lon="6.9434">
        <ele>1655.3950195312</ele>
        <time>2017-10-07T08:45:39Z</time>
      </trkpt>
      <trkpt lat="44.0436" lon="6.94315">
        <ele>1654.3950195312</ele>
        <time>2017-10-07T08:45:46Z</time>
      </trkpt>
      <trkpt lat="44.04361" lon="6.94291">
        <ele>1656.3950195312</ele>
        <time>2017-10-07T08:45:52Z</time>
      </trkpt>
      <trkpt lat="44.0436" lon="6.9427">
        <ele>1658.3950195312</ele>
        <time>2017-10-07T08:45:59Z</time>
      </trkpt>
      <trkpt lat="44.04361" lon="6.94259">
        <ele>1659.3950195312</ele>
        <time>2017-10-07T08:46:30Z</time>
      </trkpt>
      <trkpt lat="44.04357" lon="6.94269">
        <ele>1654.3950195312</ele>
        <time>2017-10-07T08:46:42Z</time>
      </trkpt>
      <trkpt lat="44.04357" lon="6.9428">
        <ele>1652.3950195312</ele>
        <time>2017-10-07T08:46:48Z</time>
      </trkpt>
      <trkpt lat="44.04363" lon="6.94287">
        <ele>1657.3950195312</ele>
        <time>2017-10-07T08:47:32Z</time>
      </trkpt>
      <trkpt lat="44.04362" lon="6.94277">
        <ele>1664.3950195312</ele>
        <time>2017-10-07T09:02:12Z</time>
      </trkpt>
      <trkpt lat="44.0436" lon="6.94267">
        <ele>1665.3950195312</ele>
        <time>2017-10-07T09:02:18Z</time>
      </trkpt>
      <trkpt lat="44.04358" lon="6.94256">
        <ele>1663.3950195312</ele>
        <time>2017-10-07T09:02:53Z</time>
      </trkpt>
      <trkpt lat="44.04359" lon="6.94231">
        <ele>1662.3950195312</ele>
        <time>2017-10-07T09:03:01Z</time>
      </trkpt>
      <trkpt lat="44.04359" lon="6.94206">
        <ele>1662.3950195312</ele>
        <time>2017-10-07T09:03:09Z</time>
      </trkpt>
      <trkpt lat="44.04364" lon="6.94183">
        <ele>1664.3950195312</ele>
        <time>2017-10-07T09:03:17Z</time>
      </trkpt>
      <trkpt lat="44.04372" lon="6.94164">
        <ele>1665.3950195312</ele>
        <time>2017-10-07T09:03:24Z</time>
      </trkpt>
      <trkpt lat="44.04376" lon="6.94155">
        <ele>1665.3950195312</ele>
        <time>2017-10-07T09:03:28Z</time>
      </trkpt>
      <trkpt lat="44.04389" lon="6.94138">
        <ele>1663.3950195312</ele>
        <time>2017-10-07T09:03:36Z</time>
      </trkpt>
      <trkpt lat="44.04395" lon="6.94131">
        <ele>1664.3950195312</ele>
        <time>2017-10-07T09:03:39Z</time>
      </trkpt>
      <trkpt lat="44.04403" lon="6.94115">
        <ele>1664.3950195312</ele>
        <time>2017-10-07T09:03:46Z</time>
      </trkpt>
      <trkpt lat="44.04395" lon="6.94095">
        <ele>1665.3950195312</ele>
        <time>2017-10-07T09:03:53Z</time>
      </trkpt>
      <trkpt lat="44.04395" lon="6.94072">
        <ele>1666.3950195312</ele>
        <time>2017-10-07T09:04:02Z</time>
      </trkpt>
      <trkpt lat="44.04397" lon="6.94045">
        <ele>1668.3950195312</ele>
        <time>2017-10-07T09:04:08Z</time>
      </trkpt>
      <trkpt lat="44.044" lon="6.94023">
        <ele>1666.3950195312</ele>
        <time>2017-10-07T09:04:13Z</time>
      </trkpt>
      <trkpt lat="44.04405" lon="6.93997">
        <ele>1666.3950195312</ele>
        <time>2017-10-07T09:04:18Z</time>
      </trkpt>
      <trkpt lat="44.04412" lon="6.93975">
        <ele>1666.3950195312</ele>
        <time>2017-10-07T09:04:23Z</time>
      </trkpt>
      <trkpt lat="44.04423" lon="6.93945">
        <ele>1665.3950195312</ele>
        <time>2017-10-07T09:04:29Z</time>
      </trkpt>
      <trkpt lat="44.04434" lon="6.93933">
        <ele>1665.3950195312</ele>
        <time>2017-10-07T09:04:33Z</time>
      </trkpt>
      <trkpt lat="44.04449" lon="6.9392">
        <ele>1667.3950195312</ele>
        <time>2017-10-07T09:04:38Z</time>
      </trkpt>
      <trkpt lat="44.0445" lon="6.93888">
        <ele>1666.3950195312</ele>
        <time>2017-10-07T09:04:44Z</time>
      </trkpt>
      <trkpt lat="44.04449" lon="6.93854">
        <ele>1666.3950195312</ele>
        <time>2017-10-07T09:04:50Z</time>
      </trkpt>
      <trkpt lat="44.04459" lon="6.93823">
        <ele>1664.3940429688</ele>
        <time>2017-10-07T09:04:56Z</time>
      </trkpt>
      <trkpt lat="44.04475" lon="6.93793">
        <ele>1661.3940429688</ele>
        <time>2017-10-07T09:05:03Z</time>
      </trkpt>
      <trkpt lat="44.04502" lon="6.93757">
        <ele>1658.3940429688</ele>
        <time>2017-10-07T09:05:09Z</time>
      </trkpt>
      <trkpt lat="44.0453" lon="6.93717">
        <ele>1654.3940429688</ele>
        <time>2017-10-07T09:05:14Z</time>
      </trkpt>
      <trkpt lat="44.04557" lon="6.93678">
        <ele>1655.3940429688</ele>
        <time>2017-10-07T09:05:20Z</time>
      </trkpt>
      <trkpt lat="44.04567" lon="6.93662">
        <ele>1653.3940429688</ele>
        <time>2017-10-07T09:05:22Z</time>
      </trkpt>
      <trkpt lat="44.04568" lon="6.93628">
        <ele>1650.3940429688</ele>
        <time>2017-10-07T09:05:29Z</time>
      </trkpt>
      <trkpt lat="44.0456" lon="6.93623">
        <ele>1652.3940429688</ele>
        <time>2017-10-07T09:05:33Z</time>
      </trkpt>
      <trkpt lat="44.04545" lon="6.93618">
        <ele>1652.3940429688</ele>
        <time>2017-10-07T09:05:39Z</time>
      </trkpt>
      <trkpt lat="44.04529" lon="6.93608">
        <ele>1653.3940429688</ele>
        <time>2017-10-07T09:05:47Z</time>
      </trkpt>
      <trkpt lat="44.04515" lon="6.93607">
        <ele>1655.3940429688</ele>
        <time>2017-10-07T09:05:55Z</time>
      </trkpt>
      <trkpt lat="44.04498" lon="6.93599">
        <ele>1654.3940429688</ele>
        <time>2017-10-07T09:06:03Z</time>
      </trkpt>
      <trkpt lat="44.04493" lon="6.93589">
        <ele>1655.3940429688</ele>
        <time>2017-10-07T09:06:07Z</time>
      </trkpt>
      <trkpt lat="44.04487" lon="6.93565">
        <ele>1657.3940429688</ele>
        <time>2017-10-07T09:06:15Z</time>
      </trkpt>
      <trkpt lat="44.04486" lon="6.93553">
        <ele>1657.3940429688</ele>
        <time>2017-10-07T09:06:20Z</time>
      </trkpt>
      <trkpt lat="44.0448" lon="6.93532">
        <ele>1659.3940429688</ele>
        <time>2017-10-07T09:06:28Z</time>
      </trkpt>
      <trkpt lat="44.04476" lon="6.93509">
        <ele>1658.3940429688</ele>
        <time>2017-10-07T09:06:36Z</time>
      </trkpt>
      <trkpt lat="44.04468" lon="6.9349">
        <ele>1661.3940429688</ele>
        <time>2017-10-07T09:06:43Z</time>
      </trkpt>
      <trkpt lat="44.04462" lon="6.93466">
        <ele>1663.3940429688</ele>
        <time>2017-10-07T09:06:51Z</time>
      </trkpt>
      <trkpt lat="44.04456" lon="6.93457">
        <ele>1664.3940429688</ele>
        <time>2017-10-07T09:06:56Z</time>
      </trkpt>
      <trkpt lat="44.04453" lon="6.93436">
        <ele>1664.3940429688</ele>
        <time>2017-10-07T09:07:02Z</time>
      </trkpt>
      <trkpt lat="44.04446" lon="6.93415">
        <ele>1664.3940429688</ele>
        <time>2017-10-07T09:07:09Z</time>
      </trkpt>
      <trkpt lat="44.04443" lon="6.93394">
        <ele>1664.3940429688</ele>
        <time>2017-10-07T09:07:16Z</time>
      </trkpt>
      <trkpt lat="44.0444" lon="6.93371">
        <ele>1664.3940429688</ele>
        <time>2017-10-07T09:07:24Z</time>
      </trkpt>
      <trkpt lat="44.04437" lon="6.93348">
        <ele>1665.3929443359</ele>
        <time>2017-10-07T09:07:32Z</time>
      </trkpt>
      <trkpt lat="44.04433" lon="6.93327">
        <ele>1665.3929443359</ele>
        <time>2017-10-07T09:07:39Z</time>
      </trkpt>
      <trkpt lat="44.04429" lon="6.93304">
        <ele>1665.3929443359</ele>
        <time>2017-10-07T09:07:47Z</time>
      </trkpt>
      <trkpt lat="44.04432" lon="6.9328">
        <ele>1668.3929443359</ele>
        <time>2017-10-07T09:07:55Z</time>
      </trkpt>
      <trkpt lat="44.04429" lon="6.93261">
        <ele>1669.3929443359</ele>
        <time>2017-10-07T09:08:01Z</time>
      </trkpt>
      <trkpt lat="44.04423" lon="6.93237">
        <ele>1668.3929443359</ele>
        <time>2017-10-07T09:08:08Z</time>
      </trkpt>
      <trkpt lat="44.04417" lon="6.93212">
        <ele>1671.3929443359</ele>
        <time>2017-10-07T09:08:16Z</time>
      </trkpt>
      <trkpt lat="44.04411" lon="6.9319">
        <ele>1673.3929443359</ele>
        <time>2017-10-07T09:08:24Z</time>
      </trkpt>
      <trkpt lat="44.04412" lon="6.9318">
        <ele>1673.3929443359</ele>
        <time>2017-10-07T09:08:27Z</time>
      </trkpt>
      <trkpt lat="44.0441" lon="6.93156">
        <ele>1672.3929443359</ele>
        <time>2017-10-07T09:08:33Z</time>
      </trkpt>
      <trkpt lat="44.04403" lon="6.93133">
        <ele>1671.3929443359</ele>
        <time>2017-10-07T09:08:39Z</time>
      </trkpt>
      <trkpt lat="44.04394" lon="6.93114">
        <ele>1671.3929443359</ele>
        <time>2017-10-07T09:08:45Z</time>
      </trkpt>
      <trkpt lat="44.04389" lon="6.93103">
        <ele>1671.3929443359</ele>
        <time>2017-10-07T09:08:48Z</time>
      </trkpt>
      <trkpt lat="44.04384" lon="6.93083">
        <ele>1671.3929443359</ele>
        <time>2017-10-07T09:08:54Z</time>
      </trkpt>
      <trkpt lat="44.04379" lon="6.93061">
        <ele>1674.3929443359</ele>
        <time>2017-10-07T09:09:00Z</time>
      </trkpt>
      <trkpt lat="44.04377" lon="6.93051">
        <ele>1673.3929443359</ele>
        <time>2017-10-07T09:09:03Z</time>
      </trkpt>
      <trkpt lat="44.04379" lon="6.9303">
        <ele>1673.3929443359</ele>
        <time>2017-10-07T09:09:10Z</time>
      </trkpt>
      <trkpt lat="44.04385" lon="6.9301">
        <ele>1673.3929443359</ele>
        <time>2017-10-07T09:09:16Z</time>
      </trkpt>
      <trkpt lat="44.04377" lon="6.92991">
        <ele>1674.3929443359</ele>
        <time>2017-10-07T09:09:23Z</time>
      </trkpt>
      <trkpt lat="44.0437" lon="6.92972">
        <ele>1672.3929443359</ele>
        <time>2017-10-07T09:09:30Z</time>
      </trkpt>
      <trkpt lat="44.04369" lon="6.92948">
        <ele>1672.3929443359</ele>
        <time>2017-10-07T09:09:36Z</time>
      </trkpt>
      <trkpt lat="44.04365" lon="6.92928">
        <ele>1674.3929443359</ele>
        <time>2017-10-07T09:09:42Z</time>
      </trkpt>
      <trkpt lat="44.04362" lon="6.92908">
        <ele>1674.3929443359</ele>
        <time>2017-10-07T09:09:48Z</time>
      </trkpt>
      <trkpt lat="44.04357" lon="6.92885">
        <ele>1678.3919677734</ele>
        <time>2017-10-07T09:09:56Z</time>
      </trkpt>
      <trkpt lat="44.04353" lon="6.92874">
        <ele>1681.3919677734</ele>
        <time>2017-10-07T09:10:01Z</time>
      </trkpt>
      <trkpt lat="44.04348" lon="6.92863">
        <ele>1683.3919677734</ele>
        <time>2017-10-07T09:10:06Z</time>
      </trkpt>
      <trkpt lat="44.04342" lon="6.92858">
        <ele>1687.3919677734</ele>
        <time>2017-10-07T09:10:11Z</time>
      </trkpt>
      <trkpt lat="44.04334" lon="6.92857">
        <ele>1688.3919677734</ele>
        <time>2017-10-07T09:10:17Z</time>
      </trkpt>
      <trkpt lat="44.04329" lon="6.92868">
        <ele>1688.3919677734</ele>
        <time>2017-10-07T09:10:22Z</time>
      </trkpt>
      <trkpt lat="44.04327" lon="6.9288">
        <ele>1688.3919677734</ele>
        <time>2017-10-07T09:10:27Z</time>
      </trkpt>
      <trkpt lat="44.04323" lon="6.92888">
        <ele>1691.3919677734</ele>
        <time>2017-10-07T09:10:32Z</time>
      </trkpt>
      <trkpt lat="44.04315" lon="6.9289">
        <ele>1693.3919677734</ele>
        <time>2017-10-07T09:10:40Z</time>
      </trkpt>
      <trkpt lat="44.04314" lon="6.9288">
        <ele>1694.3919677734</ele>
        <time>2017-10-07T09:10:46Z</time>
      </trkpt>
      <trkpt lat="44.04313" lon="6.92868">
        <ele>1695.3919677734</ele>
        <time>2017-10-07T09:10:52Z</time>
      </trkpt>
      <trkpt lat="44.04312" lon="6.92857">
        <ele>1694.3919677734</ele>
        <time>2017-10-07T09:10:57Z</time>
      </trkpt>
      <trkpt lat="44.04312" lon="6.92845">
        <ele>1695.3919677734</ele>
        <time>2017-10-07T09:11:03Z</time>
      </trkpt>
      <trkpt lat="44.0431" lon="6.92834">
        <ele>1697.3919677734</ele>
        <time>2017-10-07T09:11:10Z</time>
      </trkpt>
      <trkpt lat="44.0431" lon="6.92823">
        <ele>1698.3919677734</ele>
        <time>2017-10-07T09:11:16Z</time>
      </trkpt>
      <trkpt lat="44.0431" lon="6.92812">
        <ele>1702.3919677734</ele>
        <time>2017-10-07T09:11:23Z</time>
      </trkpt>
      <trkpt lat="44.04311" lon="6.92801">
        <ele>1701.3919677734</ele>
        <time>2017-10-07T09:11:31Z</time>
      </trkpt>
      <trkpt lat="44.04311" lon="6.9279">
        <ele>1700.3919677734</ele>
        <time>2017-10-07T09:11:37Z</time>
      </trkpt>
      <trkpt lat="44.04309" lon="6.92779">
        <ele>1705.3919677734</ele>
        <time>2017-10-07T09:11:44Z</time>
      </trkpt>
      <trkpt lat="44.04306" lon="6.9277">
        <ele>1709.3919677734</ele>
        <time>2017-10-07T09:11:51Z</time>
      </trkpt>
      <trkpt lat="44.04306" lon="6.92759">
        <ele>1707.3919677734</ele>
        <time>2017-10-07T09:11:59Z</time>
      </trkpt>
      <trkpt lat="44.04305" lon="6.92748">
        <ele>1710.3919677734</ele>
        <time>2017-10-07T09:12:06Z</time>
      </trkpt>
      <trkpt lat="44.04304" lon="6.92737">
        <ele>1711.3919677734</ele>
        <time>2017-10-07T09:12:12Z</time>
      </trkpt>
      <trkpt lat="44.04305" lon="6.92727">
        <ele>1711.3919677734</ele>
        <time>2017-10-07T09:12:18Z</time>
      </trkpt>
      <trkpt lat="44.04304" lon="6.92717">
        <ele>1712.3919677734</ele>
        <time>2017-10-07T09:12:24Z</time>
      </trkpt>
      <trkpt lat="44.04298" lon="6.92711">
        <ele>1711.3919677734</ele>
        <time>2017-10-07T09:12:30Z</time>
      </trkpt>
      <trkpt lat="44.04293" lon="6.92702">
        <ele>1715.3919677734</ele>
        <time>2017-10-07T09:12:35Z</time>
      </trkpt>
      <trkpt lat="44.04288" lon="6.92693">
        <ele>1715.3919677734</ele>
        <time>2017-10-07T09:12:42Z</time>
      </trkpt>
      <trkpt lat="44.04283" lon="6.92684">
        <ele>1719.3919677734</ele>
        <time>2017-10-07T09:12:49Z</time>
      </trkpt>
      <trkpt lat="44.04278" lon="6.92677">
        <ele>1717.3919677734</ele>
        <time>2017-10-07T09:12:55Z</time>
      </trkpt>
      <trkpt lat="44.04272" lon="6.92668">
        <ele>1715.3919677734</ele>
        <time>2017-10-07T09:13:01Z</time>
      </trkpt>
      <trkpt lat="44.04266" lon="6.9266">
        <ele>1714.3919677734</ele>
        <time>2017-10-07T09:13:06Z</time>
      </trkpt>
      <trkpt lat="44.04261" lon="6.92652">
        <ele>1715.3919677734</ele>
        <time>2017-10-07T09:13:11Z</time>
      </trkpt>
      <trkpt lat="44.04255" lon="6.92645">
        <ele>1715.3919677734</ele>
        <time>2017-10-07T09:13:16Z</time>
      </trkpt>
      <trkpt lat="44.0425" lon="6.92637">
        <ele>1716.3919677734</ele>
        <time>2017-10-07T09:13:22Z</time>
      </trkpt>
      <trkpt lat="44.04244" lon="6.9263">
        <ele>1717.3919677734</ele>
        <time>2017-10-07T09:13:27Z</time>
      </trkpt>
      <trkpt lat="44.04238" lon="6.9262">
        <ele>1717.3919677734</ele>
        <time>2017-10-07T09:13:33Z</time>
      </trkpt>
      <trkpt lat="44.04235" lon="6.92609">
        <ele>1720.3919677734</ele>
        <time>2017-10-07T09:13:39Z</time>
      </trkpt>
      <trkpt lat="44.04234" lon="6.92597">
        <ele>1721.3919677734</ele>
        <time>2017-10-07T09:13:44Z</time>
      </trkpt>
      <trkpt lat="44.04239" lon="6.92588">
        <ele>1723.3919677734</ele>
        <time>2017-10-07T09:13:50Z</time>
      </trkpt>
      <trkpt lat="44.04258" lon="6.92586">
        <ele>1720.3919677734</ele>
        <time>2017-10-07T09:13:57Z</time>
      </trkpt>
      <trkpt lat="44.04278" lon="6.92589">
        <ele>1718.3919677734</ele>
        <time>2017-10-07T09:14:03Z</time>
      </trkpt>
      <trkpt lat="44.04297" lon="6.92585">
        <ele>1717.3919677734</ele>
        <time>2017-10-07T09:14:09Z</time>
      </trkpt>
      <trkpt lat="44.04305" lon="6.92568">
        <ele>1714.3919677734</ele>
        <time>2017-10-07T09:14:29Z</time>
      </trkpt>
      <trkpt lat="44.04307" lon="6.92558">
        <ele>1712.3919677734</ele>
        <time>2017-10-07T09:14:36Z</time>
      </trkpt>
      <trkpt lat="44.04308" lon="6.92547">
        <ele>1715.3919677734</ele>
        <time>2017-10-07T09:14:45Z</time>
      </trkpt>
      <trkpt lat="44.04301" lon="6.92544">
        <ele>1720.3919677734</ele>
        <time>2017-10-07T09:15:05Z</time>
      </trkpt>
      <trkpt lat="44.04296" lon="6.92553">
        <ele>1721.3919677734</ele>
        <time>2017-10-07T09:15:12Z</time>
      </trkpt>
      <trkpt lat="44.04289" lon="6.92556">
        <ele>1727.3919677734</ele>
        <time>2017-10-07T09:15:23Z</time>
      </trkpt>
      <trkpt lat="44.0429" lon="6.92545">
        <ele>1726.3919677734</ele>
        <time>2017-10-07T09:15:33Z</time>
      </trkpt>
      <trkpt lat="44.04292" lon="6.92535">
        <ele>1728.3919677734</ele>
        <time>2017-10-07T09:15:42Z</time>
      </trkpt>
      <trkpt lat="44.04295" lon="6.92524">
        <ele>1728.3919677734</ele>
        <time>2017-10-07T09:15:54Z</time>
      </trkpt>
      <trkpt lat="44.04297" lon="6.92514">
        <ele>1732.3919677734</ele>
        <time>2017-10-07T09:16:07Z</time>
      </trkpt>
      <trkpt lat="44.04298" lon="6.92504">
        <ele>1736.3919677734</ele>
        <time>2017-10-07T09:16:29Z</time>
      </trkpt>
      <trkpt lat="44.043" lon="6.92494">
        <ele>1738.3919677734</ele>
        <time>2017-10-07T09:16:41Z</time>
      </trkpt>
      <trkpt lat="44.04302" lon="6.92484">
        <ele>1741.3919677734</ele>
        <time>2017-10-07T09:16:57Z</time>
      </trkpt>
      <trkpt lat="44.04306" lon="6.92475">
        <ele>1740.3919677734</ele>
        <time>2017-10-07T09:17:08Z</time>
      </trkpt>
      <trkpt lat="44.04307" lon="6.92465">
        <ele>1742.3919677734</ele>
        <time>2017-10-07T09:17:23Z</time>
      </trkpt>
      <trkpt lat="44.04309" lon="6.92455">
        <ele>1743.3919677734</ele>
        <time>2017-10-07T09:17:37Z</time>
      </trkpt>
      <trkpt lat="44.04312" lon="6.92446">
        <ele>1749.3919677734</ele>
        <time>2017-10-07T09:17:45Z</time>
      </trkpt>
      <trkpt lat="44.0431" lon="6.92435">
        <ele>1752.3919677734</ele>
        <time>2017-10-07T09:18:10Z</time>
      </trkpt>
      <trkpt lat="44.04311" lon="6.92425">
        <ele>1755.3909912109</ele>
        <time>2017-10-07T09:18:35Z</time>
      </trkpt>
      <trkpt lat="44.04311" lon="6.92414">
        <ele>1757.3909912109</ele>
        <time>2017-10-07T09:19:24Z</time>
      </trkpt>
      <trkpt lat="44.0431" lon="6.92403">
        <ele>1756.3909912109</ele>
        <time>2017-10-07T09:19:32Z</time>
      </trkpt>
      <trkpt lat="44.04309" lon="6.92392">
        <ele>1756.3909912109</ele>
        <time>2017-10-07T09:19:39Z</time>
      </trkpt>
      <trkpt lat="44.0431" lon="6.92381">
        <ele>1755.3909912109</ele>
        <time>2017-10-07T09:20:00Z</time>
      </trkpt>
      <trkpt lat="44.04317" lon="6.92384">
        <ele>1758.3909912109</ele>
        <time>2017-10-07T09:20:17Z</time>
      </trkpt>
      <trkpt lat="44.0432" lon="6.92374">
        <ele>1764.3909912109</ele>
        <time>2017-10-07T09:20:30Z</time>
      </trkpt>
      <trkpt lat="44.0432" lon="6.92364">
        <ele>1764.3909912109</ele>
        <time>2017-10-07T09:20:42Z</time>
      </trkpt>
      <trkpt lat="44.04321" lon="6.92354">
        <ele>1768.3909912109</ele>
        <time>2017-10-07T09:21:04Z</time>
      </trkpt>
      <trkpt lat="44.04323" lon="6.92344">
        <ele>1774.3909912109</ele>
        <time>2017-10-07T09:21:17Z</time>
      </trkpt>
      <trkpt lat="44.04327" lon="6.92336">
        <ele>1775.3909912109</ele>
        <time>2017-10-07T09:21:32Z</time>
      </trkpt>
      <trkpt lat="44.04329" lon="6.92326">
        <ele>1776.3909912109</ele>
        <time>2017-10-07T09:21:47Z</time>
      </trkpt>
      <trkpt lat="44.04331" lon="6.92316">
        <ele>1778.3909912109</ele>
        <time>2017-10-07T09:22:06Z</time>
      </trkpt>
      <trkpt lat="44.04334" lon="6.92307">
        <ele>1782.3909912109</ele>
        <time>2017-10-07T09:22:34Z</time>
      </trkpt>
      <trkpt lat="44.04341" lon="6.92299">
        <ele>1786.3909912109</ele>
        <time>2017-10-07T09:22:49Z</time>
      </trkpt>
      <trkpt lat="44.04342" lon="6.92289">
        <ele>1788.3909912109</ele>
        <time>2017-10-07T09:23:09Z</time>
      </trkpt>
      <trkpt lat="44.04345" lon="6.92279">
        <ele>1792.3909912109</ele>
        <time>2017-10-07T09:23:31Z</time>
      </trkpt>
      <trkpt lat="44.04347" lon="6.92268">
        <ele>1792.3909912109</ele>
        <time>2017-10-07T09:23:43Z</time>
      </trkpt>
      <trkpt lat="44.04344" lon="6.92258">
        <ele>1792.3909912109</ele>
        <time>2017-10-07T09:24:10Z</time>
      </trkpt>
      <trkpt lat="44.04337" lon="6.92253">
        <ele>1794.3909912109</ele>
        <time>2017-10-07T09:24:34Z</time>
      </trkpt>
      <trkpt lat="44.04331" lon="6.92249">
        <ele>1802.3909912109</ele>
        <time>2017-10-07T09:25:02Z</time>
      </trkpt>
      <trkpt lat="44.04323" lon="6.92249">
        <ele>1807.3909912109</ele>
        <time>2017-10-07T09:25:30Z</time>
      </trkpt>
      <trkpt lat="44.04315" lon="6.92249">
        <ele>1818.3909912109</ele>
        <time>2017-10-07T09:26:06Z</time>
      </trkpt>
      <trkpt lat="44.04307" lon="6.9225">
        <ele>1822.3909912109</ele>
        <time>2017-10-07T09:26:17Z</time>
      </trkpt>
      <trkpt lat="44.04303" lon="6.92241">
        <ele>1825.3909912109</ele>
        <time>2017-10-07T09:26:40Z</time>
      </trkpt>
      <trkpt lat="44.04302" lon="6.9223">
        <ele>1825.3909912109</ele>
        <time>2017-10-07T09:26:48Z</time>
      </trkpt>
      <trkpt lat="44.04299" lon="6.92221">
        <ele>1824.3909912109</ele>
        <time>2017-10-07T09:27:27Z</time>
      </trkpt>
      <trkpt lat="44.04292" lon="6.92211">
        <ele>1822.3909912109</ele>
        <time>2017-10-07T09:27:47Z</time>
      </trkpt>
      <trkpt lat="44.04291" lon="6.922">
        <ele>1829.3909912109</ele>
        <time>2017-10-07T09:28:06Z</time>
      </trkpt>
      <trkpt lat="44.04297" lon="6.92193">
        <ele>1828.3909912109</ele>
        <time>2017-10-07T09:28:17Z</time>
      </trkpt>
      <trkpt lat="44.04298" lon="6.92183">
        <ele>1831.3909912109</ele>
        <time>2017-10-07T09:28:25Z</time>
      </trkpt>
      <trkpt lat="44.04304" lon="6.92177">
        <ele>1835.3909912109</ele>
        <time>2017-10-07T09:28:36Z</time>
      </trkpt>
      <trkpt lat="44.0431" lon="6.9217">
        <ele>1835.3909912109</ele>
        <time>2017-10-07T09:28:44Z</time>
      </trkpt>
      <trkpt lat="44.04314" lon="6.92162">
        <ele>1835.3909912109</ele>
        <time>2017-10-07T09:28:54Z</time>
      </trkpt>
      <trkpt lat="44.0432" lon="6.92154">
        <ele>1841.3909912109</ele>
        <time>2017-10-07T09:29:03Z</time>
      </trkpt>
      <trkpt lat="44.04324" lon="6.92146">
        <ele>1842.3909912109</ele>
        <time>2017-10-07T09:29:14Z</time>
      </trkpt>
      <trkpt lat="44.04325" lon="6.92135">
        <ele>1841.3909912109</ele>
        <time>2017-10-07T09:29:21Z</time>
      </trkpt>
      <trkpt lat="44.04326" lon="6.92124">
        <ele>1843.3909912109</ele>
        <time>2017-10-07T09:29:30Z</time>
      </trkpt>
      <trkpt lat="44.04326" lon="6.92113">
        <ele>1842.3909912109</ele>
        <time>2017-10-07T09:29:39Z</time>
      </trkpt>
      <trkpt lat="44.04333" lon="6.92107">
        <ele>1844.3909912109</ele>
        <time>2017-10-07T09:29:49Z</time>
      </trkpt>
      <trkpt lat="44.04339" lon="6.92104">
        <ele>1844.3909912109</ele>
        <time>2017-10-07T09:29:59Z</time>
      </trkpt>
      <trkpt lat="44.04346" lon="6.921">
        <ele>1842.3909912109</ele>
        <time>2017-10-07T09:30:13Z</time>
      </trkpt>
      <trkpt lat="44.04354" lon="6.92095">
        <ele>1844.3909912109</ele>
        <time>2017-10-07T09:30:25Z</time>
      </trkpt>
      <trkpt lat="44.04361" lon="6.92092">
        <ele>1847.3909912109</ele>
        <time>2017-10-07T09:30:36Z</time>
      </trkpt>
      <trkpt lat="44.04368" lon="6.92087">
        <ele>1849.3909912109</ele>
        <time>2017-10-07T09:30:47Z</time>
      </trkpt>
      <trkpt lat="44.04373" lon="6.92079">
        <ele>1850.3909912109</ele>
        <time>2017-10-07T09:30:58Z</time>
      </trkpt>
      <trkpt lat="44.04377" lon="6.9207">
        <ele>1854.3909912109</ele>
        <time>2017-10-07T09:31:09Z</time>
      </trkpt>
      <trkpt lat="44.04381" lon="6.92061">
        <ele>1856.3909912109</ele>
        <time>2017-10-07T09:31:18Z</time>
      </trkpt>
      <trkpt lat="44.04387" lon="6.92054">
        <ele>1857.3909912109</ele>
        <time>2017-10-07T09:31:28Z</time>
      </trkpt>
      <trkpt lat="44.04391" lon="6.92044">
        <ele>1860.3909912109</ele>
        <time>2017-10-07T09:31:41Z</time>
      </trkpt>
      <trkpt lat="44.04393" lon="6.92034">
        <ele>1859.3909912109</ele>
        <time>2017-10-07T09:32:04Z</time>
      </trkpt>
      <trkpt lat="44.04394" lon="6.92024">
        <ele>1859.3909912109</ele>
        <time>2017-10-07T09:32:15Z</time>
      </trkpt>
      <trkpt lat="44.04389" lon="6.92016">
        <ele>1864.3909912109</ele>
        <time>2017-10-07T09:38:29Z</time>
      </trkpt>
      <trkpt lat="44.04382" lon="6.92015">
        <ele>1863.3909912109</ele>
        <time>2017-10-07T09:38:41Z</time>
      </trkpt>
      <trkpt lat="44.04374" lon="6.92017">
        <ele>1865.3909912109</ele>
        <time>2017-10-07T09:38:48Z</time>
      </trkpt>
      <trkpt lat="44.04367" lon="6.92015">
        <ele>1869.3909912109</ele>
        <time>2017-10-07T09:38:59Z</time>
      </trkpt>
      <trkpt lat="44.0436" lon="6.92013">
        <ele>1871.3909912109</ele>
        <time>2017-10-07T09:39:06Z</time>
      </trkpt>
      <trkpt lat="44.04354" lon="6.92004">
        <ele>1872.3909912109</ele>
        <time>2017-10-07T09:39:25Z</time>
      </trkpt>
      <trkpt lat="44.04348" lon="6.92008">
        <ele>1871.3909912109</ele>
        <time>2017-10-07T09:39:33Z</time>
      </trkpt>
      <trkpt lat="44.04341" lon="6.92013">
        <ele>1873.3909912109</ele>
        <time>2017-10-07T09:39:41Z</time>
      </trkpt>
      <trkpt lat="44.04333" lon="6.92014">
        <ele>1876.3909912109</ele>
        <time>2017-10-07T09:39:51Z</time>
      </trkpt>
      <trkpt lat="44.04325" lon="6.92013">
        <ele>1879.3909912109</ele>
        <time>2017-10-07T09:40:01Z</time>
      </trkpt>
      <trkpt lat="44.04317" lon="6.92017">
        <ele>1882.3909912109</ele>
        <time>2017-10-07T09:40:11Z</time>
      </trkpt>
      <trkpt lat="44.0431" lon="6.92017">
        <ele>1882.3909912109</ele>
        <time>2017-10-07T09:40:17Z</time>
      </trkpt>
      <trkpt lat="44.04303" lon="6.92018">
        <ele>1883.3909912109</ele>
        <time>2017-10-07T09:40:29Z</time>
      </trkpt>
      <trkpt lat="44.04295" lon="6.92019">
        <ele>1884.3909912109</ele>
        <time>2017-10-07T09:40:40Z</time>
      </trkpt>
      <trkpt lat="44.04289" lon="6.92024">
        <ele>1870.3909912109</ele>
        <time>2017-10-07T09:40:53Z</time>
      </trkpt>
      <trkpt lat="44.04282" lon="6.92026">
        <ele>1886.3909912109</ele>
        <time>2017-10-07T09:41:02Z</time>
      </trkpt>
      <trkpt lat="44.04274" lon="6.92026">
        <ele>1891.3909912109</ele>
        <time>2017-10-07T09:41:09Z</time>
      </trkpt>
      <trkpt lat="44.04266" lon="6.92029">
        <ele>1891.3909912109</ele>
        <time>2017-10-07T09:41:18Z</time>
      </trkpt>
      <trkpt lat="44.04259" lon="6.92032">
        <ele>1896.3909912109</ele>
        <time>2017-10-07T09:41:28Z</time>
      </trkpt>
      <trkpt lat="44.04252" lon="6.92034">
        <ele>1897.3909912109</ele>
        <time>2017-10-07T09:41:36Z</time>
      </trkpt>
      <trkpt lat="44.04245" lon="6.92036">
        <ele>1897.3909912109</ele>
        <time>2017-10-07T09:41:45Z</time>
      </trkpt>
      <trkpt lat="44.04237" lon="6.9204">
        <ele>1898.3909912109</ele>
        <time>2017-10-07T09:41:53Z</time>
      </trkpt>
      <trkpt lat="44.0423" lon="6.92042">
        <ele>1900.3909912109</ele>
        <time>2017-10-07T09:42:03Z</time>
      </trkpt>
      <trkpt lat="44.04222" lon="6.92049">
        <ele>1901.3909912109</ele>
        <time>2017-10-07T09:42:18Z</time>
      </trkpt>
      <trkpt lat="44.04215" lon="6.9205">
        <ele>1903.3909912109</ele>
        <time>2017-10-07T09:42:24Z</time>
      </trkpt>
      <trkpt lat="44.04208" lon="6.92054">
        <ele>1905.3909912109</ele>
        <time>2017-10-07T09:42:38Z</time>
      </trkpt>
      <trkpt lat="44.04201" lon="6.92055">
        <ele>1906.3909912109</ele>
        <time>2017-10-07T09:42:43Z</time>
      </trkpt>
      <trkpt lat="44.04193" lon="6.92058">
        <ele>1906.3909912109</ele>
        <time>2017-10-07T09:42:49Z</time>
      </trkpt>
      <trkpt lat="44.04186" lon="6.92055">
        <ele>1906.3909912109</ele>
        <time>2017-10-07T09:42:57Z</time>
      </trkpt>
      <trkpt lat="44.04178" lon="6.92052">
        <ele>1908.3909912109</ele>
        <time>2017-10-07T09:43:04Z</time>
      </trkpt>
      <trkpt lat="44.04172" lon="6.92059">
        <ele>1909.3909912109</ele>
        <time>2017-10-07T09:43:14Z</time>
      </trkpt>
      <trkpt lat="44.04164" lon="6.92057">
        <ele>1906.3909912109</ele>
        <time>2017-10-07T09:43:20Z</time>
      </trkpt>
      <trkpt lat="44.04156" lon="6.92061">
        <ele>1907.3909912109</ele>
        <time>2017-10-07T09:43:25Z</time>
      </trkpt>
      <trkpt lat="44.04149" lon="6.92065">
        <ele>1908.3909912109</ele>
        <time>2017-10-07T09:43:31Z</time>
      </trkpt>
      <trkpt lat="44.04142" lon="6.92067">
        <ele>1908.3909912109</ele>
        <time>2017-10-07T09:43:36Z</time>
      </trkpt>
      <trkpt lat="44.04135" lon="6.92075">
        <ele>1910.3909912109</ele>
        <time>2017-10-07T09:43:41Z</time>
      </trkpt>
      <trkpt lat="44.04122" lon="6.92086">
        <ele>1909.3909912109</ele>
        <time>2017-10-07T09:43:49Z</time>
      </trkpt>
      <trkpt lat="44.04117" lon="6.92094">
        <ele>1911.3909912109</ele>
        <time>2017-10-07T09:43:54Z</time>
      </trkpt>
      <trkpt lat="44.04109" lon="6.92099">
        <ele>1911.3909912109</ele>
        <time>2017-10-07T09:43:59Z</time>
      </trkpt>
      <trkpt lat="44.041" lon="6.92101">
        <ele>1912.3909912109</ele>
        <time>2017-10-07T09:44:05Z</time>
      </trkpt>
      <trkpt lat="44.04093" lon="6.92104">
        <ele>1914.3909912109</ele>
        <time>2017-10-07T09:44:10Z</time>
      </trkpt>
      <trkpt lat="44.04086" lon="6.92108">
        <ele>1916.3909912109</ele>
        <time>2017-10-07T09:44:17Z</time>
      </trkpt>
      <trkpt lat="44.04079" lon="6.92111">
        <ele>1915.3909912109</ele>
        <time>2017-10-07T09:44:22Z</time>
      </trkpt>
      <trkpt lat="44.04064" lon="6.92114">
        <ele>1916.3900146484</ele>
        <time>2017-10-07T09:44:31Z</time>
      </trkpt>
      <trkpt lat="44.04056" lon="6.92115">
        <ele>1916.3900146484</ele>
        <time>2017-10-07T09:44:36Z</time>
      </trkpt>
      <trkpt lat="44.04047" lon="6.92118">
        <ele>1917.3900146484</ele>
        <time>2017-10-07T09:44:41Z</time>
      </trkpt>
      <trkpt lat="44.0404" lon="6.9212">
        <ele>1918.3900146484</ele>
        <time>2017-10-07T09:44:48Z</time>
      </trkpt>
      <trkpt lat="44.04033" lon="6.92125">
        <ele>1918.3900146484</ele>
        <time>2017-10-07T09:44:55Z</time>
      </trkpt>
      <trkpt lat="44.04026" lon="6.92128">
        <ele>1918.3900146484</ele>
        <time>2017-10-07T09:45:00Z</time>
      </trkpt>
      <trkpt lat="44.04018" lon="6.92129">
        <ele>1919.3900146484</ele>
        <time>2017-10-07T09:45:07Z</time>
      </trkpt>
      <trkpt lat="44.04011" lon="6.92131">
        <ele>1921.3900146484</ele>
        <time>2017-10-07T09:45:13Z</time>
      </trkpt>
      <trkpt lat="44.04003" lon="6.92131">
        <ele>1922.3900146484</ele>
        <time>2017-10-07T09:45:20Z</time>
      </trkpt>
      <trkpt lat="44.03995" lon="6.92131">
        <ele>1923.3900146484</ele>
        <time>2017-10-07T09:45:28Z</time>
      </trkpt>
      <trkpt lat="44.03988" lon="6.92134">
        <ele>1924.3900146484</ele>
        <time>2017-10-07T09:45:35Z</time>
      </trkpt>
      <trkpt lat="44.0398" lon="6.92135">
        <ele>1924.3900146484</ele>
        <time>2017-10-07T09:45:43Z</time>
      </trkpt>
      <trkpt lat="44.03973" lon="6.92139">
        <ele>1925.3900146484</ele>
        <time>2017-10-07T09:45:52Z</time>
      </trkpt>
      <trkpt lat="44.03965" lon="6.9214">
        <ele>1926.3900146484</ele>
        <time>2017-10-07T09:46:00Z</time>
      </trkpt>
      <trkpt lat="44.03957" lon="6.92141">
        <ele>1928.3900146484</ele>
        <time>2017-10-07T09:46:12Z</time>
      </trkpt>
      <trkpt lat="44.0395" lon="6.92147">
        <ele>1928.3900146484</ele>
        <time>2017-10-07T09:46:40Z</time>
      </trkpt>
      <trkpt lat="44.03943" lon="6.92153">
        <ele>1928.3900146484</ele>
        <time>2017-10-07T09:46:45Z</time>
      </trkpt>
      <trkpt lat="44.03926" lon="6.92158">
        <ele>1928.3900146484</ele>
        <time>2017-10-07T09:46:54Z</time>
      </trkpt>
      <trkpt lat="44.03918" lon="6.9216">
        <ele>1929.3900146484</ele>
        <time>2017-10-07T09:46:59Z</time>
      </trkpt>
      <trkpt lat="44.03903" lon="6.92163">
        <ele>1928.3900146484</ele>
        <time>2017-10-07T09:47:07Z</time>
      </trkpt>
      <trkpt lat="44.03887" lon="6.92168">
        <ele>1930.3900146484</ele>
        <time>2017-10-07T09:47:15Z</time>
      </trkpt>
      <trkpt lat="44.03871" lon="6.92167">
        <ele>1931.3900146484</ele>
        <time>2017-10-07T09:47:23Z</time>
      </trkpt>
      <trkpt lat="44.03855" lon="6.92168">
        <ele>1929.3900146484</ele>
        <time>2017-10-07T09:47:28Z</time>
      </trkpt>
      <trkpt lat="44.03831" lon="6.92168">
        <ele>1928.3900146484</ele>
        <time>2017-10-07T09:47:34Z</time>
      </trkpt>
      <trkpt lat="44.03801" lon="6.9218">
        <ele>1928.3900146484</ele>
        <time>2017-10-07T09:47:40Z</time>
      </trkpt>
      <trkpt lat="44.03772" lon="6.92194">
        <ele>1928.3900146484</ele>
        <time>2017-10-07T09:47:46Z</time>
      </trkpt>
      <trkpt lat="44.03757" lon="6.92199">
        <ele>1929.3900146484</ele>
        <time>2017-10-07T09:47:52Z</time>
      </trkpt>
      <trkpt lat="44.0375" lon="6.92206">
        <ele>1928.3900146484</ele>
        <time>2017-10-07T09:47:55Z</time>
      </trkpt>
      <trkpt lat="44.03733" lon="6.92231">
        <ele>1929.3900146484</ele>
        <time>2017-10-07T09:48:01Z</time>
      </trkpt>
      <trkpt lat="44.03722" lon="6.92246">
        <ele>1929.3900146484</ele>
        <time>2017-10-07T09:48:07Z</time>
      </trkpt>
      <trkpt lat="44.03724" lon="6.92256">
        <ele>1932.3900146484</ele>
        <time>2017-10-07T09:48:28Z</time>
      </trkpt>
      <trkpt lat="44.03712" lon="6.9227">
        <ele>1930.3900146484</ele>
        <time>2017-10-07T09:48:36Z</time>
      </trkpt>
      <trkpt lat="44.03702" lon="6.92288">
        <ele>1932.3900146484</ele>
        <time>2017-10-07T09:48:43Z</time>
      </trkpt>
      <trkpt lat="44.03691" lon="6.92302">
        <ele>1931.3900146484</ele>
        <time>2017-10-07T09:48:49Z</time>
      </trkpt>
      <trkpt lat="44.03681" lon="6.92319">
        <ele>1933.3900146484</ele>
        <time>2017-10-07T09:48:55Z</time>
      </trkpt>
      <trkpt lat="44.0367" lon="6.92335">
        <ele>1932.3900146484</ele>
        <time>2017-10-07T09:49:01Z</time>
      </trkpt>
      <trkpt lat="44.0366" lon="6.92351">
        <ele>1933.3900146484</ele>
        <time>2017-10-07T09:49:07Z</time>
      </trkpt>
      <trkpt lat="44.03647" lon="6.92362">
        <ele>1934.3900146484</ele>
        <time>2017-10-07T09:49:14Z</time>
      </trkpt>
      <trkpt lat="44.03638" lon="6.92364">
        <ele>1935.3900146484</ele>
        <time>2017-10-07T09:49:19Z</time>
      </trkpt>
      <trkpt lat="44.03622" lon="6.92369">
        <ele>1933.3900146484</ele>
        <time>2017-10-07T09:49:25Z</time>
      </trkpt>
      <trkpt lat="44.03605" lon="6.9237">
        <ele>1934.3900146484</ele>
        <time>2017-10-07T09:49:32Z</time>
      </trkpt>
      <trkpt lat="44.03587" lon="6.92367">
        <ele>1935.3900146484</ele>
        <time>2017-10-07T09:49:40Z</time>
      </trkpt>
      <trkpt lat="44.03571" lon="6.92367">
        <ele>1937.3900146484</ele>
        <time>2017-10-07T09:49:49Z</time>
      </trkpt>
      <trkpt lat="44.03562" lon="6.92367">
        <ele>1937.3900146484</ele>
        <time>2017-10-07T09:49:54Z</time>
      </trkpt>
      <trkpt lat="44.03546" lon="6.92364">
        <ele>1935.3900146484</ele>
        <time>2017-10-07T09:50:02Z</time>
      </trkpt>
      <trkpt lat="44.03534" lon="6.92373">
        <ele>1937.3900146484</ele>
        <time>2017-10-07T09:50:10Z</time>
      </trkpt>
      <trkpt lat="44.03526" lon="6.92378">
        <ele>1938.3900146484</ele>
        <time>2017-10-07T09:50:16Z</time>
      </trkpt>
      <trkpt lat="44.03521" lon="6.92385">
        <ele>1940.3900146484</ele>
        <time>2017-10-07T09:50:21Z</time>
      </trkpt>
      <trkpt lat="44.03514" lon="6.92391">
        <ele>1940.3900146484</ele>
        <time>2017-10-07T09:50:26Z</time>
      </trkpt>
      <trkpt lat="44.03507" lon="6.92397">
        <ele>1942.3900146484</ele>
        <time>2017-10-07T09:50:33Z</time>
      </trkpt>
      <trkpt lat="44.035" lon="6.92403">
        <ele>1943.3900146484</ele>
        <time>2017-10-07T09:50:39Z</time>
      </trkpt>
      <trkpt lat="44.03494" lon="6.92408">
        <ele>1945.3900146484</ele>
        <time>2017-10-07T09:50:45Z</time>
      </trkpt>
      <trkpt lat="44.03488" lon="6.92414">
        <ele>1947.3900146484</ele>
        <time>2017-10-07T09:50:51Z</time>
      </trkpt>
      <trkpt lat="44.03482" lon="6.92419">
        <ele>1948.3900146484</ele>
        <time>2017-10-07T09:50:56Z</time>
      </trkpt>
      <trkpt lat="44.03475" lon="6.92424">
        <ele>1949.3900146484</ele>
        <time>2017-10-07T09:51:01Z</time>
      </trkpt>
      <trkpt lat="44.03469" lon="6.9243">
        <ele>1950.3900146484</ele>
        <time>2017-10-07T09:51:07Z</time>
      </trkpt>
      <trkpt lat="44.03463" lon="6.92436">
        <ele>1950.3900146484</ele>
        <time>2017-10-07T09:51:12Z</time>
      </trkpt>
      <trkpt lat="44.03457" lon="6.92442">
        <ele>1952.3900146484</ele>
        <time>2017-10-07T09:51:17Z</time>
      </trkpt>
      <trkpt lat="44.0345" lon="6.92447">
        <ele>1954.3900146484</ele>
        <time>2017-10-07T09:51:22Z</time>
      </trkpt>
      <trkpt lat="44.03434" lon="6.92456">
        <ele>1954.3900146484</ele>
        <time>2017-10-07T09:51:34Z</time>
      </trkpt>
      <trkpt lat="44.03427" lon="6.92459">
        <ele>1953.3900146484</ele>
        <time>2017-10-07T09:51:42Z</time>
      </trkpt>
      <trkpt lat="44.03419" lon="6.92463">
        <ele>1953.3900146484</ele>
        <time>2017-10-07T09:51:47Z</time>
      </trkpt>
      <trkpt lat="44.03412" lon="6.92467">
        <ele>1955.3900146484</ele>
        <time>2017-10-07T09:51:53Z</time>
      </trkpt>
      <trkpt lat="44.03404" lon="6.92471">
        <ele>1957.3900146484</ele>
        <time>2017-10-07T09:51:59Z</time>
      </trkpt>
      <trkpt lat="44.03397" lon="6.92474">
        <ele>1958.3900146484</ele>
        <time>2017-10-07T09:52:07Z</time>
      </trkpt>
      <trkpt lat="44.03389" lon="6.92479">
        <ele>1961.3900146484</ele>
        <time>2017-10-07T09:52:15Z</time>
      </trkpt>
      <trkpt lat="44.03382" lon="6.92481">
        <ele>1961.3900146484</ele>
        <time>2017-10-07T09:52:21Z</time>
      </trkpt>
      <trkpt lat="44.03375" lon="6.92484">
        <ele>1962.3900146484</ele>
        <time>2017-10-07T09:52:28Z</time>
      </trkpt>
      <trkpt lat="44.03368" lon="6.92492">
        <ele>1964.3900146484</ele>
        <time>2017-10-07T09:52:40Z</time>
      </trkpt>
      <trkpt lat="44.0336" lon="6.92497">
        <ele>1967.3900146484</ele>
        <time>2017-10-07T09:52:48Z</time>
      </trkpt>
      <trkpt lat="44.03353" lon="6.92498">
        <ele>1968.3900146484</ele>
        <time>2017-10-07T09:52:55Z</time>
      </trkpt>
      <trkpt lat="44.03345" lon="6.92498">
        <ele>1969.3900146484</ele>
        <time>2017-10-07T09:53:03Z</time>
      </trkpt>
      <trkpt lat="44.03338" lon="6.92499">
        <ele>1970.3900146484</ele>
        <time>2017-10-07T09:53:12Z</time>
      </trkpt>
      <trkpt lat="44.0333" lon="6.92499">
        <ele>1971.3900146484</ele>
        <time>2017-10-07T09:53:19Z</time>
      </trkpt>
      <trkpt lat="44.03323" lon="6.92501">
        <ele>1973.3900146484</ele>
        <time>2017-10-07T09:53:28Z</time>
      </trkpt>
      <trkpt lat="44.03321" lon="6.92491">
        <ele>1974.3900146484</ele>
        <time>2017-10-07T09:58:28Z</time>
      </trkpt>
      <trkpt lat="44.03313" lon="6.92469">
        <ele>1970.3900146484</ele>
        <time>2017-10-07T09:58:34Z</time>
      </trkpt>
      <trkpt lat="44.03311" lon="6.92444">
        <ele>1966.3900146484</ele>
        <time>2017-10-07T09:58:40Z</time>
      </trkpt>
      <trkpt lat="44.03309" lon="6.92423">
        <ele>1961.3900146484</ele>
        <time>2017-10-07T09:58:47Z</time>
      </trkpt>
      <trkpt lat="44.03299" lon="6.9241">
        <ele>1958.3900146484</ele>
        <time>2017-10-07T09:58:54Z</time>
      </trkpt>
      <trkpt lat="44.03284" lon="6.92401">
        <ele>1956.3900146484</ele>
        <time>2017-10-07T09:59:00Z</time>
      </trkpt>
      <trkpt lat="44.03269" lon="6.92388">
        <ele>1954.3900146484</ele>
        <time>2017-10-07T09:59:05Z</time>
      </trkpt>
      <trkpt lat="44.03248" lon="6.9237">
        <ele>1951.3900146484</ele>
        <time>2017-10-07T09:59:11Z</time>
      </trkpt>
      <trkpt lat="44.0323" lon="6.92339">
        <ele>1948.3900146484</ele>
        <time>2017-10-07T09:59:18Z</time>
      </trkpt>
      <trkpt lat="44.0322" lon="6.92319">
        <ele>1946.3900146484</ele>
        <time>2017-10-07T09:59:23Z</time>
      </trkpt>
      <trkpt lat="44.03203" lon="6.92296">
        <ele>1945.3900146484</ele>
        <time>2017-10-07T09:59:29Z</time>
      </trkpt>
      <trkpt lat="44.03182" lon="6.9228">
        <ele>1944.3890380859</ele>
        <time>2017-10-07T09:59:35Z</time>
      </trkpt>
      <trkpt lat="44.03171" lon="6.9226">
        <ele>1943.3890380859</ele>
        <time>2017-10-07T09:59:40Z</time>
      </trkpt>
      <trkpt lat="44.03159" lon="6.92229">
        <ele>1942.3890380859</ele>
        <time>2017-10-07T09:59:46Z</time>
      </trkpt>
      <trkpt lat="44.03151" lon="6.92191">
        <ele>1939.3890380859</ele>
        <time>2017-10-07T09:59:52Z</time>
      </trkpt>
      <trkpt lat="44.03165" lon="6.9216">
        <ele>1934.3890380859</ele>
        <time>2017-10-07T09:59:58Z</time>
      </trkpt>
      <trkpt lat="44.03178" lon="6.92146">
        <ele>1930.3890380859</ele>
        <time>2017-10-07T10:00:03Z</time>
      </trkpt>
      <trkpt lat="44.03188" lon="6.92127">
        <ele>1923.3890380859</ele>
        <time>2017-10-07T10:00:08Z</time>
      </trkpt>
      <trkpt lat="44.03194" lon="6.92107">
        <ele>1920.3890380859</ele>
        <time>2017-10-07T10:00:13Z</time>
      </trkpt>
      <trkpt lat="44.032" lon="6.92099">
        <ele>1918.3890380859</ele>
        <time>2017-10-07T10:00:25Z</time>
      </trkpt>
      <trkpt lat="44.03204" lon="6.92089">
        <ele>1916.3890380859</ele>
        <time>2017-10-07T10:00:30Z</time>
      </trkpt>
      <trkpt lat="44.03203" lon="6.92074">
        <ele>1912.3890380859</ele>
        <time>2017-10-07T10:00:36Z</time>
      </trkpt>
      <trkpt lat="44.03199" lon="6.92036">
        <ele>1908.3890380859</ele>
        <time>2017-10-07T10:00:43Z</time>
      </trkpt>
      <trkpt lat="44.03202" lon="6.92013">
        <ele>1906.3890380859</ele>
        <time>2017-10-07T10:00:50Z</time>
      </trkpt>
      <trkpt lat="44.03204" lon="6.91988">
        <ele>1904.3890380859</ele>
        <time>2017-10-07T10:00:56Z</time>
      </trkpt>
      <trkpt lat="44.03206" lon="6.91963">
        <ele>1903.3890380859</ele>
        <time>2017-10-07T10:01:02Z</time>
      </trkpt>
      <trkpt lat="44.0321" lon="6.91955">
        <ele>1901.3890380859</ele>
        <time>2017-10-07T10:01:14Z</time>
      </trkpt>
      <trkpt lat="44.03221" lon="6.91937">
        <ele>1894.3890380859</ele>
        <time>2017-10-07T10:01:20Z</time>
      </trkpt>
      <trkpt lat="44.0323" lon="6.91917">
        <ele>1889.3890380859</ele>
        <time>2017-10-07T10:01:25Z</time>
      </trkpt>
      <trkpt lat="44.0323" lon="6.9188">
        <ele>1885.3890380859</ele>
        <time>2017-10-07T10:01:32Z</time>
      </trkpt>
      <trkpt lat="44.0323" lon="6.91844">
        <ele>1882.3890380859</ele>
        <time>2017-10-07T10:01:39Z</time>
      </trkpt>
      <trkpt lat="44.03221" lon="6.91827">
        <ele>1877.3890380859</ele>
        <time>2017-10-07T10:01:52Z</time>
      </trkpt>
      <trkpt lat="44.03214" lon="6.9182">
        <ele>1877.3890380859</ele>
        <time>2017-10-07T10:02:01Z</time>
      </trkpt>
      <trkpt lat="44.03208" lon="6.91812">
        <ele>1875.3890380859</ele>
        <time>2017-10-07T10:02:09Z</time>
      </trkpt>
      <trkpt lat="44.03199" lon="6.91788">
        <ele>1874.3890380859</ele>
        <time>2017-10-07T10:02:15Z</time>
      </trkpt>
      <trkpt lat="44.03197" lon="6.91762">
        <ele>1867.3879394531</ele>
        <time>2017-10-07T10:02:21Z</time>
      </trkpt>
      <trkpt lat="44.03198" lon="6.91739">
        <ele>1863.3879394531</ele>
        <time>2017-10-07T10:02:26Z</time>
      </trkpt>
      <trkpt lat="44.03193" lon="6.91717">
        <ele>1862.3879394531</ele>
        <time>2017-10-07T10:02:31Z</time>
      </trkpt>
      <trkpt lat="44.03196" lon="6.91705">
        <ele>1860.3879394531</ele>
        <time>2017-10-07T10:03:49Z</time>
      </trkpt>
      <trkpt lat="44.03198" lon="6.91678">
        <ele>1857.3879394531</ele>
        <time>2017-10-07T10:03:55Z</time>
      </trkpt>
      <trkpt lat="44.03197" lon="6.91647">
        <ele>1851.3879394531</ele>
        <time>2017-10-07T10:04:01Z</time>
      </trkpt>
      <trkpt lat="44.0319" lon="6.91617">
        <ele>1846.3879394531</ele>
        <time>2017-10-07T10:04:07Z</time>
      </trkpt>
      <trkpt lat="44.03178" lon="6.91596">
        <ele>1843.3879394531</ele>
        <time>2017-10-07T10:04:12Z</time>
      </trkpt>
      <trkpt lat="44.03175" lon="6.91572">
        <ele>1841.3879394531</ele>
        <time>2017-10-07T10:05:42Z</time>
      </trkpt>
      <trkpt lat="44.0318" lon="6.91555">
        <ele>1838.3879394531</ele>
        <time>2017-10-07T10:05:50Z</time>
      </trkpt>
      <trkpt lat="44.03197" lon="6.91558">
        <ele>1838.3879394531</ele>
        <time>2017-10-07T10:05:58Z</time>
      </trkpt>
      <trkpt lat="44.03204" lon="6.9156">
        <ele>1838.3879394531</ele>
        <time>2017-10-07T10:06:10Z</time>
      </trkpt>
      <trkpt lat="44.03213" lon="6.91557">
        <ele>1836.3879394531</ele>
        <time>2017-10-07T10:06:20Z</time>
      </trkpt>
      <trkpt lat="44.0322" lon="6.91553">
        <ele>1835.3879394531</ele>
        <time>2017-10-07T10:06:25Z</time>
      </trkpt>
      <trkpt lat="44.03223" lon="6.91544">
        <ele>1834.3879394531</ele>
        <time>2017-10-07T10:06:30Z</time>
      </trkpt>
      <trkpt lat="44.03225" lon="6.91532">
        <ele>1834.3879394531</ele>
        <time>2017-10-07T10:06:35Z</time>
      </trkpt>
      <trkpt lat="44.03231" lon="6.91513">
        <ele>1834.3879394531</ele>
        <time>2017-10-07T10:06:42Z</time>
      </trkpt>
      <trkpt lat="44.03243" lon="6.915">
        <ele>1835.3879394531</ele>
        <time>2017-10-07T10:06:53Z</time>
      </trkpt>
      <trkpt lat="44.0325" lon="6.91494">
        <ele>1837.3879394531</ele>
        <time>2017-10-07T10:07:05Z</time>
      </trkpt>
      <trkpt lat="44.03254" lon="6.91485">
        <ele>1837.3879394531</ele>
        <time>2017-10-07T10:07:13Z</time>
      </trkpt>
      <trkpt lat="44.0326" lon="6.91479">
        <ele>1837.3879394531</ele>
        <time>2017-10-07T10:07:20Z</time>
      </trkpt>
      <trkpt lat="44.03267" lon="6.91475">
        <ele>1838.3879394531</ele>
        <time>2017-10-07T10:07:31Z</time>
      </trkpt>
      <trkpt lat="44.03279" lon="6.91459">
        <ele>1836.3879394531</ele>
        <time>2017-10-07T10:07:38Z</time>
      </trkpt>
      <trkpt lat="44.03277" lon="6.91436">
        <ele>1834.3879394531</ele>
        <time>2017-10-07T10:07:46Z</time>
      </trkpt>
      <trkpt lat="44.03274" lon="6.91412">
        <ele>1831.3879394531</ele>
        <time>2017-10-07T10:07:52Z</time>
      </trkpt>
      <trkpt lat="44.03274" lon="6.91391">
        <ele>1832.3879394531</ele>
        <time>2017-10-07T10:07:59Z</time>
      </trkpt>
      <trkpt lat="44.03276" lon="6.9137">
        <ele>1837.3879394531</ele>
        <time>2017-10-07T10:08:13Z</time>
      </trkpt>
      <trkpt lat="44.03275" lon="6.9136">
        <ele>1839.3879394531</ele>
        <time>2017-10-07T10:08:31Z</time>
      </trkpt>
      <trkpt lat="44.03274" lon="6.9135">
        <ele>1835.3879394531</ele>
        <time>2017-10-07T10:08:46Z</time>
      </trkpt>
      <trkpt lat="44.03272" lon="6.91339">
        <ele>1835.3879394531</ele>
        <time>2017-10-07T10:08:54Z</time>
      </trkpt>
      <trkpt lat="44.03273" lon="6.91327">
        <ele>1835.3879394531</ele>
        <time>2017-10-07T10:08:59Z</time>
      </trkpt>
      <trkpt lat="44.03276" lon="6.91314">
        <ele>1835.3879394531</ele>
        <time>2017-10-07T10:09:04Z</time>
      </trkpt>
      <trkpt lat="44.0328" lon="6.91286">
        <ele>1836.3879394531</ele>
        <time>2017-10-07T10:09:10Z</time>
      </trkpt>
      <trkpt lat="44.03278" lon="6.91253">
        <ele>1833.3879394531</ele>
        <time>2017-10-07T10:09:16Z</time>
      </trkpt>
      <trkpt lat="44.03285" lon="6.91229">
        <ele>1831.3879394531</ele>
        <time>2017-10-07T10:09:23Z</time>
      </trkpt>
      <trkpt lat="44.03289" lon="6.91221">
        <ele>1828.3879394531</ele>
        <time>2017-10-07T10:10:17Z</time>
      </trkpt>
      <trkpt lat="44.03291" lon="6.91208">
        <ele>1828.3869628906</ele>
        <time>2017-10-07T10:10:22Z</time>
      </trkpt>
      <trkpt lat="44.033" lon="6.91186">
        <ele>1822.3869628906</ele>
        <time>2017-10-07T10:10:28Z</time>
      </trkpt>
      <trkpt lat="44.03304" lon="6.9116">
        <ele>1822.3869628906</ele>
        <time>2017-10-07T10:10:34Z</time>
      </trkpt>
      <trkpt lat="44.03308" lon="6.91137">
        <ele>1816.3869628906</ele>
        <time>2017-10-07T10:10:39Z</time>
      </trkpt>
      <trkpt lat="44.03306" lon="6.91096">
        <ele>1811.3869628906</ele>
        <time>2017-10-07T10:10:45Z</time>
      </trkpt>
      <trkpt lat="44.03308" lon="6.91062">
        <ele>1808.3869628906</ele>
        <time>2017-10-07T10:10:51Z</time>
      </trkpt>
      <trkpt lat="44.03324" lon="6.91053">
        <ele>1806.3869628906</ele>
        <time>2017-10-07T10:10:56Z</time>
      </trkpt>
      <trkpt lat="44.03326" lon="6.91043">
        <ele>1807.3869628906</ele>
        <time>2017-10-07T10:11:03Z</time>
      </trkpt>
      <trkpt lat="44.03324" lon="6.91031">
        <ele>1807.3869628906</ele>
        <time>2017-10-07T10:11:12Z</time>
      </trkpt>
      <trkpt lat="44.0332" lon="6.91022">
        <ele>1808.3869628906</ele>
        <time>2017-10-07T10:11:21Z</time>
      </trkpt>
      <trkpt lat="44.03323" lon="6.91002">
        <ele>1807.3869628906</ele>
        <time>2017-10-07T10:11:29Z</time>
      </trkpt>
      <trkpt lat="44.0333" lon="6.90977">
        <ele>1806.3869628906</ele>
        <time>2017-10-07T10:11:34Z</time>
      </trkpt>
      <trkpt lat="44.0333" lon="6.90953">
        <ele>1805.3869628906</ele>
        <time>2017-10-07T10:11:41Z</time>
      </trkpt>
      <trkpt lat="44.03335" lon="6.90927">
        <ele>1800.3869628906</ele>
        <time>2017-10-07T10:11:47Z</time>
      </trkpt>
      <trkpt lat="44.03335" lon="6.90902">
        <ele>1796.3869628906</ele>
        <time>2017-10-07T10:11:52Z</time>
      </trkpt>
      <trkpt lat="44.03335" lon="6.90877">
        <ele>1796.3869628906</ele>
        <time>2017-10-07T10:11:57Z</time>
      </trkpt>
      <trkpt lat="44.03337" lon="6.9085">
        <ele>1793.3869628906</ele>
        <time>2017-10-07T10:12:03Z</time>
      </trkpt>
      <trkpt lat="44.03335" lon="6.90823">
        <ele>1789.3869628906</ele>
        <time>2017-10-07T10:12:08Z</time>
      </trkpt>
      <trkpt lat="44.03329" lon="6.9079">
        <ele>1786.3869628906</ele>
        <time>2017-10-07T10:12:14Z</time>
      </trkpt>
      <trkpt lat="44.03327" lon="6.90765">
        <ele>1783.3869628906</ele>
        <time>2017-10-07T10:12:20Z</time>
      </trkpt>
      <trkpt lat="44.03331" lon="6.90729">
        <ele>1780.3869628906</ele>
        <time>2017-10-07T10:12:26Z</time>
      </trkpt>
      <trkpt lat="44.03345" lon="6.90698">
        <ele>1778.3869628906</ele>
        <time>2017-10-07T10:12:32Z</time>
      </trkpt>
      <trkpt lat="44.03359" lon="6.90662">
        <ele>1772.3869628906</ele>
        <time>2017-10-07T10:12:38Z</time>
      </trkpt>
      <trkpt lat="44.03366" lon="6.90625">
        <ele>1767.3859863281</ele>
        <time>2017-10-07T10:12:45Z</time>
      </trkpt>
      <trkpt lat="44.0336" lon="6.90591">
        <ele>1762.3859863281</ele>
        <time>2017-10-07T10:13:04Z</time>
      </trkpt>
      <trkpt lat="44.03343" lon="6.90562">
        <ele>1755.3859863281</ele>
        <time>2017-10-07T10:13:10Z</time>
      </trkpt>
      <trkpt lat="44.03324" lon="6.90523">
        <ele>1745.3859863281</ele>
        <time>2017-10-07T10:13:16Z</time>
      </trkpt>
      <trkpt lat="44.03313" lon="6.90485">
        <ele>1737.3859863281</ele>
        <time>2017-10-07T10:13:22Z</time>
      </trkpt>
      <trkpt lat="44.03301" lon="6.9044">
        <ele>1732.3859863281</ele>
        <time>2017-10-07T10:13:28Z</time>
      </trkpt>
      <trkpt lat="44.03307" lon="6.90433">
        <ele>1730.3859863281</ele>
        <time>2017-10-07T10:15:11Z</time>
      </trkpt>
      <trkpt lat="44.03323" lon="6.90399">
        <ele>1724.3859863281</ele>
        <time>2017-10-07T10:15:18Z</time>
      </trkpt>
      <trkpt lat="44.03331" lon="6.90376">
        <ele>1719.3859863281</ele>
        <time>2017-10-07T10:15:23Z</time>
      </trkpt>
      <trkpt lat="44.03334" lon="6.90349">
        <ele>1716.3859863281</ele>
        <time>2017-10-07T10:15:28Z</time>
      </trkpt>
      <trkpt lat="44.03349" lon="6.90318">
        <ele>1711.3859863281</ele>
        <time>2017-10-07T10:15:34Z</time>
      </trkpt>
      <trkpt lat="44.03359" lon="6.90287">
        <ele>1708.3859863281</ele>
        <time>2017-10-07T10:15:40Z</time>
      </trkpt>
      <trkpt lat="44.03366" lon="6.90251">
        <ele>1707.3859863281</ele>
        <time>2017-10-07T10:15:46Z</time>
      </trkpt>
      <trkpt lat="44.03366" lon="6.90229">
        <ele>1711.3859863281</ele>
        <time>2017-10-07T10:15:52Z</time>
      </trkpt>
      <trkpt lat="44.03355" lon="6.90215">
        <ele>1710.3859863281</ele>
        <time>2017-10-07T10:15:57Z</time>
      </trkpt>
      <trkpt lat="44.03356" lon="6.90189">
        <ele>1711.3859863281</ele>
        <time>2017-10-07T10:16:03Z</time>
      </trkpt>
      <trkpt lat="44.03345" lon="6.90169">
        <ele>1711.3859863281</ele>
        <time>2017-10-07T10:16:11Z</time>
      </trkpt>
      <trkpt lat="44.03334" lon="6.9015">
        <ele>1711.3850097656</ele>
        <time>2017-10-07T10:16:17Z</time>
      </trkpt>
      <trkpt lat="44.03325" lon="6.90127">
        <ele>1709.3850097656</ele>
        <time>2017-10-07T10:16:23Z</time>
      </trkpt>
      <trkpt lat="44.0332" lon="6.9009">
        <ele>1703.3850097656</ele>
        <time>2017-10-07T10:16:29Z</time>
      </trkpt>
      <trkpt lat="44.03306" lon="6.90065">
        <ele>1697.3850097656</ele>
        <time>2017-10-07T10:16:35Z</time>
      </trkpt>
      <trkpt lat="44.03292" lon="6.90069">
        <ele>1694.3850097656</ele>
        <time>2017-10-07T10:16:46Z</time>
      </trkpt>
      <trkpt lat="44.03287" lon="6.90061">
        <ele>1695.3850097656</ele>
        <time>2017-10-07T10:16:51Z</time>
      </trkpt>
      <trkpt lat="44.0327" lon="6.90054">
        <ele>1691.3850097656</ele>
        <time>2017-10-07T10:16:56Z</time>
      </trkpt>
      <trkpt lat="44.03247" lon="6.9004">
        <ele>1692.3850097656</ele>
        <time>2017-10-07T10:17:02Z</time>
      </trkpt>
      <trkpt lat="44.03223" lon="6.90025">
        <ele>1692.3850097656</ele>
        <time>2017-10-07T10:17:09Z</time>
      </trkpt>
      <trkpt lat="44.03214" lon="6.90006">
        <ele>1690.3850097656</ele>
        <time>2017-10-07T10:17:14Z</time>
      </trkpt>
      <trkpt lat="44.03212" lon="6.89984">
        <ele>1691.3850097656</ele>
        <time>2017-10-07T10:17:20Z</time>
      </trkpt>
      <trkpt lat="44.03214" lon="6.89961">
        <ele>1690.3850097656</ele>
        <time>2017-10-07T10:17:28Z</time>
      </trkpt>
      <trkpt lat="44.03211" lon="6.8997">
        <ele>1692.3850097656</ele>
        <time>2017-10-07T10:19:04Z</time>
      </trkpt>
      <trkpt lat="44.03218" lon="6.89969">
        <ele>1691.3850097656</ele>
        <time>2017-10-07T10:19:41Z</time>
      </trkpt>
      <trkpt lat="44.03214" lon="6.89959">
        <ele>1693.3850097656</ele>
        <time>2017-10-07T10:20:26Z</time>
      </trkpt>
      <trkpt lat="44.03217" lon="6.89936">
        <ele>1693.3850097656</ele>
        <time>2017-10-07T10:20:31Z</time>
      </trkpt>
      <trkpt lat="44.03223" lon="6.89912">
        <ele>1694.3850097656</ele>
        <time>2017-10-07T10:20:37Z</time>
      </trkpt>
      <trkpt lat="44.03226" lon="6.89888">
        <ele>1695.3850097656</ele>
        <time>2017-10-07T10:20:43Z</time>
      </trkpt>
      <trkpt lat="44.03233" lon="6.89867">
        <ele>1696.3850097656</ele>
        <time>2017-10-07T10:20:49Z</time>
      </trkpt>
      <trkpt lat="44.03235" lon="6.89858">
        <ele>1695.3850097656</ele>
        <time>2017-10-07T10:20:54Z</time>
      </trkpt>
      <trkpt lat="44.03237" lon="6.89846">
        <ele>1695.3850097656</ele>
        <time>2017-10-07T10:20:59Z</time>
      </trkpt>
      <trkpt lat="44.03237" lon="6.89835">
        <ele>1696.3850097656</ele>
        <time>2017-10-07T10:21:06Z</time>
      </trkpt>
      <trkpt lat="44.03239" lon="6.8981">
        <ele>1695.3850097656</ele>
        <time>2017-10-07T10:21:13Z</time>
      </trkpt>
      <trkpt lat="44.03241" lon="6.89785">
        <ele>1694.3850097656</ele>
        <time>2017-10-07T10:21:19Z</time>
      </trkpt>
      <trkpt lat="44.03242" lon="6.89761">
        <ele>1693.3850097656</ele>
        <time>2017-10-07T10:21:24Z</time>
      </trkpt>
      <trkpt lat="44.03239" lon="6.89735">
        <ele>1691.3840332031</ele>
        <time>2017-10-07T10:21:29Z</time>
      </trkpt>
      <trkpt lat="44.03228" lon="6.89698">
        <ele>1686.3840332031</ele>
        <time>2017-10-07T10:21:36Z</time>
      </trkpt>
      <trkpt lat="44.03219" lon="6.89679">
        <ele>1682.3840332031</ele>
        <time>2017-10-07T10:21:42Z</time>
      </trkpt>
      <trkpt lat="44.03215" lon="6.89657">
        <ele>1678.3840332031</ele>
        <time>2017-10-07T10:21:48Z</time>
      </trkpt>
      <trkpt lat="44.03217" lon="6.89635">
        <ele>1673.3840332031</ele>
        <time>2017-10-07T10:21:54Z</time>
      </trkpt>
      <trkpt lat="44.03209" lon="6.89615">
        <ele>1670.3840332031</ele>
        <time>2017-10-07T10:22:03Z</time>
      </trkpt>
      <trkpt lat="44.03201" lon="6.89597">
        <ele>1666.3840332031</ele>
        <time>2017-10-07T10:22:11Z</time>
      </trkpt>
      <trkpt lat="44.03194" lon="6.89576">
        <ele>1661.3840332031</ele>
        <time>2017-10-07T10:22:18Z</time>
      </trkpt>
      <trkpt lat="44.0318" lon="6.89562">
        <ele>1661.3840332031</ele>
        <time>2017-10-07T10:22:23Z</time>
      </trkpt>
      <trkpt lat="44.03173" lon="6.89557">
        <ele>1654.3840332031</ele>
        <time>2017-10-07T10:23:19Z</time>
      </trkpt>
      <trkpt lat="44.03165" lon="6.89552">
        <ele>1653.3840332031</ele>
        <time>2017-10-07T10:23:29Z</time>
      </trkpt>
      <trkpt lat="44.03152" lon="6.89564">
        <ele>1648.3840332031</ele>
        <time>2017-10-07T10:23:37Z</time>
      </trkpt>
      <trkpt lat="44.03139" lon="6.89547">
        <ele>1644.3840332031</ele>
        <time>2017-10-07T10:23:44Z</time>
      </trkpt>
      <trkpt lat="44.0313" lon="6.89514">
        <ele>1637.3840332031</ele>
        <time>2017-10-07T10:23:51Z</time>
      </trkpt>
      <trkpt lat="44.03115" lon="6.89495">
        <ele>1629.3840332031</ele>
        <time>2017-10-07T10:23:58Z</time>
      </trkpt>
      <trkpt lat="44.03095" lon="6.89492">
        <ele>1622.3840332031</ele>
        <time>2017-10-07T10:24:03Z</time>
      </trkpt>
      <trkpt lat="44.03065" lon="6.89492">
        <ele>1620.3840332031</ele>
        <time>2017-10-07T10:24:10Z</time>
      </trkpt>
      <trkpt lat="44.0305" lon="6.89496">
        <ele>1618.3840332031</ele>
        <time>2017-10-07T10:24:18Z</time>
      </trkpt>
      <trkpt lat="44.03035" lon="6.89493">
        <ele>1614.3840332031</ele>
        <time>2017-10-07T10:24:24Z</time>
      </trkpt>
      <trkpt lat="44.03023" lon="6.89479">
        <ele>1611.3840332031</ele>
        <time>2017-10-07T10:24:29Z</time>
      </trkpt>
      <trkpt lat="44.03008" lon="6.89472">
        <ele>1608.3840332031</ele>
        <time>2017-10-07T10:24:35Z</time>
      </trkpt>
      <trkpt lat="44.02994" lon="6.89459">
        <ele>1607.3840332031</ele>
        <time>2017-10-07T10:24:40Z</time>
      </trkpt>
      <trkpt lat="44.02987" lon="6.89452">
        <ele>1606.3840332031</ele>
        <time>2017-10-07T10:25:25Z</time>
      </trkpt>
      <trkpt lat="44.0297" lon="6.89447">
        <ele>1601.3840332031</ele>
        <time>2017-10-07T10:25:30Z</time>
      </trkpt>
      <trkpt lat="44.02964" lon="6.89422">
        <ele>1594.3830566406</ele>
        <time>2017-10-07T10:25:36Z</time>
      </trkpt>
      <trkpt lat="44.0298" lon="6.89407">
        <ele>1591.3830566406</ele>
        <time>2017-10-07T10:25:41Z</time>
      </trkpt>
      <trkpt lat="44.02996" lon="6.89407">
        <ele>1587.3830566406</ele>
        <time>2017-10-07T10:25:48Z</time>
      </trkpt>
      <trkpt lat="44.03004" lon="6.89398">
        <ele>1580.3830566406</ele>
        <time>2017-10-07T10:26:00Z</time>
      </trkpt>
      <trkpt lat="44.03006" lon="6.89386">
        <ele>1579.3830566406</ele>
        <time>2017-10-07T10:26:07Z</time>
      </trkpt>
      <trkpt lat="44.03" lon="6.89367">
        <ele>1574.3830566406</ele>
        <time>2017-10-07T10:26:14Z</time>
      </trkpt>
      <trkpt lat="44.0299" lon="6.89351">
        <ele>1571.3830566406</ele>
        <time>2017-10-07T10:26:21Z</time>
      </trkpt>
      <trkpt lat="44.02979" lon="6.89338">
        <ele>1566.3830566406</ele>
        <time>2017-10-07T10:26:28Z</time>
      </trkpt>
      <trkpt lat="44.02966" lon="6.89327">
        <ele>1561.3830566406</ele>
        <time>2017-10-07T10:26:35Z</time>
      </trkpt>
      <trkpt lat="44.02971" lon="6.89303">
        <ele>1554.3830566406</ele>
        <time>2017-10-07T10:26:41Z</time>
      </trkpt>
      <trkpt lat="44.02985" lon="6.89286">
        <ele>1550.3830566406</ele>
        <time>2017-10-07T10:26:46Z</time>
      </trkpt>
      <trkpt lat="44.03" lon="6.89277">
        <ele>1545.3830566406</ele>
        <time>2017-10-07T10:26:58Z</time>
      </trkpt>
      <trkpt lat="44.03008" lon="6.89269">
        <ele>1541.3830566406</ele>
        <time>2017-10-07T10:27:03Z</time>
      </trkpt>
      <trkpt lat="44.03018" lon="6.89251">
        <ele>1539.3830566406</ele>
        <time>2017-10-07T10:27:08Z</time>
      </trkpt>
      <trkpt lat="44.03022" lon="6.89242">
        <ele>1540.3830566406</ele>
        <time>2017-10-07T10:27:24Z</time>
      </trkpt>
      <trkpt lat="44.03027" lon="6.89223">
        <ele>1533.3830566406</ele>
        <time>2017-10-07T10:27:30Z</time>
      </trkpt>
      <trkpt lat="44.03026" lon="6.89201">
        <ele>1533.3830566406</ele>
        <time>2017-10-07T10:27:36Z</time>
      </trkpt>
      <trkpt lat="44.03024" lon="6.89178">
        <ele>1532.3830566406</ele>
        <time>2017-10-07T10:27:41Z</time>
      </trkpt>
      <trkpt lat="44.03019" lon="6.89142">
        <ele>1526.3830566406</ele>
        <time>2017-10-07T10:27:48Z</time>
      </trkpt>
      <trkpt lat="44.0302" lon="6.89119">
        <ele>1520.3830566406</ele>
        <time>2017-10-07T10:27:53Z</time>
      </trkpt>
      <trkpt lat="44.03017" lon="6.89084">
        <ele>1516.3830566406</ele>
        <time>2017-10-07T10:28:00Z</time>
      </trkpt>
      <trkpt lat="44.03017" lon="6.89073">
        <ele>1513.3830566406</ele>
        <time>2017-10-07T10:28:41Z</time>
      </trkpt>
      <trkpt lat="44.03023" lon="6.89053">
        <ele>1509.3830566406</ele>
        <time>2017-10-07T10:28:51Z</time>
      </trkpt>
      <trkpt lat="44.03023" lon="6.89042">
        <ele>1508.3830566406</ele>
        <time>2017-10-07T10:29:07Z</time>
      </trkpt>
      <trkpt lat="44.03019" lon="6.8902">
        <ele>1505.3830566406</ele>
        <time>2017-10-07T10:29:12Z</time>
      </trkpt>
      <trkpt lat="44.03021" lon="6.88997">
        <ele>1504.3830566406</ele>
        <time>2017-10-07T10:29:18Z</time>
      </trkpt>
      <trkpt lat="44.03025" lon="6.88974">
        <ele>1499.3830566406</ele>
        <time>2017-10-07T10:29:25Z</time>
      </trkpt>
      <trkpt lat="44.0303" lon="6.88965">
        <ele>1498.3830566406</ele>
        <time>2017-10-07T10:29:45Z</time>
      </trkpt>
      <trkpt lat="44.03036" lon="6.88947">
        <ele>1496.3830566406</ele>
        <time>2017-10-07T10:29:58Z</time>
      </trkpt>
      <trkpt lat="44.03039" lon="6.88923">
        <ele>1494.3830566406</ele>
        <time>2017-10-07T10:30:04Z</time>
      </trkpt>
      <trkpt lat="44.03034" lon="6.88903">
        <ele>1490.3830566406</ele>
        <time>2017-10-07T10:30:10Z</time>
      </trkpt>
      <trkpt lat="44.03017" lon="6.88884">
        <ele>1483.3819580078</ele>
        <time>2017-10-07T10:30:16Z</time>
      </trkpt>
      <trkpt lat="44.02995" lon="6.88879">
        <ele>1478.3819580078</ele>
        <time>2017-10-07T10:30:22Z</time>
      </trkpt>
      <trkpt lat="44.02979" lon="6.88868">
        <ele>1475.3819580078</ele>
        <time>2017-10-07T10:30:27Z</time>
      </trkpt>
      <trkpt lat="44.02972" lon="6.88868">
        <ele>1474.3819580078</ele>
        <time>2017-10-07T10:30:57Z</time>
      </trkpt>
      <trkpt lat="44.02971" lon="6.88878">
        <ele>1469.3819580078</ele>
        <time>2017-10-07T10:53:20Z</time>
      </trkpt>
      <trkpt lat="44.02974" lon="6.88869">
        <ele>1475.3819580078</ele>
        <time>2017-10-07T10:54:18Z</time>
      </trkpt>
      <trkpt lat="44.02968" lon="6.88862">
        <ele>1470.3819580078</ele>
        <time>2017-10-07T10:54:38Z</time>
      </trkpt>
      <trkpt lat="44.02961" lon="6.8886">
        <ele>1466.3819580078</ele>
        <time>2017-10-07T10:54:44Z</time>
      </trkpt>
      <trkpt lat="44.02959" lon="6.8887">
        <ele>1469.3819580078</ele>
        <time>2017-10-07T10:56:06Z</time>
      </trkpt>
      <trkpt lat="44.02953" lon="6.88877">
        <ele>1469.3819580078</ele>
        <time>2017-10-07T10:56:12Z</time>
      </trkpt>
      <trkpt lat="44.02947" lon="6.88886">
        <ele>1468.3819580078</ele>
        <time>2017-10-07T10:56:17Z</time>
      </trkpt>
      <trkpt lat="44.02939" lon="6.8891">
        <ele>1468.3819580078</ele>
        <time>2017-10-07T10:56:24Z</time>
      </trkpt>
      <trkpt lat="44.02931" lon="6.88935">
        <ele>1466.3819580078</ele>
        <time>2017-10-07T10:56:30Z</time>
      </trkpt>
      <trkpt lat="44.02922" lon="6.88953">
        <ele>1463.3819580078</ele>
        <time>2017-10-07T10:56:35Z</time>
      </trkpt>
      <trkpt lat="44.02908" lon="6.88982">
        <ele>1462.3819580078</ele>
        <time>2017-10-07T10:56:42Z</time>
      </trkpt>
      <trkpt lat="44.02902" lon="6.88961">
        <ele>1463.3819580078</ele>
        <time>2017-10-07T10:56:50Z</time>
      </trkpt>
      <trkpt lat="44.0289" lon="6.88945">
        <ele>1463.3819580078</ele>
        <time>2017-10-07T10:56:57Z</time>
      </trkpt>
      <trkpt lat="44.02874" lon="6.88935">
        <ele>1463.3819580078</ele>
        <time>2017-10-07T10:57:05Z</time>
      </trkpt>
      <trkpt lat="44.02859" lon="6.88934">
        <ele>1464.3819580078</ele>
        <time>2017-10-07T10:57:11Z</time>
      </trkpt>
      <trkpt lat="44.02845" lon="6.88941">
        <ele>1464.3819580078</ele>
        <time>2017-10-07T10:57:17Z</time>
      </trkpt>
      <trkpt lat="44.02829" lon="6.88956">
        <ele>1465.3819580078</ele>
        <time>2017-10-07T10:57:25Z</time>
      </trkpt>
      <trkpt lat="44.02823" lon="6.88977">
        <ele>1466.3819580078</ele>
        <time>2017-10-07T10:57:32Z</time>
      </trkpt>
      <trkpt lat="44.02823" lon="6.89001">
        <ele>1466.3819580078</ele>
        <time>2017-10-07T10:57:40Z</time>
      </trkpt>
      <trkpt lat="44.02832" lon="6.89021">
        <ele>1467.3819580078</ele>
        <time>2017-10-07T10:57:47Z</time>
      </trkpt>
      <trkpt lat="44.02835" lon="6.89043">
        <ele>1467.3819580078</ele>
        <time>2017-10-07T10:57:54Z</time>
      </trkpt>
      <trkpt lat="44.02839" lon="6.89066">
        <ele>1469.3830566406</ele>
        <time>2017-10-07T10:58:00Z</time>
      </trkpt>
      <trkpt lat="44.02843" lon="6.89086">
        <ele>1468.3830566406</ele>
        <time>2017-10-07T10:58:05Z</time>
      </trkpt>
      <trkpt lat="44.02849" lon="6.89108">
        <ele>1469.3830566406</ele>
        <time>2017-10-07T10:58:10Z</time>
      </trkpt>
      <trkpt lat="44.02835" lon="6.89124">
        <ele>1470.3830566406</ele>
        <time>2017-10-07T10:58:17Z</time>
      </trkpt>
      <trkpt lat="44.02819" lon="6.89133">
        <ele>1471.3830566406</ele>
        <time>2017-10-07T10:58:22Z</time>
      </trkpt>
      <trkpt lat="44.02808" lon="6.89152">
        <ele>1470.3830566406</ele>
        <time>2017-10-07T10:58:28Z</time>
      </trkpt>
      <trkpt lat="44.02791" lon="6.89163">
        <ele>1468.3830566406</ele>
        <time>2017-10-07T10:58:34Z</time>
      </trkpt>
      <trkpt lat="44.02775" lon="6.89159">
        <ele>1467.3830566406</ele>
        <time>2017-10-07T10:58:41Z</time>
      </trkpt>
      <trkpt lat="44.02757" lon="6.89156">
        <ele>1467.3830566406</ele>
        <time>2017-10-07T10:58:47Z</time>
      </trkpt>
      <trkpt lat="44.0274" lon="6.89164">
        <ele>1466.3830566406</ele>
        <time>2017-10-07T10:58:52Z</time>
      </trkpt>
      <trkpt lat="44.02728" lon="6.8918">
        <ele>1465.3830566406</ele>
        <time>2017-10-07T10:58:58Z</time>
      </trkpt>
      <trkpt lat="44.02712" lon="6.8918">
        <ele>1463.3830566406</ele>
        <time>2017-10-07T10:59:04Z</time>
      </trkpt>
      <trkpt lat="44.02693" lon="6.89186">
        <ele>1460.3830566406</ele>
        <time>2017-10-07T10:59:09Z</time>
      </trkpt>
      <trkpt lat="44.02668" lon="6.89199">
        <ele>1459.3830566406</ele>
        <time>2017-10-07T10:59:15Z</time>
      </trkpt>
      <trkpt lat="44.02661" lon="6.89217">
        <ele>1457.3830566406</ele>
        <time>2017-10-07T10:59:25Z</time>
      </trkpt>
      <trkpt lat="44.02662" lon="6.89228">
        <ele>1456.3830566406</ele>
        <time>2017-10-07T11:00:00Z</time>
      </trkpt>
      <trkpt lat="44.02666" lon="6.89236">
        <ele>1456.3830566406</ele>
        <time>2017-10-07T11:00:20Z</time>
      </trkpt>
      <trkpt lat="44.02661" lon="6.89244">
        <ele>1455.3830566406</ele>
        <time>2017-10-07T11:00:48Z</time>
      </trkpt>
      <trkpt lat="44.02654" lon="6.89242">
        <ele>1459.3830566406</ele>
        <time>2017-10-07T11:00:57Z</time>
      </trkpt>
      <trkpt lat="44.02638" lon="6.89237">
        <ele>1458.3830566406</ele>
        <time>2017-10-07T11:01:03Z</time>
      </trkpt>
      <trkpt lat="44.02622" lon="6.89245">
        <ele>1456.3830566406</ele>
        <time>2017-10-07T11:01:08Z</time>
      </trkpt>
      <trkpt lat="44.02609" lon="6.89232">
        <ele>1458.3830566406</ele>
        <time>2017-10-07T11:01:17Z</time>
      </trkpt>
      <trkpt lat="44.02601" lon="6.89233">
        <ele>1456.3830566406</ele>
        <time>2017-10-07T11:01:26Z</time>
      </trkpt>
      <trkpt lat="44.02593" lon="6.89231">
        <ele>1455.3819580078</ele>
        <time>2017-10-07T11:01:34Z</time>
      </trkpt>
      <trkpt lat="44.02586" lon="6.89227">
        <ele>1453.3819580078</ele>
        <time>2017-10-07T11:01:39Z</time>
      </trkpt>
      <trkpt lat="44.02576" lon="6.8921">
        <ele>1453.3819580078</ele>
        <time>2017-10-07T11:01:46Z</time>
      </trkpt>
      <trkpt lat="44.02569" lon="6.89204">
        <ele>1453.3819580078</ele>
        <time>2017-10-07T11:01:57Z</time>
      </trkpt>
      <trkpt lat="44.02565" lon="6.89213">
        <ele>1467.3819580078</ele>
        <time>2017-10-07T11:02:08Z</time>
      </trkpt>
      <trkpt lat="44.0256" lon="6.89204">
        <ele>1458.3819580078</ele>
        <time>2017-10-07T11:02:14Z</time>
      </trkpt>
      <trkpt lat="44.02559" lon="6.89181">
        <ele>1457.3819580078</ele>
        <time>2017-10-07T11:02:22Z</time>
      </trkpt>
      <trkpt lat="44.02545" lon="6.89169">
        <ele>1455.3819580078</ele>
        <time>2017-10-07T11:02:29Z</time>
      </trkpt>
      <trkpt lat="44.02529" lon="6.89176">
        <ele>1456.3819580078</ele>
        <time>2017-10-07T11:02:35Z</time>
      </trkpt>
      <trkpt lat="44.02516" lon="6.89189">
        <ele>1453.3819580078</ele>
        <time>2017-10-07T11:02:42Z</time>
      </trkpt>
      <trkpt lat="44.02502" lon="6.89196">
        <ele>1454.3819580078</ele>
        <time>2017-10-07T11:02:50Z</time>
      </trkpt>
      <trkpt lat="44.02495" lon="6.892">
        <ele>1455.3819580078</ele>
        <time>2017-10-07T11:03:01Z</time>
      </trkpt>
      <trkpt lat="44.02483" lon="6.89195">
        <ele>1453.3819580078</ele>
        <time>2017-10-07T11:03:09Z</time>
      </trkpt>
      <trkpt lat="44.02476" lon="6.89179">
        <ele>1453.3819580078</ele>
        <time>2017-10-07T11:03:16Z</time>
      </trkpt>
      <trkpt lat="44.02461" lon="6.89167">
        <ele>1449.3819580078</ele>
        <time>2017-10-07T11:03:29Z</time>
      </trkpt>
      <trkpt lat="44.02453" lon="6.89165">
        <ele>1448.3819580078</ele>
        <time>2017-10-07T11:03:36Z</time>
      </trkpt>
      <trkpt lat="44.02447" lon="6.8916">
        <ele>1448.3819580078</ele>
        <time>2017-10-07T11:03:44Z</time>
      </trkpt>
      <trkpt lat="44.02431" lon="6.89154">
        <ele>1448.3819580078</ele>
        <time>2017-10-07T11:03:52Z</time>
      </trkpt>
      <trkpt lat="44.02414" lon="6.89152">
        <ele>1449.3819580078</ele>
        <time>2017-10-07T11:03:58Z</time>
      </trkpt>
      <trkpt lat="44.024" lon="6.8916">
        <ele>1450.3819580078</ele>
        <time>2017-10-07T11:04:05Z</time>
      </trkpt>
      <trkpt lat="44.02393" lon="6.89153">
        <ele>1450.3819580078</ele>
        <time>2017-10-07T11:04:23Z</time>
      </trkpt>
      <trkpt lat="44.02379" lon="6.89142">
        <ele>1448.3819580078</ele>
        <time>2017-10-07T11:04:29Z</time>
      </trkpt>
      <trkpt lat="44.0236" lon="6.89145">
        <ele>1448.3819580078</ele>
        <time>2017-10-07T11:04:35Z</time>
      </trkpt>
      <trkpt lat="44.0235" lon="6.89164">
        <ele>1449.3819580078</ele>
        <time>2017-10-07T11:04:41Z</time>
      </trkpt>
      <trkpt lat="44.02346" lon="6.89174">
        <ele>1450.3819580078</ele>
        <time>2017-10-07T11:04:46Z</time>
      </trkpt>
      <trkpt lat="44.02339" lon="6.89175">
        <ele>1451.3819580078</ele>
        <time>2017-10-07T11:05:56Z</time>
      </trkpt>
      <trkpt lat="44.02338" lon="6.89187">
        <ele>1451.3819580078</ele>
        <time>2017-10-07T11:06:04Z</time>
      </trkpt>
      <trkpt lat="44.02333" lon="6.89199">
        <ele>1451.3819580078</ele>
        <time>2017-10-07T11:06:10Z</time>
      </trkpt>
      <trkpt lat="44.02329" lon="6.8921">
        <ele>1450.3819580078</ele>
        <time>2017-10-07T11:06:15Z</time>
      </trkpt>
      <trkpt lat="44.02329" lon="6.8922">
        <ele>1450.3819580078</ele>
        <time>2017-10-07T11:06:28Z</time>
      </trkpt>
      <trkpt lat="44.02323" lon="6.89229">
        <ele>1450.3819580078</ele>
        <time>2017-10-07T11:06:36Z</time>
      </trkpt>
      <trkpt lat="44.02302" lon="6.89242">
        <ele>1447.3819580078</ele>
        <time>2017-10-07T11:06:42Z</time>
      </trkpt>
      <trkpt lat="44.0229" lon="6.89269">
        <ele>1444.3819580078</ele>
        <time>2017-10-07T11:06:48Z</time>
      </trkpt>
      <trkpt lat="44.02306" lon="6.89294">
        <ele>1439.3819580078</ele>
        <time>2017-10-07T11:06:54Z</time>
      </trkpt>
      <trkpt lat="44.02313" lon="6.89316">
        <ele>1436.3819580078</ele>
        <time>2017-10-07T11:06:59Z</time>
      </trkpt>
      <trkpt lat="44.02317" lon="6.89339">
        <ele>1433.3819580078</ele>
        <time>2017-10-07T11:07:07Z</time>
      </trkpt>
      <trkpt lat="44.0231" lon="6.89335">
        <ele>1432.3819580078</ele>
        <time>2017-10-07T11:07:17Z</time>
      </trkpt>
      <trkpt lat="44.02304" lon="6.89328">
        <ele>1433.3819580078</ele>
        <time>2017-10-07T11:07:24Z</time>
      </trkpt>
      <trkpt lat="44.02296" lon="6.89328">
        <ele>1434.3819580078</ele>
        <time>2017-10-07T11:07:32Z</time>
      </trkpt>
      <trkpt lat="44.02279" lon="6.8933">
        <ele>1432.3819580078</ele>
        <time>2017-10-07T11:07:38Z</time>
      </trkpt>
      <trkpt lat="44.02263" lon="6.8934">
        <ele>1431.3819580078</ele>
        <time>2017-10-07T11:07:44Z</time>
      </trkpt>
      <trkpt lat="44.0225" lon="6.89353">
        <ele>1430.3819580078</ele>
        <time>2017-10-07T11:07:50Z</time>
      </trkpt>
      <trkpt lat="44.02241" lon="6.89375">
        <ele>1430.3819580078</ele>
        <time>2017-10-07T11:07:58Z</time>
      </trkpt>
      <trkpt lat="44.02236" lon="6.89396">
        <ele>1429.3819580078</ele>
        <time>2017-10-07T11:08:03Z</time>
      </trkpt>
      <trkpt lat="44.02237" lon="6.8942">
        <ele>1428.3819580078</ele>
        <time>2017-10-07T11:08:08Z</time>
      </trkpt>
      <trkpt lat="44.02238" lon="6.89447">
        <ele>1428.3819580078</ele>
        <time>2017-10-07T11:08:13Z</time>
      </trkpt>
      <trkpt lat="44.0223" lon="6.89471">
        <ele>1426.3819580078</ele>
        <time>2017-10-07T11:08:18Z</time>
      </trkpt>
      <trkpt lat="44.02212" lon="6.89501">
        <ele>1425.3819580078</ele>
        <time>2017-10-07T11:08:24Z</time>
      </trkpt>
      <trkpt lat="44.02185" lon="6.8952">
        <ele>1423.3819580078</ele>
        <time>2017-10-07T11:08:30Z</time>
      </trkpt>
      <trkpt lat="44.02163" lon="6.89549">
        <ele>1420.3819580078</ele>
        <time>2017-10-07T11:08:36Z</time>
      </trkpt>
      <trkpt lat="44.02134" lon="6.89582">
        <ele>1417.3819580078</ele>
        <time>2017-10-07T11:08:42Z</time>
      </trkpt>
      <trkpt lat="44.02103" lon="6.896">
        <ele>1413.3819580078</ele>
        <time>2017-10-07T11:08:49Z</time>
      </trkpt>
      <trkpt lat="44.02095" lon="6.89601">
        <ele>1414.3819580078</ele>
        <time>2017-10-07T11:09:48Z</time>
      </trkpt>
      <trkpt lat="44.0208" lon="6.89592">
        <ele>1413.3819580078</ele>
        <time>2017-10-07T11:09:53Z</time>
      </trkpt>
      <trkpt lat="44.02052" lon="6.89581">
        <ele>1407.3819580078</ele>
        <time>2017-10-07T11:09:59Z</time>
      </trkpt>
      <trkpt lat="44.02036" lon="6.89592">
        <ele>1405.3819580078</ele>
        <time>2017-10-07T11:10:16Z</time>
      </trkpt>
      <trkpt lat="44.02011" lon="6.89609">
        <ele>1401.3819580078</ele>
        <time>2017-10-07T11:10:22Z</time>
      </trkpt>
      <trkpt lat="44.01987" lon="6.89625">
        <ele>1397.3819580078</ele>
        <time>2017-10-07T11:10:28Z</time>
      </trkpt>
      <trkpt lat="44.01972" lon="6.89641">
        <ele>1392.3819580078</ele>
        <time>2017-10-07T11:10:34Z</time>
      </trkpt>
      <trkpt lat="44.0197" lon="6.89653">
        <ele>1391.3819580078</ele>
        <time>2017-10-07T11:10:39Z</time>
      </trkpt>
      <trkpt lat="44.01979" lon="6.89656">
        <ele>1390.3819580078</ele>
        <time>2017-10-07T11:11:12Z</time>
      </trkpt>
      <trkpt lat="44.01997" lon="6.89661">
        <ele>1389.3819580078</ele>
        <time>2017-10-07T11:11:18Z</time>
      </trkpt>
      <trkpt lat="44.02004" lon="6.89658">
        <ele>1387.3819580078</ele>
        <time>2017-10-07T11:11:26Z</time>
      </trkpt>
      <trkpt lat="44.0201" lon="6.89652">
        <ele>1386.3819580078</ele>
        <time>2017-10-07T11:11:38Z</time>
      </trkpt>
      <trkpt lat="44.02018" lon="6.89646">
        <ele>1385.3819580078</ele>
        <time>2017-10-07T11:11:43Z</time>
      </trkpt>
      <trkpt lat="44.02036" lon="6.8964">
        <ele>1383.3819580078</ele>
        <time>2017-10-07T11:11:48Z</time>
      </trkpt>
      <trkpt lat="44.02051" lon="6.89644">
        <ele>1383.3819580078</ele>
        <time>2017-10-07T11:11:57Z</time>
      </trkpt>
      <trkpt lat="44.0206" lon="6.89643">
        <ele>1384.3819580078</ele>
        <time>2017-10-07T11:12:04Z</time>
      </trkpt>
      <trkpt lat="44.02074" lon="6.89657">
        <ele>1384.3830566406</ele>
        <time>2017-10-07T11:12:10Z</time>
      </trkpt>
      <trkpt lat="44.0209" lon="6.89671">
        <ele>1383.3830566406</ele>
        <time>2017-10-07T11:12:16Z</time>
      </trkpt>
      <trkpt lat="44.02105" lon="6.8967">
        <ele>1382.3830566406</ele>
        <time>2017-10-07T11:12:22Z</time>
      </trkpt>
      <trkpt lat="44.02123" lon="6.8967">
        <ele>1381.3830566406</ele>
        <time>2017-10-07T11:12:29Z</time>
      </trkpt>
      <trkpt lat="44.02135" lon="6.89688">
        <ele>1379.3830566406</ele>
        <time>2017-10-07T11:12:35Z</time>
      </trkpt>
      <trkpt lat="44.02149" lon="6.89694">
        <ele>1378.3830566406</ele>
        <time>2017-10-07T11:12:41Z</time>
      </trkpt>
      <trkpt lat="44.02166" lon="6.89698">
        <ele>1378.3830566406</ele>
        <time>2017-10-07T11:12:48Z</time>
      </trkpt>
      <trkpt lat="44.02172" lon="6.89706">
        <ele>1375.3830566406</ele>
        <time>2017-10-07T11:12:53Z</time>
      </trkpt>
      <trkpt lat="44.02179" lon="6.89708">
        <ele>1375.3830566406</ele>
        <time>2017-10-07T11:13:17Z</time>
      </trkpt>
      <trkpt lat="44.02192" lon="6.89719">
        <ele>1376.3830566406</ele>
        <time>2017-10-07T11:13:34Z</time>
      </trkpt>
      <trkpt lat="44.02189" lon="6.89728">
        <ele>1376.3830566406</ele>
        <time>2017-10-07T11:13:49Z</time>
      </trkpt>
      <trkpt lat="44.02181" lon="6.8973">
        <ele>1378.3830566406</ele>
        <time>2017-10-07T11:13:59Z</time>
      </trkpt>
      <trkpt lat="44.02174" lon="6.89734">
        <ele>1377.3830566406</ele>
        <time>2017-10-07T11:14:05Z</time>
      </trkpt>
      <trkpt lat="44.02167" lon="6.89741">
        <ele>1377.3830566406</ele>
        <time>2017-10-07T11:14:10Z</time>
      </trkpt>
      <trkpt lat="44.02156" lon="6.89755">
        <ele>1378.3830566406</ele>
        <time>2017-10-07T11:14:19Z</time>
      </trkpt>
      <trkpt lat="44.02141" lon="6.89765">
        <ele>1378.3830566406</ele>
        <time>2017-10-07T11:14:28Z</time>
      </trkpt>
      <trkpt lat="44.02133" lon="6.89763">
        <ele>1379.3830566406</ele>
        <time>2017-10-07T11:14:33Z</time>
      </trkpt>
      <trkpt lat="44.02125" lon="6.89764">
        <ele>1380.3830566406</ele>
        <time>2017-10-07T11:14:38Z</time>
      </trkpt>
      <trkpt lat="44.02119" lon="6.89769">
        <ele>1381.3830566406</ele>
        <time>2017-10-07T11:14:44Z</time>
      </trkpt>
      <trkpt lat="44.02116" lon="6.89779">
        <ele>1381.3830566406</ele>
        <time>2017-10-07T11:14:49Z</time>
      </trkpt>
      <trkpt lat="44.02108" lon="6.89796">
        <ele>1379.3830566406</ele>
        <time>2017-10-07T11:14:58Z</time>
      </trkpt>
      <trkpt lat="44.02103" lon="6.89804">
        <ele>1381.3830566406</ele>
        <time>2017-10-07T11:15:03Z</time>
      </trkpt>
      <trkpt lat="44.02099" lon="6.89813">
        <ele>1381.3830566406</ele>
        <time>2017-10-07T11:15:08Z</time>
      </trkpt>
      <trkpt lat="44.02086" lon="6.89822">
        <ele>1380.3830566406</ele>
        <time>2017-10-07T11:15:17Z</time>
      </trkpt>
      <trkpt lat="44.02083" lon="6.89832">
        <ele>1381.3830566406</ele>
        <time>2017-10-07T11:15:22Z</time>
      </trkpt>
      <trkpt lat="44.02082" lon="6.89843">
        <ele>1381.3830566406</ele>
        <time>2017-10-07T11:15:28Z</time>
      </trkpt>
      <trkpt lat="44.0208" lon="6.89853">
        <ele>1383.3830566406</ele>
        <time>2017-10-07T11:15:34Z</time>
      </trkpt>
      <trkpt lat="44.02082" lon="6.89864">
        <ele>1384.3830566406</ele>
        <time>2017-10-07T11:15:40Z</time>
      </trkpt>
      <trkpt lat="44.02086" lon="6.89871">
        <ele>1386.3830566406</ele>
        <time>2017-10-07T11:15:47Z</time>
      </trkpt>
      <trkpt lat="44.0209" lon="6.89881">
        <ele>1388.3830566406</ele>
        <time>2017-10-07T11:15:53Z</time>
      </trkpt>
      <trkpt lat="44.02095" lon="6.89889">
        <ele>1387.3830566406</ele>
        <time>2017-10-07T11:16:00Z</time>
      </trkpt>
      <trkpt lat="44.02099" lon="6.89898">
        <ele>1389.3830566406</ele>
        <time>2017-10-07T11:16:06Z</time>
      </trkpt>
      <trkpt lat="44.02102" lon="6.89908">
        <ele>1389.3830566406</ele>
        <time>2017-10-07T11:16:12Z</time>
      </trkpt>
      <trkpt lat="44.02107" lon="6.89915">
        <ele>1389.3830566406</ele>
        <time>2017-10-07T11:16:18Z</time>
      </trkpt>
      <trkpt lat="44.02114" lon="6.8992">
        <ele>1390.3830566406</ele>
        <time>2017-10-07T11:16:23Z</time>
      </trkpt>
      <trkpt lat="44.02121" lon="6.89924">
        <ele>1392.3830566406</ele>
        <time>2017-10-07T11:16:28Z</time>
      </trkpt>
      <trkpt lat="44.02129" lon="6.89929">
        <ele>1392.3830566406</ele>
        <time>2017-10-07T11:16:33Z</time>
      </trkpt>
      <trkpt lat="44.02137" lon="6.89933">
        <ele>1393.3830566406</ele>
        <time>2017-10-07T11:16:38Z</time>
      </trkpt>
      <trkpt lat="44.02138" lon="6.89944">
        <ele>1392.3830566406</ele>
        <time>2017-10-07T11:16:43Z</time>
      </trkpt>
      <trkpt lat="44.02131" lon="6.89947">
        <ele>1393.3830566406</ele>
        <time>2017-10-07T11:16:49Z</time>
      </trkpt>
      <trkpt lat="44.02123" lon="6.89952">
        <ele>1392.3830566406</ele>
        <time>2017-10-07T11:16:55Z</time>
      </trkpt>
      <trkpt lat="44.02109" lon="6.89959">
        <ele>1395.3830566406</ele>
        <time>2017-10-07T11:17:04Z</time>
      </trkpt>
      <trkpt lat="44.02102" lon="6.89963">
        <ele>1397.3830566406</ele>
        <time>2017-10-07T11:17:09Z</time>
      </trkpt>
      <trkpt lat="44.02095" lon="6.89966">
        <ele>1397.3830566406</ele>
        <time>2017-10-07T11:17:14Z</time>
      </trkpt>
      <trkpt lat="44.02087" lon="6.89967">
        <ele>1398.3830566406</ele>
        <time>2017-10-07T11:17:20Z</time>
      </trkpt>
      <trkpt lat="44.02079" lon="6.89966">
        <ele>1398.3830566406</ele>
        <time>2017-10-07T11:17:25Z</time>
      </trkpt>
      <trkpt lat="44.02071" lon="6.89961">
        <ele>1398.3830566406</ele>
        <time>2017-10-07T11:17:30Z</time>
      </trkpt>
      <trkpt lat="44.02063" lon="6.89957">
        <ele>1398.3830566406</ele>
        <time>2017-10-07T11:17:35Z</time>
      </trkpt>
      <trkpt lat="44.02054" lon="6.89957">
        <ele>1399.3830566406</ele>
        <time>2017-10-07T11:17:41Z</time>
      </trkpt>
      <trkpt lat="44.02046" lon="6.8996">
        <ele>1401.3830566406</ele>
        <time>2017-10-07T11:17:47Z</time>
      </trkpt>
      <trkpt lat="44.02041" lon="6.8997">
        <ele>1400.3830566406</ele>
        <time>2017-10-07T11:17:53Z</time>
      </trkpt>
      <trkpt lat="44.02038" lon="6.8998">
        <ele>1400.3830566406</ele>
        <time>2017-10-07T11:17:58Z</time>
      </trkpt>
      <trkpt lat="44.02037" lon="6.89991">
        <ele>1402.3830566406</ele>
        <time>2017-10-07T11:18:04Z</time>
      </trkpt>
      <trkpt lat="44.02033" lon="6.90001">
        <ele>1404.3830566406</ele>
        <time>2017-10-07T11:18:10Z</time>
      </trkpt>
      <trkpt lat="44.02029" lon="6.90009">
        <ele>1405.3830566406</ele>
        <time>2017-10-07T11:18:16Z</time>
      </trkpt>
      <trkpt lat="44.02025" lon="6.90017">
        <ele>1405.3830566406</ele>
        <time>2017-10-07T11:18:21Z</time>
      </trkpt>
      <trkpt lat="44.02016" lon="6.90036">
        <ele>1403.3830566406</ele>
        <time>2017-10-07T11:18:30Z</time>
      </trkpt>
      <trkpt lat="44.02013" lon="6.90048">
        <ele>1404.3830566406</ele>
        <time>2017-10-07T11:18:35Z</time>
      </trkpt>
      <trkpt lat="44.02012" lon="6.90058">
        <ele>1406.3830566406</ele>
        <time>2017-10-07T11:18:40Z</time>
      </trkpt>
      <trkpt lat="44.02018" lon="6.90065">
        <ele>1408.3830566406</ele>
        <time>2017-10-07T11:19:52Z</time>
      </trkpt>
      <trkpt lat="44.02031" lon="6.90057">
        <ele>1410.3830566406</ele>
        <time>2017-10-07T11:20:00Z</time>
      </trkpt>
      <trkpt lat="44.02046" lon="6.90049">
        <ele>1409.3830566406</ele>
        <time>2017-10-07T11:20:07Z</time>
      </trkpt>
      <trkpt lat="44.02061" lon="6.90042">
        <ele>1410.3830566406</ele>
        <time>2017-10-07T11:20:13Z</time>
      </trkpt>
      <trkpt lat="44.02075" lon="6.90053">
        <ele>1408.3830566406</ele>
        <time>2017-10-07T11:20:19Z</time>
      </trkpt>
      <trkpt lat="44.02091" lon="6.90053">
        <ele>1410.3830566406</ele>
        <time>2017-10-07T11:20:27Z</time>
      </trkpt>
      <trkpt lat="44.02098" lon="6.90052">
        <ele>1412.3830566406</ele>
        <time>2017-10-07T11:20:32Z</time>
      </trkpt>
      <trkpt lat="44.02107" lon="6.90049">
        <ele>1413.3830566406</ele>
        <time>2017-10-07T11:20:37Z</time>
      </trkpt>
      <trkpt lat="44.02121" lon="6.90047">
        <ele>1416.3830566406</ele>
        <time>2017-10-07T11:20:45Z</time>
      </trkpt>
      <trkpt lat="44.02128" lon="6.90048">
        <ele>1417.3830566406</ele>
        <time>2017-10-07T11:20:50Z</time>
      </trkpt>
      <trkpt lat="44.02133" lon="6.90056">
        <ele>1417.3830566406</ele>
        <time>2017-10-07T11:20:56Z</time>
      </trkpt>
      <trkpt lat="44.02141" lon="6.90059">
        <ele>1415.3830566406</ele>
        <time>2017-10-07T11:21:02Z</time>
      </trkpt>
      <trkpt lat="44.02149" lon="6.90063">
        <ele>1418.3830566406</ele>
        <time>2017-10-07T11:21:08Z</time>
      </trkpt>
      <trkpt lat="44.02156" lon="6.90067">
        <ele>1419.3830566406</ele>
        <time>2017-10-07T11:21:13Z</time>
      </trkpt>
      <trkpt lat="44.02163" lon="6.90072">
        <ele>1421.3830566406</ele>
        <time>2017-10-07T11:21:20Z</time>
      </trkpt>
      <trkpt lat="44.0217" lon="6.90075">
        <ele>1421.3840332031</ele>
        <time>2017-10-07T11:21:30Z</time>
      </trkpt>
      <trkpt lat="44.02178" lon="6.90076">
        <ele>1421.3840332031</ele>
        <time>2017-10-07T11:21:38Z</time>
      </trkpt>
      <trkpt lat="44.02185" lon="6.90078">
        <ele>1422.3840332031</ele>
        <time>2017-10-07T11:21:47Z</time>
      </trkpt>
      <trkpt lat="44.02193" lon="6.90078">
        <ele>1423.3840332031</ele>
        <time>2017-10-07T11:21:55Z</time>
      </trkpt>
      <trkpt lat="44.02197" lon="6.90087">
        <ele>1426.3840332031</ele>
        <time>2017-10-07T11:22:05Z</time>
      </trkpt>
      <trkpt lat="44.02205" lon="6.90091">
        <ele>1425.3840332031</ele>
        <time>2017-10-07T11:22:16Z</time>
      </trkpt>
      <trkpt lat="44.02209" lon="6.901">
        <ele>1426.3840332031</ele>
        <time>2017-10-07T11:22:21Z</time>
      </trkpt>
      <trkpt lat="44.02216" lon="6.90105">
        <ele>1425.3840332031</ele>
        <time>2017-10-07T11:22:27Z</time>
      </trkpt>
      <trkpt lat="44.02232" lon="6.90093">
        <ele>1425.3840332031</ele>
        <time>2017-10-07T11:22:34Z</time>
      </trkpt>
      <trkpt lat="44.02245" lon="6.90082">
        <ele>1426.3840332031</ele>
        <time>2017-10-07T11:22:41Z</time>
      </trkpt>
      <trkpt lat="44.02261" lon="6.90089">
        <ele>1427.3840332031</ele>
        <time>2017-10-07T11:22:48Z</time>
      </trkpt>
      <trkpt lat="44.02265" lon="6.90109">
        <ele>1426.3840332031</ele>
        <time>2017-10-07T11:22:55Z</time>
      </trkpt>
      <trkpt lat="44.02264" lon="6.90131">
        <ele>1426.3840332031</ele>
        <time>2017-10-07T11:23:02Z</time>
      </trkpt>
      <trkpt lat="44.02269" lon="6.90153">
        <ele>1428.3840332031</ele>
        <time>2017-10-07T11:23:10Z</time>
      </trkpt>
      <trkpt lat="44.02272" lon="6.90176">
        <ele>1428.3840332031</ele>
        <time>2017-10-07T11:23:17Z</time>
      </trkpt>
      <trkpt lat="44.02275" lon="6.90198">
        <ele>1430.3840332031</ele>
        <time>2017-10-07T11:23:26Z</time>
      </trkpt>
      <trkpt lat="44.02276" lon="6.90219">
        <ele>1432.3840332031</ele>
        <time>2017-10-07T11:23:34Z</time>
      </trkpt>
      <trkpt lat="44.02277" lon="6.90231">
        <ele>1432.3840332031</ele>
        <time>2017-10-07T11:23:40Z</time>
      </trkpt>
      <trkpt lat="44.02279" lon="6.90241">
        <ele>1433.3840332031</ele>
        <time>2017-10-07T11:23:45Z</time>
      </trkpt>
      <trkpt lat="44.02281" lon="6.90251">
        <ele>1435.3840332031</ele>
        <time>2017-10-07T11:23:50Z</time>
      </trkpt>
      <trkpt lat="44.02288" lon="6.90254">
        <ele>1436.3840332031</ele>
        <time>2017-10-07T11:24:14Z</time>
      </trkpt>
      <trkpt lat="44.02301" lon="6.90242">
        <ele>1434.3840332031</ele>
        <time>2017-10-07T11:24:20Z</time>
      </trkpt>
      <trkpt lat="44.02313" lon="6.90228">
        <ele>1432.3840332031</ele>
        <time>2017-10-07T11:24:26Z</time>
      </trkpt>
      <trkpt lat="44.02324" lon="6.90215">
        <ele>1431.3840332031</ele>
        <time>2017-10-07T11:24:35Z</time>
      </trkpt>
      <trkpt lat="44.02329" lon="6.90207">
        <ele>1430.3840332031</ele>
        <time>2017-10-07T11:24:40Z</time>
      </trkpt>
      <trkpt lat="44.02336" lon="6.90202">
        <ele>1429.3840332031</ele>
        <time>2017-10-07T11:24:52Z</time>
      </trkpt>
      <trkpt lat="44.02343" lon="6.90197">
        <ele>1430.3840332031</ele>
        <time>2017-10-07T11:25:02Z</time>
      </trkpt>
      <trkpt lat="44.0235" lon="6.90197">
        <ele>1429.3840332031</ele>
        <time>2017-10-07T11:25:12Z</time>
      </trkpt>
      <trkpt lat="44.02356" lon="6.90206">
        <ele>1429.3840332031</ele>
        <time>2017-10-07T11:25:17Z</time>
      </trkpt>
      <trkpt lat="44.02371" lon="6.90215">
        <ele>1426.3840332031</ele>
        <time>2017-10-07T11:25:24Z</time>
      </trkpt>
      <trkpt lat="44.02387" lon="6.90221">
        <ele>1425.3840332031</ele>
        <time>2017-10-07T11:25:30Z</time>
      </trkpt>
      <trkpt lat="44.02395" lon="6.90227">
        <ele>1424.3840332031</ele>
        <time>2017-10-07T11:26:17Z</time>
      </trkpt>
      <trkpt lat="44.02393" lon="6.90237">
        <ele>1423.3840332031</ele>
        <time>2017-10-07T11:26:25Z</time>
      </trkpt>
      <trkpt lat="44.02388" lon="6.90247">
        <ele>1424.3840332031</ele>
        <time>2017-10-07T11:26:32Z</time>
      </trkpt>
      <trkpt lat="44.02379" lon="6.90247">
        <ele>1424.3840332031</ele>
        <time>2017-10-07T11:26:38Z</time>
      </trkpt>
      <trkpt lat="44.02378" lon="6.9027">
        <ele>1421.3840332031</ele>
        <time>2017-10-07T11:26:44Z</time>
      </trkpt>
      <trkpt lat="44.02384" lon="6.90291">
        <ele>1418.3840332031</ele>
        <time>2017-10-07T11:26:50Z</time>
      </trkpt>
      <trkpt lat="44.02395" lon="6.90307">
        <ele>1417.3840332031</ele>
        <time>2017-10-07T11:26:56Z</time>
      </trkpt>
      <trkpt lat="44.024" lon="6.90314">
        <ele>1415.3840332031</ele>
        <time>2017-10-07T11:27:01Z</time>
      </trkpt>
      <trkpt lat="44.02406" lon="6.90321">
        <ele>1414.3840332031</ele>
        <time>2017-10-07T11:27:12Z</time>
      </trkpt>
      <trkpt lat="44.02407" lon="6.90332">
        <ele>1413.3840332031</ele>
        <time>2017-10-07T11:27:17Z</time>
      </trkpt>
      <trkpt lat="44.02406" lon="6.90343">
        <ele>1415.3840332031</ele>
        <time>2017-10-07T11:27:27Z</time>
      </trkpt>
      <trkpt lat="44.02405" lon="6.90353">
        <ele>1415.3840332031</ele>
        <time>2017-10-07T11:27:36Z</time>
      </trkpt>
      <trkpt lat="44.02406" lon="6.90363">
        <ele>1412.3840332031</ele>
        <time>2017-10-07T11:27:43Z</time>
      </trkpt>
      <trkpt lat="44.02408" lon="6.90374">
        <ele>1414.3840332031</ele>
        <time>2017-10-07T11:27:53Z</time>
      </trkpt>
      <trkpt lat="44.02409" lon="6.90384">
        <ele>1414.3850097656</ele>
        <time>2017-10-07T11:28:00Z</time>
      </trkpt>
      <trkpt lat="44.02421" lon="6.90395">
        <ele>1413.3850097656</ele>
        <time>2017-10-07T11:28:06Z</time>
      </trkpt>
      <trkpt lat="44.0243" lon="6.90396">
        <ele>1412.3850097656</ele>
        <time>2017-10-07T11:28:51Z</time>
      </trkpt>
      <trkpt lat="44.02439" lon="6.90379">
        <ele>1409.3850097656</ele>
        <time>2017-10-07T11:29:02Z</time>
      </trkpt>
      <trkpt lat="44.02451" lon="6.90367">
        <ele>1410.3850097656</ele>
        <time>2017-10-07T11:29:08Z</time>
      </trkpt>
      <trkpt lat="44.02467" lon="6.90355">
        <ele>1406.3850097656</ele>
        <time>2017-10-07T11:29:15Z</time>
      </trkpt>
      <trkpt lat="44.02477" lon="6.9035">
        <ele>1405.3850097656</ele>
        <time>2017-10-07T11:29:18Z</time>
      </trkpt>
      <trkpt lat="44.02493" lon="6.9034">
        <ele>1403.3850097656</ele>
        <time>2017-10-07T11:29:23Z</time>
      </trkpt>
      <trkpt lat="44.02504" lon="6.90321">
        <ele>1399.3850097656</ele>
        <time>2017-10-07T11:29:29Z</time>
      </trkpt>
      <trkpt lat="44.02519" lon="6.90299">
        <ele>1396.3850097656</ele>
        <time>2017-10-07T11:29:35Z</time>
      </trkpt>
      <trkpt lat="44.0254" lon="6.90281">
        <ele>1392.3840332031</ele>
        <time>2017-10-07T11:29:41Z</time>
      </trkpt>
      <trkpt lat="44.02555" lon="6.90272">
        <ele>1390.3850097656</ele>
        <time>2017-10-07T11:29:46Z</time>
      </trkpt>
      <trkpt lat="44.0257" lon="6.90257">
        <ele>1385.3840332031</ele>
        <time>2017-10-07T11:29:51Z</time>
      </trkpt>
      <trkpt lat="44.02587" lon="6.90227">
        <ele>1377.3840332031</ele>
        <time>2017-10-07T11:29:57Z</time>
      </trkpt>
      <trkpt lat="44.02606" lon="6.90224">
        <ele>1369.3840332031</ele>
        <time>2017-10-07T11:30:25Z</time>
      </trkpt>
      <trkpt lat="44.02606" lon="6.90234">
        <ele>1367.3850097656</ele>
        <time>2017-10-07T11:30:33Z</time>
      </trkpt>
      <trkpt lat="44.02608" lon="6.90244">
        <ele>1370.3850097656</ele>
        <time>2017-10-07T11:30:41Z</time>
      </trkpt>
      <trkpt lat="44.02607" lon="6.90269">
        <ele>1369.3850097656</ele>
        <time>2017-10-07T11:30:48Z</time>
      </trkpt>
      <trkpt lat="44.02602" lon="6.90289">
        <ele>1375.3850097656</ele>
        <time>2017-10-07T11:31:01Z</time>
      </trkpt>
      <trkpt lat="44.02598" lon="6.90298">
        <ele>1376.3850097656</ele>
        <time>2017-10-07T11:31:11Z</time>
      </trkpt>
      <trkpt lat="44.02593" lon="6.90306">
        <ele>1379.3850097656</ele>
        <time>2017-10-07T11:31:20Z</time>
      </trkpt>
      <trkpt lat="44.02589" lon="6.90315">
        <ele>1379.3850097656</ele>
        <time>2017-10-07T11:31:32Z</time>
      </trkpt>
      <trkpt lat="44.0259" lon="6.90327">
        <ele>1375.3850097656</ele>
        <time>2017-10-07T11:31:40Z</time>
      </trkpt>
      <trkpt lat="44.02588" lon="6.90337">
        <ele>1375.3850097656</ele>
        <time>2017-10-07T11:31:51Z</time>
      </trkpt>
      <trkpt lat="44.02581" lon="6.90343">
        <ele>1372.3850097656</ele>
        <time>2017-10-07T11:32:00Z</time>
      </trkpt>
      <trkpt lat="44.02579" lon="6.90353">
        <ele>1373.3850097656</ele>
        <time>2017-10-07T11:32:08Z</time>
      </trkpt>
      <trkpt lat="44.02578" lon="6.90364">
        <ele>1375.3850097656</ele>
        <time>2017-10-07T11:32:18Z</time>
      </trkpt>
      <trkpt lat="44.02575" lon="6.90375">
        <ele>1370.3850097656</ele>
        <time>2017-10-07T11:32:24Z</time>
      </trkpt>
      <trkpt lat="44.02572" lon="6.90386">
        <ele>1369.3850097656</ele>
        <time>2017-10-07T11:32:29Z</time>
      </trkpt>
      <trkpt lat="44.02569" lon="6.90396">
        <ele>1371.3850097656</ele>
        <time>2017-10-07T11:32:35Z</time>
      </trkpt>
      <trkpt lat="44.02566" lon="6.9041">
        <ele>1371.3850097656</ele>
        <time>2017-10-07T11:32:41Z</time>
      </trkpt>
      <trkpt lat="44.0256" lon="6.9043">
        <ele>1369.3850097656</ele>
        <time>2017-10-07T11:32:49Z</time>
      </trkpt>
      <trkpt lat="44.02557" lon="6.90439">
        <ele>1367.3850097656</ele>
        <time>2017-10-07T11:32:55Z</time>
      </trkpt>
      <trkpt lat="44.02549" lon="6.90456">
        <ele>1367.3850097656</ele>
        <time>2017-10-07T11:33:09Z</time>
      </trkpt>
      <trkpt lat="44.02542" lon="6.9046">
        <ele>1363.3850097656</ele>
        <time>2017-10-07T11:33:17Z</time>
      </trkpt>
      <trkpt lat="44.02539" lon="6.90471">
        <ele>1363.3850097656</ele>
        <time>2017-10-07T11:33:24Z</time>
      </trkpt>
      <trkpt lat="44.02534" lon="6.90479">
        <ele>1362.3850097656</ele>
        <time>2017-10-07T11:33:31Z</time>
      </trkpt>
      <trkpt lat="44.0253" lon="6.90489">
        <ele>1362.3850097656</ele>
        <time>2017-10-07T11:33:39Z</time>
      </trkpt>
      <trkpt lat="44.02528" lon="6.90499">
        <ele>1364.3850097656</ele>
        <time>2017-10-07T11:33:51Z</time>
      </trkpt>
      <trkpt lat="44.02524" lon="6.9051">
        <ele>1367.3850097656</ele>
        <time>2017-10-07T11:34:02Z</time>
      </trkpt>
      <trkpt lat="44.02521" lon="6.9052">
        <ele>1365.3850097656</ele>
        <time>2017-10-07T11:34:07Z</time>
      </trkpt>
      <trkpt lat="44.02516" lon="6.90529">
        <ele>1366.3850097656</ele>
        <time>2017-10-07T11:34:17Z</time>
      </trkpt>
      <trkpt lat="44.02513" lon="6.90539">
        <ele>1367.3850097656</ele>
        <time>2017-10-07T11:34:24Z</time>
      </trkpt>
      <trkpt lat="44.02512" lon="6.90551">
        <ele>1367.3850097656</ele>
        <time>2017-10-07T11:34:28Z</time>
      </trkpt>
      <trkpt lat="44.02508" lon="6.90572">
        <ele>1365.3850097656</ele>
        <time>2017-10-07T11:34:35Z</time>
      </trkpt>
      <trkpt lat="44.025" lon="6.90578">
        <ele>1366.3850097656</ele>
        <time>2017-10-07T11:34:40Z</time>
      </trkpt>
      <trkpt lat="44.02496" lon="6.90589">
        <ele>1364.3850097656</ele>
        <time>2017-10-07T11:34:45Z</time>
      </trkpt>
      <trkpt lat="44.02485" lon="6.90605">
        <ele>1367.3850097656</ele>
        <time>2017-10-07T11:34:53Z</time>
      </trkpt>
      <trkpt lat="44.02481" lon="6.90616">
        <ele>1367.3850097656</ele>
        <time>2017-10-07T11:34:58Z</time>
      </trkpt>
      <trkpt lat="44.02478" lon="6.90625">
        <ele>1366.3850097656</ele>
        <time>2017-10-07T11:35:03Z</time>
      </trkpt>
      <trkpt lat="44.02474" lon="6.90645">
        <ele>1361.3850097656</ele>
        <time>2017-10-07T11:35:10Z</time>
      </trkpt>
      <trkpt lat="44.02466" lon="6.90664">
        <ele>1359.3850097656</ele>
        <time>2017-10-07T11:35:17Z</time>
      </trkpt>
      <trkpt lat="44.02464" lon="6.90677">
        <ele>1359.3850097656</ele>
        <time>2017-10-07T11:35:23Z</time>
      </trkpt>
      <trkpt lat="44.02469" lon="6.90696">
        <ele>1361.3850097656</ele>
        <time>2017-10-07T11:35:33Z</time>
      </trkpt>
      <trkpt lat="44.02485" lon="6.90692">
        <ele>1361.3850097656</ele>
        <time>2017-10-07T11:35:40Z</time>
      </trkpt>
      <trkpt lat="44.02502" lon="6.90698">
        <ele>1362.3850097656</ele>
        <time>2017-10-07T11:35:48Z</time>
      </trkpt>
      <trkpt lat="44.02518" lon="6.90701">
        <ele>1362.3850097656</ele>
        <time>2017-10-07T11:36:07Z</time>
      </trkpt>
      <trkpt lat="44.02525" lon="6.90704">
        <ele>1363.3850097656</ele>
        <time>2017-10-07T11:36:30Z</time>
      </trkpt>
      <trkpt lat="44.02519" lon="6.90712">
        <ele>1368.3850097656</ele>
        <time>2017-10-07T11:37:51Z</time>
      </trkpt>
      <trkpt lat="44.02512" lon="6.90717">
        <ele>1370.3850097656</ele>
        <time>2017-10-07T11:38:00Z</time>
      </trkpt>
      <trkpt lat="44.02508" lon="6.90725">
        <ele>1370.3850097656</ele>
        <time>2017-10-07T11:38:13Z</time>
      </trkpt>
      <trkpt lat="44.02501" lon="6.90733">
        <ele>1371.3850097656</ele>
        <time>2017-10-07T11:38:24Z</time>
      </trkpt>
      <trkpt lat="44.02495" lon="6.90742">
        <ele>1373.3850097656</ele>
        <time>2017-10-07T11:38:29Z</time>
      </trkpt>
      <trkpt lat="44.02487" lon="6.90759">
        <ele>1375.3850097656</ele>
        <time>2017-10-07T11:38:42Z</time>
      </trkpt>
      <trkpt lat="44.02482" lon="6.90767">
        <ele>1376.3850097656</ele>
        <time>2017-10-07T11:38:48Z</time>
      </trkpt>
      <trkpt lat="44.02478" lon="6.90775">
        <ele>1377.3850097656</ele>
        <time>2017-10-07T11:38:57Z</time>
      </trkpt>
      <trkpt lat="44.02472" lon="6.90781">
        <ele>1375.3850097656</ele>
        <time>2017-10-07T11:39:06Z</time>
      </trkpt>
      <trkpt lat="44.02466" lon="6.90787">
        <ele>1375.3850097656</ele>
        <time>2017-10-07T11:39:13Z</time>
      </trkpt>
      <trkpt lat="44.02463" lon="6.90796">
        <ele>1375.3850097656</ele>
        <time>2017-10-07T11:39:22Z</time>
      </trkpt>
      <trkpt lat="44.02457" lon="6.90804">
        <ele>1377.3850097656</ele>
        <time>2017-10-07T11:39:29Z</time>
      </trkpt>
      <trkpt lat="44.0245" lon="6.9081">
        <ele>1381.3850097656</ele>
        <time>2017-10-07T11:39:38Z</time>
      </trkpt>
      <trkpt lat="44.02445" lon="6.90818">
        <ele>1380.3850097656</ele>
        <time>2017-10-07T11:39:43Z</time>
      </trkpt>
      <trkpt lat="44.02442" lon="6.90828">
        <ele>1380.3850097656</ele>
        <time>2017-10-07T11:39:50Z</time>
      </trkpt>
      <trkpt lat="44.02437" lon="6.90837">
        <ele>1377.3850097656</ele>
        <time>2017-10-07T11:40:02Z</time>
      </trkpt>
      <trkpt lat="44.02432" lon="6.90844">
        <ele>1374.3850097656</ele>
        <time>2017-10-07T11:40:09Z</time>
      </trkpt>
      <trkpt lat="44.02429" lon="6.90857">
        <ele>1373.3850097656</ele>
        <time>2017-10-07T11:40:19Z</time>
      </trkpt>
      <trkpt lat="44.02425" lon="6.90865">
        <ele>1375.3850097656</ele>
        <time>2017-10-07T11:40:28Z</time>
      </trkpt>
      <trkpt lat="44.02417" lon="6.90866">
        <ele>1380.3850097656</ele>
        <time>2017-10-07T11:40:45Z</time>
      </trkpt>
      <trkpt lat="44.02409" lon="6.9087">
        <ele>1382.3850097656</ele>
        <time>2017-10-07T11:40:51Z</time>
      </trkpt>
      <trkpt lat="44.02401" lon="6.90875">
        <ele>1382.3850097656</ele>
        <time>2017-10-07T11:40:59Z</time>
      </trkpt>
      <trkpt lat="44.02396" lon="6.90882">
        <ele>1383.3850097656</ele>
        <time>2017-10-07T11:41:08Z</time>
      </trkpt>
      <trkpt lat="44.0239" lon="6.90888">
        <ele>1398.3850097656</ele>
        <time>2017-10-07T11:41:17Z</time>
      </trkpt>
      <trkpt lat="44.02385" lon="6.90895">
        <ele>1385.3850097656</ele>
        <time>2017-10-07T11:41:28Z</time>
      </trkpt>
      <trkpt lat="44.02378" lon="6.90901">
        <ele>1386.3850097656</ele>
        <time>2017-10-07T11:41:43Z</time>
      </trkpt>
      <trkpt lat="44.02371" lon="6.90901">
        <ele>1384.3850097656</ele>
        <time>2017-10-07T11:41:54Z</time>
      </trkpt>
      <trkpt lat="44.02363" lon="6.90902">
        <ele>1384.3850097656</ele>
        <time>2017-10-07T11:42:14Z</time>
      </trkpt>
      <trkpt lat="44.02356" lon="6.90901">
        <ele>1384.3850097656</ele>
        <time>2017-10-07T11:42:19Z</time>
      </trkpt>
      <trkpt lat="44.02349" lon="6.90907">
        <ele>1382.3850097656</ele>
        <time>2017-10-07T11:42:27Z</time>
      </trkpt>
      <trkpt lat="44.02342" lon="6.90902">
        <ele>1382.3850097656</ele>
        <time>2017-10-07T11:42:34Z</time>
      </trkpt>
      <trkpt lat="44.02335" lon="6.90904">
        <ele>1382.3850097656</ele>
        <time>2017-10-07T11:42:42Z</time>
      </trkpt>
      <trkpt lat="44.02328" lon="6.90908">
        <ele>1383.3850097656</ele>
        <time>2017-10-07T11:42:52Z</time>
      </trkpt>
      <trkpt lat="44.02323" lon="6.90915">
        <ele>1383.3850097656</ele>
        <time>2017-10-07T11:42:59Z</time>
      </trkpt>
      <trkpt lat="44.02316" lon="6.90921">
        <ele>1385.3850097656</ele>
        <time>2017-10-07T11:43:09Z</time>
      </trkpt>
      <trkpt lat="44.02311" lon="6.90929">
        <ele>1387.3850097656</ele>
        <time>2017-10-07T11:43:25Z</time>
      </trkpt>
      <trkpt lat="44.02306" lon="6.90937">
        <ele>1387.3850097656</ele>
        <time>2017-10-07T11:43:33Z</time>
      </trkpt>
      <trkpt lat="44.02299" lon="6.90936">
        <ele>1393.3850097656</ele>
        <time>2017-10-07T11:43:43Z</time>
      </trkpt>
      <trkpt lat="44.02293" lon="6.90929">
        <ele>1399.3850097656</ele>
        <time>2017-10-07T11:43:59Z</time>
      </trkpt>
      <trkpt lat="44.0229" lon="6.90919">
        <ele>1404.3850097656</ele>
        <time>2017-10-07T11:44:08Z</time>
      </trkpt>
      <trkpt lat="44.02285" lon="6.90912">
        <ele>1406.3850097656</ele>
        <time>2017-10-07T11:44:15Z</time>
      </trkpt>
      <trkpt lat="44.0228" lon="6.90903">
        <ele>1408.3850097656</ele>
        <time>2017-10-07T11:44:27Z</time>
      </trkpt>
      <trkpt lat="44.02277" lon="6.90894">
        <ele>1410.3850097656</ele>
        <time>2017-10-07T11:44:36Z</time>
      </trkpt>
      <trkpt lat="44.02276" lon="6.90883">
        <ele>1407.3850097656</ele>
        <time>2017-10-07T11:44:46Z</time>
      </trkpt>
      <trkpt lat="44.02273" lon="6.90874">
        <ele>1411.3850097656</ele>
        <time>2017-10-07T11:45:00Z</time>
      </trkpt>
      <trkpt lat="44.02272" lon="6.90863">
        <ele>1413.3850097656</ele>
        <time>2017-10-07T11:45:09Z</time>
      </trkpt>
      <trkpt lat="44.02272" lon="6.90853">
        <ele>1414.3850097656</ele>
        <time>2017-10-07T11:45:18Z</time>
      </trkpt>
      <trkpt lat="44.02275" lon="6.90842">
        <ele>1416.3850097656</ele>
        <time>2017-10-07T11:45:27Z</time>
      </trkpt>
      <trkpt lat="44.02275" lon="6.90832">
        <ele>1419.3850097656</ele>
        <time>2017-10-07T11:45:38Z</time>
      </trkpt>
      <trkpt lat="44.02279" lon="6.90822">
        <ele>1419.3850097656</ele>
        <time>2017-10-07T11:45:46Z</time>
      </trkpt>
      <trkpt lat="44.02276" lon="6.90812">
        <ele>1416.3850097656</ele>
        <time>2017-10-07T11:45:57Z</time>
      </trkpt>
      <trkpt lat="44.02272" lon="6.90802">
        <ele>1416.3850097656</ele>
        <time>2017-10-07T11:46:06Z</time>
      </trkpt>
      <trkpt lat="44.02271" lon="6.90792">
        <ele>1417.3850097656</ele>
        <time>2017-10-07T11:46:16Z</time>
      </trkpt>
      <trkpt lat="44.02267" lon="6.90784">
        <ele>1419.3850097656</ele>
        <time>2017-10-07T11:46:24Z</time>
      </trkpt>
      <trkpt lat="44.0226" lon="6.90775">
        <ele>1417.3850097656</ele>
        <time>2017-10-07T11:46:30Z</time>
      </trkpt>
      <trkpt lat="44.02253" lon="6.90771">
        <ele>1415.3850097656</ele>
        <time>2017-10-07T11:46:41Z</time>
      </trkpt>
      <trkpt lat="44.02247" lon="6.90764">
        <ele>1417.3850097656</ele>
        <time>2017-10-07T11:46:48Z</time>
      </trkpt>
      <trkpt lat="44.02239" lon="6.90761">
        <ele>1419.3850097656</ele>
        <time>2017-10-07T11:46:55Z</time>
      </trkpt>
      <trkpt lat="44.02232" lon="6.90758">
        <ele>1418.3850097656</ele>
        <time>2017-10-07T11:47:01Z</time>
      </trkpt>
      <trkpt lat="44.02223" lon="6.90757">
        <ele>1419.3850097656</ele>
        <time>2017-10-07T11:47:06Z</time>
      </trkpt>
      <trkpt lat="44.02208" lon="6.90758">
        <ele>1419.3850097656</ele>
        <time>2017-10-07T11:47:12Z</time>
      </trkpt>
      <trkpt lat="44.02191" lon="6.90756">
        <ele>1417.3850097656</ele>
        <time>2017-10-07T11:47:18Z</time>
      </trkpt>
      <trkpt lat="44.02191" lon="6.90733">
        <ele>1414.3850097656</ele>
        <time>2017-10-07T11:47:23Z</time>
      </trkpt>
      <trkpt lat="44.0218" lon="6.90704">
        <ele>1411.3850097656</ele>
        <time>2017-10-07T11:47:29Z</time>
      </trkpt>
      <trkpt lat="44.02161" lon="6.90682">
        <ele>1406.3850097656</ele>
        <time>2017-10-07T11:47:35Z</time>
      </trkpt>
      <trkpt lat="44.02148" lon="6.90669">
        <ele>1403.3850097656</ele>
        <time>2017-10-07T11:47:40Z</time>
      </trkpt>
      <trkpt lat="44.02131" lon="6.90655">
        <ele>1398.3850097656</ele>
        <time>2017-10-07T11:47:46Z</time>
      </trkpt>
      <trkpt lat="44.02109" lon="6.90656">
        <ele>1397.3850097656</ele>
        <time>2017-10-07T11:47:53Z</time>
      </trkpt>
      <trkpt lat="44.02102" lon="6.9066">
        <ele>1393.3850097656</ele>
        <time>2017-10-07T11:48:46Z</time>
      </trkpt>
      <trkpt lat="44.02094" lon="6.90653">
        <ele>1394.3850097656</ele>
        <time>2017-10-07T11:49:09Z</time>
      </trkpt>
      <trkpt lat="44.02079" lon="6.90646">
        <ele>1393.3850097656</ele>
        <time>2017-10-07T11:49:17Z</time>
      </trkpt>
      <trkpt lat="44.02075" lon="6.90624">
        <ele>1391.3840332031</ele>
        <time>2017-10-07T11:49:24Z</time>
      </trkpt>
      <trkpt lat="44.02061" lon="6.90612">
        <ele>1386.3840332031</ele>
        <time>2017-10-07T11:49:29Z</time>
      </trkpt>
      <trkpt lat="44.02061" lon="6.90588">
        <ele>1384.3840332031</ele>
        <time>2017-10-07T11:49:34Z</time>
      </trkpt>
      <trkpt lat="44.02051" lon="6.90565">
        <ele>1379.3840332031</ele>
        <time>2017-10-07T11:49:39Z</time>
      </trkpt>
      <trkpt lat="44.02043" lon="6.90545">
        <ele>1370.3840332031</ele>
        <time>2017-10-07T11:52:09Z</time>
      </trkpt>
      <trkpt lat="44.0205" lon="6.9054">
        <ele>1367.3840332031</ele>
        <time>2017-10-07T11:52:18Z</time>
      </trkpt>
      <trkpt lat="44.02043" lon="6.90536">
        <ele>1367.3840332031</ele>
        <time>2017-10-07T11:52:26Z</time>
      </trkpt>
      <trkpt lat="44.02035" lon="6.9054">
        <ele>1363.3840332031</ele>
        <time>2017-10-07T11:52:45Z</time>
      </trkpt>
      <trkpt lat="44.02019" lon="6.90547">
        <ele>1361.3840332031</ele>
        <time>2017-10-07T11:52:52Z</time>
      </trkpt>
      <trkpt lat="44.02001" lon="6.90554">
        <ele>1356.3840332031</ele>
        <time>2017-10-07T11:52:58Z</time>
      </trkpt>
      <trkpt lat="44.0199" lon="6.90571">
        <ele>1354.3840332031</ele>
        <time>2017-10-07T11:53:05Z</time>
      </trkpt>
      <trkpt lat="44.01978" lon="6.90586">
        <ele>1352.3840332031</ele>
        <time>2017-10-07T11:53:16Z</time>
      </trkpt>
      <trkpt lat="44.0197" lon="6.9059">
        <ele>1350.3840332031</ele>
        <time>2017-10-07T11:53:21Z</time>
      </trkpt>
      <trkpt lat="44.01964" lon="6.90595">
        <ele>1347.3840332031</ele>
        <time>2017-10-07T11:53:29Z</time>
      </trkpt>
      <trkpt lat="44.01945" lon="6.90602">
        <ele>1342.3840332031</ele>
        <time>2017-10-07T11:53:35Z</time>
      </trkpt>
      <trkpt lat="44.01928" lon="6.90615">
        <ele>1338.3840332031</ele>
        <time>2017-10-07T11:53:41Z</time>
      </trkpt>
      <trkpt lat="44.01929" lon="6.90638">
        <ele>1335.3840332031</ele>
        <time>2017-10-07T11:53:48Z</time>
      </trkpt>
      <trkpt lat="44.01927" lon="6.90672">
        <ele>1333.3840332031</ele>
        <time>2017-10-07T11:53:56Z</time>
      </trkpt>
      <trkpt lat="44.01932" lon="6.90691">
        <ele>1331.3840332031</ele>
        <time>2017-10-07T11:54:01Z</time>
      </trkpt>
      <trkpt lat="44.01924" lon="6.90688">
        <ele>1330.3840332031</ele>
        <time>2017-10-07T11:54:20Z</time>
      </trkpt>
      <trkpt lat="44.01917" lon="6.90687">
        <ele>1329.3840332031</ele>
        <time>2017-10-07T11:54:38Z</time>
      </trkpt>
      <trkpt lat="44.01904" lon="6.90675">
        <ele>1330.3840332031</ele>
        <time>2017-10-07T11:54:44Z</time>
      </trkpt>
      <trkpt lat="44.01896" lon="6.90668">
        <ele>1331.3840332031</ele>
        <time>2017-10-07T11:54:49Z</time>
      </trkpt>
      <trkpt lat="44.01882" lon="6.9066">
        <ele>1329.3840332031</ele>
        <time>2017-10-07T11:54:54Z</time>
      </trkpt>
      <trkpt lat="44.01875" lon="6.90656">
        <ele>1326.3840332031</ele>
        <time>2017-10-07T11:55:08Z</time>
      </trkpt>
      <trkpt lat="44.01858" lon="6.90646">
        <ele>1319.3840332031</ele>
        <time>2017-10-07T11:55:16Z</time>
      </trkpt>
      <trkpt lat="44.01843" lon="6.90641">
        <ele>1317.3840332031</ele>
        <time>2017-10-07T11:55:22Z</time>
      </trkpt>
      <trkpt lat="44.01831" lon="6.9062">
        <ele>1315.3840332031</ele>
        <time>2017-10-07T11:55:29Z</time>
      </trkpt>
      <trkpt lat="44.01825" lon="6.90613">
        <ele>1315.3840332031</ele>
        <time>2017-10-07T11:55:33Z</time>
      </trkpt>
      <trkpt lat="44.01826" lon="6.90601">
        <ele>1317.3840332031</ele>
        <time>2017-10-07T11:55:37Z</time>
      </trkpt>
      <trkpt lat="44.01827" lon="6.90587">
        <ele>1320.3840332031</ele>
        <time>2017-10-07T11:55:42Z</time>
      </trkpt>
      <trkpt lat="44.01818" lon="6.90569">
        <ele>1317.3840332031</ele>
        <time>2017-10-07T11:55:49Z</time>
      </trkpt>
      <trkpt lat="44.01802" lon="6.90545">
        <ele>1313.3840332031</ele>
        <time>2017-10-07T11:55:55Z</time>
      </trkpt>
      <trkpt lat="44.01785" lon="6.90532">
        <ele>1307.3840332031</ele>
        <time>2017-10-07T11:56:00Z</time>
      </trkpt>
      <trkpt lat="44.01762" lon="6.90525">
        <ele>1307.3840332031</ele>
        <time>2017-10-07T11:56:07Z</time>
      </trkpt>
      <trkpt lat="44.01755" lon="6.90522">
        <ele>1307.3840332031</ele>
        <time>2017-10-07T11:56:12Z</time>
      </trkpt>
      <trkpt lat="44.01747" lon="6.90529">
        <ele>1303.3840332031</ele>
        <time>2017-10-07T11:56:43Z</time>
      </trkpt>
      <trkpt lat="44.01731" lon="6.90537">
        <ele>1303.3840332031</ele>
        <time>2017-10-07T11:56:49Z</time>
      </trkpt>
      <trkpt lat="44.01715" lon="6.90544">
        <ele>1302.3840332031</ele>
        <time>2017-10-07T11:56:56Z</time>
      </trkpt>
      <trkpt lat="44.01698" lon="6.9055">
        <ele>1302.3840332031</ele>
        <time>2017-10-07T11:57:01Z</time>
      </trkpt>
      <trkpt lat="44.01684" lon="6.90561">
        <ele>1301.3840332031</ele>
        <time>2017-10-07T11:57:06Z</time>
      </trkpt>
      <trkpt lat="44.01677" lon="6.90565">
        <ele>1299.3840332031</ele>
        <time>2017-10-07T11:57:11Z</time>
      </trkpt>
      <trkpt lat="44.01673" lon="6.90554">
        <ele>1294.3840332031</ele>
        <time>2017-10-07T11:57:26Z</time>
      </trkpt>
      <trkpt lat="44.01676" lon="6.90531">
        <ele>1291.3840332031</ele>
        <time>2017-10-07T11:57:33Z</time>
      </trkpt>
      <trkpt lat="44.0167" lon="6.90506">
        <ele>1288.3840332031</ele>
        <time>2017-10-07T11:57:39Z</time>
      </trkpt>
      <trkpt lat="44.01662" lon="6.90503">
        <ele>1288.3840332031</ele>
        <time>2017-10-07T11:57:45Z</time>
      </trkpt>
      <trkpt lat="44.01657" lon="6.90495">
        <ele>1285.3840332031</ele>
        <time>2017-10-07T11:57:56Z</time>
      </trkpt>
      <trkpt lat="44.01655" lon="6.90485">
        <ele>1282.3840332031</ele>
        <time>2017-10-07T11:58:25Z</time>
      </trkpt>
      <trkpt lat="44.01637" lon="6.90475">
        <ele>1274.3830566406</ele>
        <time>2017-10-07T11:58:32Z</time>
      </trkpt>
      <trkpt lat="44.01622" lon="6.90467">
        <ele>1273.3830566406</ele>
        <time>2017-10-07T11:58:37Z</time>
      </trkpt>
      <trkpt lat="44.01611" lon="6.90452">
        <ele>1271.3830566406</ele>
        <time>2017-10-07T11:58:42Z</time>
      </trkpt>
      <trkpt lat="44.016" lon="6.90437">
        <ele>1270.3830566406</ele>
        <time>2017-10-07T11:58:48Z</time>
      </trkpt>
      <trkpt lat="44.01584" lon="6.90429">
        <ele>1271.3830566406</ele>
        <time>2017-10-07T11:58:56Z</time>
      </trkpt>
      <trkpt lat="44.01568" lon="6.90423">
        <ele>1272.3830566406</ele>
        <time>2017-10-07T11:59:09Z</time>
      </trkpt>
      <trkpt lat="44.0156" lon="6.90423">
        <ele>1272.3830566406</ele>
        <time>2017-10-07T11:59:17Z</time>
      </trkpt>
      <trkpt lat="44.01545" lon="6.90414">
        <ele>1271.3830566406</ele>
        <time>2017-10-07T11:59:23Z</time>
      </trkpt>
      <trkpt lat="44.01538" lon="6.90413">
        <ele>1271.3830566406</ele>
        <time>2017-10-07T11:59:29Z</time>
      </trkpt>
      <trkpt lat="44.01536" lon="6.90401">
        <ele>1271.3830566406</ele>
        <time>2017-10-07T11:59:41Z</time>
      </trkpt>
      <trkpt lat="44.01535" lon="6.90381">
        <ele>1270.3830566406</ele>
        <time>2017-10-07T11:59:47Z</time>
      </trkpt>
      <trkpt lat="44.01525" lon="6.90361">
        <ele>1269.3830566406</ele>
        <time>2017-10-07T11:59:52Z</time>
      </trkpt>
      <trkpt lat="44.01514" lon="6.90346">
        <ele>1267.3830566406</ele>
        <time>2017-10-07T11:59:58Z</time>
      </trkpt>
      <trkpt lat="44.015" lon="6.90332">
        <ele>1264.3830566406</ele>
        <time>2017-10-07T12:00:04Z</time>
      </trkpt>
      <trkpt lat="44.01491" lon="6.90304">
        <ele>1267.3830566406</ele>
        <time>2017-10-07T12:00:35Z</time>
      </trkpt>
      <trkpt lat="44.01486" lon="6.90297">
        <ele>1263.3830566406</ele>
        <time>2017-10-07T12:00:47Z</time>
      </trkpt>
      <trkpt lat="44.01479" lon="6.90297">
        <ele>1262.3830566406</ele>
        <time>2017-10-07T12:01:01Z</time>
      </trkpt>
      <trkpt lat="44.01471" lon="6.90288">
        <ele>1262.3830566406</ele>
        <time>2017-10-07T12:01:07Z</time>
      </trkpt>
      <trkpt lat="44.01462" lon="6.90271">
        <ele>1260.3830566406</ele>
        <time>2017-10-07T12:01:25Z</time>
      </trkpt>
      <trkpt lat="44.01457" lon="6.90263">
        <ele>1260.3830566406</ele>
        <time>2017-10-07T12:01:30Z</time>
      </trkpt>
      <trkpt lat="44.01453" lon="6.90255">
        <ele>1258.3830566406</ele>
        <time>2017-10-07T12:01:34Z</time>
      </trkpt>
      <trkpt lat="44.01447" lon="6.90247">
        <ele>1257.3830566406</ele>
        <time>2017-10-07T12:01:40Z</time>
      </trkpt>
      <trkpt lat="44.01441" lon="6.9024">
        <ele>1259.3830566406</ele>
        <time>2017-10-07T12:01:51Z</time>
      </trkpt>
      <trkpt lat="44.01434" lon="6.90232">
        <ele>1258.3830566406</ele>
        <time>2017-10-07T12:01:57Z</time>
      </trkpt>
      <trkpt lat="44.01423" lon="6.90215">
        <ele>1257.3830566406</ele>
        <time>2017-10-07T12:02:02Z</time>
      </trkpt>
      <trkpt lat="44.01409" lon="6.90197">
        <ele>1253.3830566406</ele>
        <time>2017-10-07T12:02:07Z</time>
      </trkpt>
      <trkpt lat="44.01391" lon="6.90175">
        <ele>1251.3830566406</ele>
        <time>2017-10-07T12:02:13Z</time>
      </trkpt>
      <trkpt lat="44.01375" lon="6.90146">
        <ele>1247.3819580078</ele>
        <time>2017-10-07T12:02:19Z</time>
      </trkpt>
      <trkpt lat="44.01358" lon="6.90112">
        <ele>1243.3819580078</ele>
        <time>2017-10-07T12:02:25Z</time>
      </trkpt>
      <trkpt lat="44.01344" lon="6.90096">
        <ele>1241.3819580078</ele>
        <time>2017-10-07T12:02:30Z</time>
      </trkpt>
      <trkpt lat="44.01322" lon="6.90083">
        <ele>1239.3819580078</ele>
        <time>2017-10-07T12:02:36Z</time>
      </trkpt>
      <trkpt lat="44.01307" lon="6.90072">
        <ele>1239.3819580078</ele>
        <time>2017-10-07T12:02:42Z</time>
      </trkpt>
      <trkpt lat="44.01291" lon="6.90065">
        <ele>1237.3819580078</ele>
        <time>2017-10-07T12:02:48Z</time>
      </trkpt>
      <trkpt lat="44.01274" lon="6.90054">
        <ele>1236.3819580078</ele>
        <time>2017-10-07T12:02:54Z</time>
      </trkpt>
      <trkpt lat="44.01255" lon="6.90036">
        <ele>1237.3819580078</ele>
        <time>2017-10-07T12:03:05Z</time>
      </trkpt>
      <trkpt lat="44.01247" lon="6.90031">
        <ele>1237.3819580078</ele>
        <time>2017-10-07T12:03:10Z</time>
      </trkpt>
      <trkpt lat="44.01236" lon="6.9001">
        <ele>1236.3819580078</ele>
        <time>2017-10-07T12:03:16Z</time>
      </trkpt>
      <trkpt lat="44.01224" lon="6.89994">
        <ele>1235.3819580078</ele>
        <time>2017-10-07T12:03:21Z</time>
      </trkpt>
      <trkpt lat="44.01221" lon="6.89981">
        <ele>1235.3819580078</ele>
        <time>2017-10-07T12:03:36Z</time>
      </trkpt>
      <trkpt lat="44.01213" lon="6.89962">
        <ele>1232.3819580078</ele>
        <time>2017-10-07T12:03:46Z</time>
      </trkpt>
      <trkpt lat="44.01208" lon="6.89952">
        <ele>1232.3819580078</ele>
        <time>2017-10-07T12:03:52Z</time>
      </trkpt>
      <trkpt lat="44.01193" lon="6.89921">
        <ele>1229.3819580078</ele>
        <time>2017-10-07T12:03:58Z</time>
      </trkpt>
      <trkpt lat="44.01182" lon="6.89905">
        <ele>1229.3819580078</ele>
        <time>2017-10-07T12:04:05Z</time>
      </trkpt>
      <trkpt lat="44.0117" lon="6.89889">
        <ele>1229.3819580078</ele>
        <time>2017-10-07T12:04:10Z</time>
      </trkpt>
      <trkpt lat="44.01157" lon="6.89873">
        <ele>1228.3819580078</ele>
        <time>2017-10-07T12:04:15Z</time>
      </trkpt>
      <trkpt lat="44.01145" lon="6.89853">
        <ele>1226.3809814453</ele>
        <time>2017-10-07T12:04:22Z</time>
      </trkpt>
      <trkpt lat="44.01124" lon="6.89833">
        <ele>1223.3809814453</ele>
        <time>2017-10-07T12:04:28Z</time>
      </trkpt>
      <trkpt lat="44.01104" lon="6.89804">
        <ele>1221.3809814453</ele>
        <time>2017-10-07T12:04:34Z</time>
      </trkpt>
      <trkpt lat="44.01087" lon="6.89776">
        <ele>1221.3809814453</ele>
        <time>2017-10-07T12:04:41Z</time>
      </trkpt>
      <trkpt lat="44.01081" lon="6.8977">
        <ele>1221.3809814453</ele>
        <time>2017-10-07T12:04:57Z</time>
      </trkpt>
      <trkpt lat="44.01073" lon="6.8977">
        <ele>1220.3809814453</ele>
        <time>2017-10-07T12:05:16Z</time>
      </trkpt>
      <trkpt lat="44.01055" lon="6.89776">
        <ele>1219.3809814453</ele>
        <time>2017-10-07T12:05:23Z</time>
      </trkpt>
      <trkpt lat="44.01035" lon="6.89786">
        <ele>1219.3809814453</ele>
        <time>2017-10-07T12:05:29Z</time>
      </trkpt>
      <trkpt lat="44.01016" lon="6.89786">
        <ele>1219.3809814453</ele>
        <time>2017-10-07T12:05:34Z</time>
      </trkpt>
      <trkpt lat="44.00987" lon="6.89774">
        <ele>1214.3809814453</ele>
        <time>2017-10-07T12:05:40Z</time>
      </trkpt>
      <trkpt lat="44.00976" lon="6.8979">
        <ele>1213.3809814453</ele>
        <time>2017-10-07T12:05:45Z</time>
      </trkpt>
      <trkpt lat="44.00972" lon="6.89817">
        <ele>1210.3809814453</ele>
        <time>2017-10-07T12:05:52Z</time>
      </trkpt>
      <trkpt lat="44.00963" lon="6.89824">
        <ele>1212.3809814453</ele>
        <time>2017-10-07T12:06:08Z</time>
      </trkpt>
      <trkpt lat="44.0096" lon="6.89814">
        <ele>1210.3809814453</ele>
        <time>2017-10-07T12:06:14Z</time>
      </trkpt>
      <trkpt lat="44.00959" lon="6.89804">
        <ele>1211.3809814453</ele>
        <time>2017-10-07T12:06:22Z</time>
      </trkpt>
      <trkpt lat="44.00955" lon="6.89794">
        <ele>1213.3809814453</ele>
        <time>2017-10-07T12:06:30Z</time>
      </trkpt>
      <trkpt lat="44.00951" lon="6.89785">
        <ele>1211.3809814453</ele>
        <time>2017-10-07T12:06:39Z</time>
      </trkpt>
      <trkpt lat="44.00949" lon="6.89775">
        <ele>1212.3809814453</ele>
        <time>2017-10-07T12:06:45Z</time>
      </trkpt>
      <trkpt lat="44.00947" lon="6.89765">
        <ele>1214.3809814453</ele>
        <time>2017-10-07T12:06:52Z</time>
      </trkpt>
      <trkpt lat="44.00944" lon="6.89756">
        <ele>1216.3809814453</ele>
        <time>2017-10-07T12:06:58Z</time>
      </trkpt>
      <trkpt lat="44.00944" lon="6.89745">
        <ele>1217.3809814453</ele>
        <time>2017-10-07T12:07:05Z</time>
      </trkpt>
      <trkpt lat="44.00946" lon="6.89734">
        <ele>1218.3809814453</ele>
        <time>2017-10-07T12:07:12Z</time>
      </trkpt>
      <trkpt lat="44.00941" lon="6.89726">
        <ele>1218.3809814453</ele>
        <time>2017-10-07T12:07:18Z</time>
      </trkpt>
      <trkpt lat="44.00933" lon="6.8972">
        <ele>1214.3809814453</ele>
        <time>2017-10-07T12:07:47Z</time>
      </trkpt>
      <trkpt lat="44.00917" lon="6.89718">
        <ele>1214.3809814453</ele>
        <time>2017-10-07T12:08:20Z</time>
      </trkpt>
      <trkpt lat="44.00908" lon="6.89739">
        <ele>1213.3809814453</ele>
        <time>2017-10-07T12:08:25Z</time>
      </trkpt>
      <trkpt lat="44.00887" lon="6.89759">
        <ele>1212.3809814453</ele>
        <time>2017-10-07T12:08:31Z</time>
      </trkpt>
      <trkpt lat="44.00865" lon="6.89783">
        <ele>1211.3809814453</ele>
        <time>2017-10-07T12:08:37Z</time>
      </trkpt>
      <trkpt lat="44.00842" lon="6.89808">
        <ele>1208.3809814453</ele>
        <time>2017-10-07T12:08:43Z</time>
      </trkpt>
      <trkpt lat="44.00832" lon="6.89825">
        <ele>1209.3809814453</ele>
        <time>2017-10-07T12:08:48Z</time>
      </trkpt>
      <trkpt lat="44.00818" lon="6.89842">
        <ele>1210.3809814453</ele>
        <time>2017-10-07T12:08:56Z</time>
      </trkpt>
      <trkpt lat="44.00802" lon="6.89853">
        <ele>1210.3809814453</ele>
        <time>2017-10-07T12:09:02Z</time>
      </trkpt>
      <trkpt lat="44.00784" lon="6.89861">
        <ele>1210.3809814453</ele>
        <time>2017-10-07T12:09:08Z</time>
      </trkpt>
      <trkpt lat="44.00765" lon="6.8987">
        <ele>1210.3809814453</ele>
        <time>2017-10-07T12:09:14Z</time>
      </trkpt>
      <trkpt lat="44.00747" lon="6.89888">
        <ele>1210.3809814453</ele>
        <time>2017-10-07T12:09:20Z</time>
      </trkpt>
      <trkpt lat="44.00732" lon="6.89894">
        <ele>1209.3809814453</ele>
        <time>2017-10-07T12:09:25Z</time>
      </trkpt>
      <trkpt lat="44.00708" lon="6.89907">
        <ele>1209.3809814453</ele>
        <time>2017-10-07T12:09:32Z</time>
      </trkpt>
      <trkpt lat="44.00688" lon="6.89924">
        <ele>1208.3809814453</ele>
        <time>2017-10-07T12:09:38Z</time>
      </trkpt>
      <trkpt lat="44.00677" lon="6.8994">
        <ele>1209.3809814453</ele>
        <time>2017-10-07T12:09:43Z</time>
      </trkpt>
      <trkpt lat="44.00667" lon="6.89963">
        <ele>1209.3809814453</ele>
        <time>2017-10-07T12:09:49Z</time>
      </trkpt>
      <trkpt lat="44.00671" lon="6.89984">
        <ele>1212.3809814453</ele>
        <time>2017-10-07T12:10:07Z</time>
      </trkpt>
      <trkpt lat="44.00664" lon="6.89991">
        <ele>1211.3809814453</ele>
        <time>2017-10-07T12:10:12Z</time>
      </trkpt>
      <trkpt lat="44.00648" lon="6.89998">
        <ele>1212.3809814453</ele>
        <time>2017-10-07T12:10:19Z</time>
      </trkpt>
      <trkpt lat="44.0063" lon="6.89994">
        <ele>1210.3809814453</ele>
        <time>2017-10-07T12:10:24Z</time>
      </trkpt>
      <trkpt lat="44.00607" lon="6.90002">
        <ele>1205.3809814453</ele>
        <time>2017-10-07T12:10:31Z</time>
      </trkpt>
      <trkpt lat="44.00599" lon="6.9">
        <ele>1202.3809814453</ele>
        <time>2017-10-07T12:10:36Z</time>
      </trkpt>
      <trkpt lat="44.00582" lon="6.90005">
        <ele>1197.3809814453</ele>
        <time>2017-10-07T12:10:42Z</time>
      </trkpt>
      <trkpt lat="44.00563" lon="6.90011">
        <ele>1190.3809814453</ele>
        <time>2017-10-07T12:10:48Z</time>
      </trkpt>
      <trkpt lat="44.00544" lon="6.90017">
        <ele>1185.3809814453</ele>
        <time>2017-10-07T12:10:53Z</time>
      </trkpt>
      <trkpt lat="44.00519" lon="6.90028">
        <ele>1181.3809814453</ele>
        <time>2017-10-07T12:10:59Z</time>
      </trkpt>
      <trkpt lat="44.00512" lon="6.90013">
        <ele>1177.3809814453</ele>
        <time>2017-10-07T12:11:06Z</time>
      </trkpt>
      <trkpt lat="44.0051" lon="6.90002">
        <ele>1176.3809814453</ele>
        <time>2017-10-07T12:11:27Z</time>
      </trkpt>
      <trkpt lat="44.00495" lon="6.9001">
        <ele>1172.3809814453</ele>
        <time>2017-10-07T12:11:36Z</time>
      </trkpt>
      <trkpt lat="44.00487" lon="6.9003">
        <ele>1169.3809814453</ele>
        <time>2017-10-07T12:11:42Z</time>
      </trkpt>
      <trkpt lat="44.00479" lon="6.90031">
        <ele>1168.3809814453</ele>
        <time>2017-10-07T12:12:11Z</time>
      </trkpt>
      <trkpt lat="44.00471" lon="6.9003">
        <ele>1163.3809814453</ele>
        <time>2017-10-07T12:12:16Z</time>
      </trkpt>
      <trkpt lat="44.00457" lon="6.90043">
        <ele>1157.3809814453</ele>
        <time>2017-10-07T12:12:24Z</time>
      </trkpt>
      <trkpt lat="44.00458" lon="6.90053">
        <ele>1156.3809814453</ele>
        <time>2017-10-07T12:12:27Z</time>
      </trkpt>
      <trkpt lat="44.00449" lon="6.90067">
        <ele>1151.3809814453</ele>
        <time>2017-10-07T12:12:36Z</time>
      </trkpt>
      <trkpt lat="44.00442" lon="6.90066">
        <ele>1143.3809814453</ele>
        <time>2017-10-07T12:12:55Z</time>
      </trkpt>
      <trkpt lat="44.00436" lon="6.90074">
        <ele>1136.3809814453</ele>
        <time>2017-10-07T12:13:42Z</time>
      </trkpt>
      <trkpt lat="44.00435" lon="6.90084">
        <ele>1127.3809814453</ele>
        <time>2017-10-07T12:14:25Z</time>
      </trkpt>
      <trkpt lat="44.00428" lon="6.90079">
        <ele>1118.3809814453</ele>
        <time>2017-10-07T12:14:40Z</time>
      </trkpt>
      <trkpt lat="44.00423" lon="6.90088">
        <ele>1112.3809814453</ele>
        <time>2017-10-07T12:14:56Z</time>
      </trkpt>
      <trkpt lat="44.00421" lon="6.90098">
        <ele>1114.3809814453</ele>
        <time>2017-10-07T12:15:01Z</time>
      </trkpt>
      <trkpt lat="44.00419" lon="6.90108">
        <ele>1115.3809814453</ele>
        <time>2017-10-07T12:15:30Z</time>
      </trkpt>
      <trkpt lat="44.00417" lon="6.90118">
        <ele>1116.3809814453</ele>
        <time>2017-10-07T12:15:39Z</time>
      </trkpt>
      <trkpt lat="44.0041" lon="6.90122">
        <ele>1118.3809814453</ele>
        <time>2017-10-07T12:16:59Z</time>
      </trkpt>
      <trkpt lat="44.00406" lon="6.9013">
        <ele>1114.3809814453</ele>
        <time>2017-10-07T12:18:55Z</time>
      </trkpt>
      <trkpt lat="44.00411" lon="6.9014">
        <ele>1118.3809814453</ele>
        <time>2017-10-07T12:19:13Z</time>
      </trkpt>
      <trkpt lat="44.00418" lon="6.90144">
        <ele>1116.3809814453</ele>
        <time>2017-10-07T12:19:22Z</time>
      </trkpt>
      <trkpt lat="44.0042" lon="6.90154">
        <ele>1125.3809814453</ele>
        <time>2017-10-07T12:19:28Z</time>
      </trkpt>
      <trkpt lat="44.00431" lon="6.90165">
        <ele>1116.3809814453</ele>
        <time>2017-10-07T12:20:04Z</time>
      </trkpt>
      <trkpt lat="44.00424" lon="6.90169">
        <ele>1122.3809814453</ele>
        <time>2017-10-07T12:20:45Z</time>
      </trkpt>
      <trkpt lat="44.00418" lon="6.90162">
        <ele>1119.3809814453</ele>
        <time>2017-10-07T12:21:38Z</time>
      </trkpt>
      <trkpt lat="44.00411" lon="6.90161">
        <ele>1124.3809814453</ele>
        <time>2017-10-07T12:21:56Z</time>
      </trkpt>
      <trkpt lat="44.00404" lon="6.90162">
        <ele>1127.3809814453</ele>
        <time>2017-10-07T12:22:06Z</time>
      </trkpt>
      <trkpt lat="44.00396" lon="6.90161">
        <ele>1128.3809814453</ele>
        <time>2017-10-07T12:22:18Z</time>
      </trkpt>
      <trkpt lat="44.0039" lon="6.90155">
        <ele>1128.3809814453</ele>
        <time>2017-10-07T12:22:32Z</time>
      </trkpt>
      <trkpt lat="44.00384" lon="6.90148">
        <ele>1128.3809814453</ele>
        <time>2017-10-07T12:22:45Z</time>
      </trkpt>
      <trkpt lat="44.00379" lon="6.90139">
        <ele>1126.3809814453</ele>
        <time>2017-10-07T12:22:53Z</time>
      </trkpt>
      <trkpt lat="44.00373" lon="6.90133">
        <ele>1127.3809814453</ele>
        <time>2017-10-07T12:23:02Z</time>
      </trkpt>
      <trkpt lat="44.00367" lon="6.90129">
        <ele>1129.3809814453</ele>
        <time>2017-10-07T12:23:12Z</time>
      </trkpt>
      <trkpt lat="44.00363" lon="6.9012">
        <ele>1137.3809814453</ele>
        <time>2017-10-07T12:23:23Z</time>
      </trkpt>
      <trkpt lat="44.00367" lon="6.9011">
        <ele>1140.3809814453</ele>
        <time>2017-10-07T12:23:36Z</time>
      </trkpt>
      <trkpt lat="44.0036" lon="6.90106">
        <ele>1137.3809814453</ele>
        <time>2017-10-07T12:23:55Z</time>
      </trkpt>
      <trkpt lat="44.00353" lon="6.90102">
        <ele>1134.3809814453</ele>
        <time>2017-10-07T12:24:09Z</time>
      </trkpt>
      <trkpt lat="44.00349" lon="6.90094">
        <ele>1137.3809814453</ele>
        <time>2017-10-07T12:25:39Z</time>
      </trkpt>
      <trkpt lat="44.00341" lon="6.90098">
        <ele>1135.3809814453</ele>
        <time>2017-10-07T12:25:45Z</time>
      </trkpt>
      <trkpt lat="44.00334" lon="6.90095">
        <ele>1136.3809814453</ele>
        <time>2017-10-07T12:25:52Z</time>
      </trkpt>
      <trkpt lat="44.00327" lon="6.90096">
        <ele>1134.3809814453</ele>
        <time>2017-10-07T12:26:01Z</time>
      </trkpt>
      <trkpt lat="44.0032" lon="6.90091">
        <ele>1134.3809814453</ele>
        <time>2017-10-07T12:26:07Z</time>
      </trkpt>
      <trkpt lat="44.00304" lon="6.90077">
        <ele>1130.3809814453</ele>
        <time>2017-10-07T12:26:14Z</time>
      </trkpt>
      <trkpt lat="44.00289" lon="6.9007">
        <ele>1128.3809814453</ele>
        <time>2017-10-07T12:26:26Z</time>
      </trkpt>
      <trkpt lat="44.00273" lon="6.90073">
        <ele>1125.3809814453</ele>
        <time>2017-10-07T12:26:33Z</time>
      </trkpt>
      <trkpt lat="44.00256" lon="6.90073">
        <ele>1123.3809814453</ele>
        <time>2017-10-07T12:26:40Z</time>
      </trkpt>
      <trkpt lat="44.00245" lon="6.90055">
        <ele>1125.3800048828</ele>
        <time>2017-10-07T12:27:00Z</time>
      </trkpt>
      <trkpt lat="44.00239" lon="6.9005">
        <ele>1129.3800048828</ele>
        <time>2017-10-07T12:27:15Z</time>
      </trkpt>
      <trkpt lat="44.00233" lon="6.90044">
        <ele>1133.3800048828</ele>
        <time>2017-10-07T12:27:33Z</time>
      </trkpt>
      <trkpt lat="44.00229" lon="6.90035">
        <ele>1135.3800048828</ele>
        <time>2017-10-07T12:27:47Z</time>
      </trkpt>
      <trkpt lat="44.00232" lon="6.90025">
        <ele>1135.3800048828</ele>
        <time>2017-10-07T12:27:55Z</time>
      </trkpt>
      <trkpt lat="44.00231" lon="6.90014">
        <ele>1134.3800048828</ele>
        <time>2017-10-07T12:28:04Z</time>
      </trkpt>
      <trkpt lat="44.00233" lon="6.90003">
        <ele>1132.3800048828</ele>
        <time>2017-10-07T12:28:17Z</time>
      </trkpt>
      <trkpt lat="44.00233" lon="6.89993">
        <ele>1132.3800048828</ele>
        <time>2017-10-07T12:28:41Z</time>
      </trkpt>
      <trkpt lat="44.00233" lon="6.89982">
        <ele>1134.3800048828</ele>
        <time>2017-10-07T12:28:52Z</time>
      </trkpt>
      <trkpt lat="44.00236" lon="6.89971">
        <ele>1132.3800048828</ele>
        <time>2017-10-07T12:29:03Z</time>
      </trkpt>
      <trkpt lat="44.00234" lon="6.89962">
        <ele>1133.3800048828</ele>
        <time>2017-10-07T12:29:20Z</time>
      </trkpt>
      <trkpt lat="44.00234" lon="6.89951">
        <ele>1137.3800048828</ele>
        <time>2017-10-07T12:29:29Z</time>
      </trkpt>
      <trkpt lat="44.00229" lon="6.89943">
        <ele>1137.3800048828</ele>
        <time>2017-10-07T12:29:37Z</time>
      </trkpt>
      <trkpt lat="44.00236" lon="6.89936">
        <ele>1143.3800048828</ele>
        <time>2017-10-07T12:29:44Z</time>
      </trkpt>
      <trkpt lat="44.0024" lon="6.89928">
        <ele>1146.3800048828</ele>
        <time>2017-10-07T12:29:49Z</time>
      </trkpt>
      <trkpt lat="44.00245" lon="6.89918">
        <ele>1148.3800048828</ele>
        <time>2017-10-07T12:30:00Z</time>
      </trkpt>
      <trkpt lat="44.00244" lon="6.89908">
        <ele>1145.3800048828</ele>
        <time>2017-10-07T12:30:08Z</time>
      </trkpt>
      <trkpt lat="44.00247" lon="6.89899">
        <ele>1148.3800048828</ele>
        <time>2017-10-07T12:30:19Z</time>
      </trkpt>
      <trkpt lat="44.00252" lon="6.89891">
        <ele>1146.3800048828</ele>
        <time>2017-10-07T12:30:29Z</time>
      </trkpt>
      <trkpt lat="44.00255" lon="6.89881">
        <ele>1150.3800048828</ele>
        <time>2017-10-07T12:30:47Z</time>
      </trkpt>
      <trkpt lat="44.00258" lon="6.89871">
        <ele>1153.3800048828</ele>
        <time>2017-10-07T12:30:59Z</time>
      </trkpt>
      <trkpt lat="44.00264" lon="6.89865">
        <ele>1156.3800048828</ele>
        <time>2017-10-07T12:39:53Z</time>
      </trkpt>
      <trkpt lat="44.00257" lon="6.89861">
        <ele>1160.3800048828</ele>
        <time>2017-10-07T12:40:13Z</time>
      </trkpt>
      <trkpt lat="44.00248" lon="6.89862">
        <ele>1157.3800048828</ele>
        <time>2017-10-07T12:40:28Z</time>
      </trkpt>
      <trkpt lat="44.00242" lon="6.89855">
        <ele>1159.3800048828</ele>
        <time>2017-10-07T12:40:43Z</time>
      </trkpt>
      <trkpt lat="44.00234" lon="6.8986">
        <ele>1159.3800048828</ele>
        <time>2017-10-07T12:40:52Z</time>
      </trkpt>
      <trkpt lat="44.00231" lon="6.8987">
        <ele>1161.3800048828</ele>
        <time>2017-10-07T12:41:10Z</time>
      </trkpt>
      <trkpt lat="44.00224" lon="6.8987">
        <ele>1163.3800048828</ele>
        <time>2017-10-07T12:41:23Z</time>
      </trkpt>
      <trkpt lat="44.00216" lon="6.89868">
        <ele>1166.3800048828</ele>
        <time>2017-10-07T12:41:41Z</time>
      </trkpt>
      <trkpt lat="44.0021" lon="6.89873">
        <ele>1168.3800048828</ele>
        <time>2017-10-07T12:42:04Z</time>
      </trkpt>
      <trkpt lat="44.00203" lon="6.89876">
        <ele>1168.3800048828</ele>
        <time>2017-10-07T12:42:13Z</time>
      </trkpt>
      <trkpt lat="44.00195" lon="6.89873">
        <ele>1170.3800048828</ele>
        <time>2017-10-07T12:42:26Z</time>
      </trkpt>
      <trkpt lat="44.00188" lon="6.89878">
        <ele>1174.3800048828</ele>
        <time>2017-10-07T12:42:42Z</time>
      </trkpt>
      <trkpt lat="44.00179" lon="6.89882">
        <ele>1178.3800048828</ele>
        <time>2017-10-07T12:43:01Z</time>
      </trkpt>
      <trkpt lat="44.00172" lon="6.89884">
        <ele>1181.3800048828</ele>
        <time>2017-10-07T12:43:12Z</time>
      </trkpt>
      <trkpt lat="44.00163" lon="6.8989">
        <ele>1184.3800048828</ele>
        <time>2017-10-07T12:43:37Z</time>
      </trkpt>
      <trkpt lat="44.00156" lon="6.89893">
        <ele>1186.3800048828</ele>
        <time>2017-10-07T12:43:55Z</time>
      </trkpt>
      <trkpt lat="44.0015" lon="6.89901">
        <ele>1190.3800048828</ele>
        <time>2017-10-07T12:44:15Z</time>
      </trkpt>
      <trkpt lat="44.00142" lon="6.89904">
        <ele>1192.3800048828</ele>
        <time>2017-10-07T12:44:25Z</time>
      </trkpt>
      <trkpt lat="44.00134" lon="6.89909">
        <ele>1191.3800048828</ele>
        <time>2017-10-07T12:44:47Z</time>
      </trkpt>
      <trkpt lat="44.00125" lon="6.89909">
        <ele>1193.3800048828</ele>
        <time>2017-10-07T12:44:54Z</time>
      </trkpt>
      <trkpt lat="44.00118" lon="6.89906">
        <ele>1197.3800048828</ele>
        <time>2017-10-07T12:45:07Z</time>
      </trkpt>
      <trkpt lat="44.0011" lon="6.89909">
        <ele>1194.3800048828</ele>
        <time>2017-10-07T12:45:11Z</time>
      </trkpt>
      <trkpt lat="44.00103" lon="6.89914">
        <ele>1196.3800048828</ele>
        <time>2017-10-07T12:45:20Z</time>
      </trkpt>
      <trkpt lat="44.00106" lon="6.89924">
        <ele>1200.3800048828</ele>
        <time>2017-10-07T12:45:42Z</time>
      </trkpt>
      <trkpt lat="44.00112" lon="6.89931">
        <ele>1199.3800048828</ele>
        <time>2017-10-07T12:45:52Z</time>
      </trkpt>
      <trkpt lat="44.00117" lon="6.89939">
        <ele>1201.3800048828</ele>
        <time>2017-10-07T12:46:03Z</time>
      </trkpt>
      <trkpt lat="44.00123" lon="6.89944">
        <ele>1204.3800048828</ele>
        <time>2017-10-07T12:46:11Z</time>
      </trkpt>
      <trkpt lat="44.00119" lon="6.89953">
        <ele>1204.3800048828</ele>
        <time>2017-10-07T12:46:18Z</time>
      </trkpt>
      <trkpt lat="44.00112" lon="6.89957">
        <ele>1205.3800048828</ele>
        <time>2017-10-07T12:46:30Z</time>
      </trkpt>
      <trkpt lat="44.00105" lon="6.89954">
        <ele>1206.3800048828</ele>
        <time>2017-10-07T12:46:41Z</time>
      </trkpt>
      <trkpt lat="44.00097" lon="6.89957">
        <ele>1207.3800048828</ele>
        <time>2017-10-07T12:46:59Z</time>
      </trkpt>
      <trkpt lat="44.0009" lon="6.89961">
        <ele>1212.3800048828</ele>
        <time>2017-10-07T12:47:07Z</time>
      </trkpt>
      <trkpt lat="44.00084" lon="6.89967">
        <ele>1216.3800048828</ele>
        <time>2017-10-07T12:47:29Z</time>
      </trkpt>
      <trkpt lat="44.00077" lon="6.89971">
        <ele>1215.3800048828</ele>
        <time>2017-10-07T12:47:40Z</time>
      </trkpt>
      <trkpt lat="44.0007" lon="6.89974">
        <ele>1215.3800048828</ele>
        <time>2017-10-07T12:47:51Z</time>
      </trkpt>
      <trkpt lat="44.00064" lon="6.89983">
        <ele>1213.3800048828</ele>
        <time>2017-10-07T12:48:10Z</time>
      </trkpt>
      <trkpt lat="44.0006" lon="6.89992">
        <ele>1218.3800048828</ele>
        <time>2017-10-07T12:48:22Z</time>
      </trkpt>
      <trkpt lat="44.00054" lon="6.89997">
        <ele>1216.3800048828</ele>
        <time>2017-10-07T12:48:43Z</time>
      </trkpt>
      <trkpt lat="44.00046" lon="6.9">
        <ele>1217.3800048828</ele>
        <time>2017-10-07T12:48:55Z</time>
      </trkpt>
      <trkpt lat="44.00039" lon="6.90001">
        <ele>1222.3800048828</ele>
        <time>2017-10-07T12:49:08Z</time>
      </trkpt>
      <trkpt lat="44.00031" lon="6.89999">
        <ele>1229.3800048828</ele>
        <time>2017-10-07T12:49:37Z</time>
      </trkpt>
      <trkpt lat="44.00023" lon="6.89999">
        <ele>1233.3800048828</ele>
        <time>2017-10-07T12:49:55Z</time>
      </trkpt>
      <trkpt lat="44.00016" lon="6.89999">
        <ele>1232.3800048828</ele>
        <time>2017-10-07T12:50:04Z</time>
      </trkpt>
      <trkpt lat="44.00008" lon="6.89998">
        <ele>1237.3800048828</ele>
        <time>2017-10-07T12:50:28Z</time>
      </trkpt>
      <trkpt lat="44.00001" lon="6.90003">
        <ele>1237.3800048828</ele>
        <time>2017-10-07T12:50:38Z</time>
      </trkpt>
      <trkpt lat="43.99994" lon="6.90007">
        <ele>1238.3800048828</ele>
        <time>2017-10-07T12:50:48Z</time>
      </trkpt>
      <trkpt lat="43.99991" lon="6.90018">
        <ele>1242.3800048828</ele>
        <time>2017-10-07T12:51:03Z</time>
      </trkpt>
      <trkpt lat="43.99991" lon="6.90028">
        <ele>1248.3800048828</ele>
        <time>2017-10-07T12:51:36Z</time>
      </trkpt>
      <trkpt lat="43.99987" lon="6.90037">
        <ele>1250.3800048828</ele>
        <time>2017-10-07T12:51:49Z</time>
      </trkpt>
      <trkpt lat="43.99984" lon="6.90046">
        <ele>1250.3800048828</ele>
        <time>2017-10-07T12:51:58Z</time>
      </trkpt>
      <trkpt lat="43.99978" lon="6.90052">
        <ele>1249.3800048828</ele>
        <time>2017-10-07T12:52:10Z</time>
      </trkpt>
      <trkpt lat="43.99974" lon="6.90061">
        <ele>1247.3800048828</ele>
        <time>2017-10-07T12:52:17Z</time>
      </trkpt>
      <trkpt lat="43.99967" lon="6.90069">
        <ele>1249.3800048828</ele>
        <time>2017-10-07T12:52:29Z</time>
      </trkpt>
      <trkpt lat="43.99962" lon="6.90076">
        <ele>1252.3800048828</ele>
        <time>2017-10-07T12:52:39Z</time>
      </trkpt>
      <trkpt lat="43.99959" lon="6.90086">
        <ele>1254.3800048828</ele>
        <time>2017-10-07T12:52:58Z</time>
      </trkpt>
      <trkpt lat="43.99953" lon="6.90093">
        <ele>1257.3800048828</ele>
        <time>2017-10-07T12:53:11Z</time>
      </trkpt>
      <trkpt lat="43.99948" lon="6.901">
        <ele>1255.3800048828</ele>
        <time>2017-10-07T12:53:18Z</time>
      </trkpt>
      <trkpt lat="43.99941" lon="6.90107">
        <ele>1255.3800048828</ele>
        <time>2017-10-07T12:53:28Z</time>
      </trkpt>
      <trkpt lat="43.99935" lon="6.90113">
        <ele>1259.3800048828</ele>
        <time>2017-10-07T12:53:36Z</time>
      </trkpt>
      <trkpt lat="43.99928" lon="6.90118">
        <ele>1261.3800048828</ele>
        <time>2017-10-07T12:53:45Z</time>
      </trkpt>
      <trkpt lat="43.9992" lon="6.90118">
        <ele>1262.3800048828</ele>
        <time>2017-10-07T12:53:54Z</time>
      </trkpt>
      <trkpt lat="43.99912" lon="6.9012">
        <ele>1261.3800048828</ele>
        <time>2017-10-07T12:54:02Z</time>
      </trkpt>
      <trkpt lat="43.99905" lon="6.9012">
        <ele>1262.3800048828</ele>
        <time>2017-10-07T12:54:17Z</time>
      </trkpt>
      <trkpt lat="43.99897" lon="6.90117">
        <ele>1263.3800048828</ele>
        <time>2017-10-07T12:54:25Z</time>
      </trkpt>
      <trkpt lat="43.99888" lon="6.90112">
        <ele>1267.3800048828</ele>
        <time>2017-10-07T12:54:40Z</time>
      </trkpt>
      <trkpt lat="43.99881" lon="6.90108">
        <ele>1269.3800048828</ele>
        <time>2017-10-07T12:54:50Z</time>
      </trkpt>
      <trkpt lat="43.99873" lon="6.90108">
        <ele>1272.3800048828</ele>
        <time>2017-10-07T12:55:04Z</time>
      </trkpt>
      <trkpt lat="43.99864" lon="6.90108">
        <ele>1273.3800048828</ele>
        <time>2017-10-07T12:55:14Z</time>
      </trkpt>
      <trkpt lat="43.99857" lon="6.90106">
        <ele>1274.3800048828</ele>
        <time>2017-10-07T12:55:22Z</time>
      </trkpt>
      <trkpt lat="43.99849" lon="6.90107">
        <ele>1276.3800048828</ele>
        <time>2017-10-07T12:55:31Z</time>
      </trkpt>
      <trkpt lat="43.99841" lon="6.90109">
        <ele>1276.3800048828</ele>
        <time>2017-10-07T12:55:37Z</time>
      </trkpt>
      <trkpt lat="43.99834" lon="6.90107">
        <ele>1275.3800048828</ele>
        <time>2017-10-07T12:55:48Z</time>
      </trkpt>
      <trkpt lat="43.99826" lon="6.90105">
        <ele>1275.3800048828</ele>
        <time>2017-10-07T12:55:52Z</time>
      </trkpt>
      <trkpt lat="43.99817" lon="6.90108">
        <ele>1276.3800048828</ele>
        <time>2017-10-07T12:55:57Z</time>
      </trkpt>
      <trkpt lat="43.9981" lon="6.90104">
        <ele>1277.3800048828</ele>
        <time>2017-10-07T12:56:02Z</time>
      </trkpt>
      <trkpt lat="43.99802" lon="6.901">
        <ele>1277.3800048828</ele>
        <time>2017-10-07T12:56:09Z</time>
      </trkpt>
      <trkpt lat="43.99786" lon="6.90104">
        <ele>1279.3800048828</ele>
        <time>2017-10-07T12:56:18Z</time>
      </trkpt>
      <trkpt lat="43.99771" lon="6.90103">
        <ele>1279.3800048828</ele>
        <time>2017-10-07T12:56:26Z</time>
      </trkpt>
      <trkpt lat="43.99751" lon="6.90099">
        <ele>1280.3800048828</ele>
        <time>2017-10-07T12:56:35Z</time>
      </trkpt>
      <trkpt lat="43.99734" lon="6.90095">
        <ele>1284.3800048828</ele>
        <time>2017-10-07T12:56:43Z</time>
      </trkpt>
      <trkpt lat="43.99725" lon="6.90095">
        <ele>1284.3800048828</ele>
        <time>2017-10-07T12:56:47Z</time>
      </trkpt>
      <trkpt lat="43.9971" lon="6.90096">
        <ele>1285.3800048828</ele>
        <time>2017-10-07T12:56:53Z</time>
      </trkpt>
      <trkpt lat="43.99702" lon="6.90098">
        <ele>1286.3800048828</ele>
        <time>2017-10-07T12:56:58Z</time>
      </trkpt>
      <trkpt lat="43.99694" lon="6.90099">
        <ele>1288.3800048828</ele>
        <time>2017-10-07T12:57:03Z</time>
      </trkpt>
      <trkpt lat="43.99687" lon="6.90097">
        <ele>1288.3800048828</ele>
        <time>2017-10-07T12:57:13Z</time>
      </trkpt>
      <trkpt lat="43.9968" lon="6.90093">
        <ele>1291.3800048828</ele>
        <time>2017-10-07T12:57:46Z</time>
      </trkpt>
      <trkpt lat="43.99673" lon="6.90096">
        <ele>1291.3800048828</ele>
        <time>2017-10-07T12:57:51Z</time>
      </trkpt>
      <trkpt lat="43.99665" lon="6.90096">
        <ele>1289.3800048828</ele>
        <time>2017-10-07T12:57:57Z</time>
      </trkpt>
      <trkpt lat="43.99658" lon="6.9009">
        <ele>1290.3800048828</ele>
        <time>2017-10-07T12:58:08Z</time>
      </trkpt>
      <trkpt lat="43.9965" lon="6.90083">
        <ele>1290.3800048828</ele>
        <time>2017-10-07T12:58:22Z</time>
      </trkpt>
      <trkpt lat="43.99642" lon="6.90078">
        <ele>1286.3800048828</ele>
        <time>2017-10-07T12:58:27Z</time>
      </trkpt>
      <trkpt lat="43.99636" lon="6.90072">
        <ele>1287.3800048828</ele>
        <time>2017-10-07T12:58:37Z</time>
      </trkpt>
      <trkpt lat="43.99622" lon="6.9006">
        <ele>1290.3800048828</ele>
        <time>2017-10-07T12:58:45Z</time>
      </trkpt>
      <trkpt lat="43.99613" lon="6.90045">
        <ele>1290.3790283203</ele>
        <time>2017-10-07T12:58:50Z</time>
      </trkpt>
      <trkpt lat="43.99598" lon="6.90038">
        <ele>1292.3790283203</ele>
        <time>2017-10-07T12:58:57Z</time>
      </trkpt>
      <trkpt lat="43.99581" lon="6.90027">
        <ele>1290.3790283203</ele>
        <time>2017-10-07T12:59:03Z</time>
      </trkpt>
      <trkpt lat="43.99565" lon="6.90033">
        <ele>1289.3790283203</ele>
        <time>2017-10-07T12:59:08Z</time>
      </trkpt>
      <trkpt lat="43.99547" lon="6.90033">
        <ele>1290.3790283203</ele>
        <time>2017-10-07T12:59:14Z</time>
      </trkpt>
      <trkpt lat="43.99534" lon="6.90025">
        <ele>1286.3790283203</ele>
        <time>2017-10-07T12:59:21Z</time>
      </trkpt>
      <trkpt lat="43.99524" lon="6.90029">
        <ele>1288.3790283203</ele>
        <time>2017-10-07T12:59:26Z</time>
      </trkpt>
      <trkpt lat="43.99508" lon="6.90039">
        <ele>1289.3790283203</ele>
        <time>2017-10-07T12:59:33Z</time>
      </trkpt>
      <trkpt lat="43.99501" lon="6.90043">
        <ele>1286.3790283203</ele>
        <time>2017-10-07T12:59:36Z</time>
      </trkpt>
      <trkpt lat="43.99495" lon="6.90049">
        <ele>1289.3790283203</ele>
        <time>2017-10-07T12:59:45Z</time>
      </trkpt>
      <trkpt lat="43.9948" lon="6.9005">
        <ele>1290.3790283203</ele>
        <time>2017-10-07T13:00:03Z</time>
      </trkpt>
      <trkpt lat="43.99473" lon="6.90056">
        <ele>1290.3790283203</ele>
        <time>2017-10-07T13:00:10Z</time>
      </trkpt>
      <trkpt lat="43.99471" lon="6.90065">
        <ele>1291.3790283203</ele>
        <time>2017-10-07T13:01:03Z</time>
      </trkpt>
      <trkpt lat="43.9947" lon="6.90055">
        <ele>1287.3790283203</ele>
        <time>2017-10-07T13:02:33Z</time>
      </trkpt>
      <trkpt lat="43.99465" lon="6.90064">
        <ele>1285.3790283203</ele>
        <time>2017-10-07T13:02:39Z</time>
      </trkpt>
      <trkpt lat="43.9946" lon="6.90072">
        <ele>1284.3790283203</ele>
        <time>2017-10-07T13:02:44Z</time>
      </trkpt>
      <trkpt lat="43.99447" lon="6.90087">
        <ele>1281.3790283203</ele>
        <time>2017-10-07T13:02:50Z</time>
      </trkpt>
      <trkpt lat="43.99435" lon="6.90101">
        <ele>1275.3790283203</ele>
        <time>2017-10-07T13:02:57Z</time>
      </trkpt>
      <trkpt lat="43.9942" lon="6.90102">
        <ele>1270.3790283203</ele>
        <time>2017-10-07T13:03:11Z</time>
      </trkpt>
      <trkpt lat="43.99414" lon="6.90109">
        <ele>1266.3790283203</ele>
        <time>2017-10-07T13:03:20Z</time>
      </trkpt>
      <trkpt lat="43.99414" lon="6.90119">
        <ele>1267.3790283203</ele>
        <time>2017-10-07T13:03:36Z</time>
      </trkpt>
      <trkpt lat="43.99407" lon="6.90137">
        <ele>1262.3790283203</ele>
        <time>2017-10-07T13:03:47Z</time>
      </trkpt>
      <trkpt lat="43.99404" lon="6.90148">
        <ele>1254.3790283203</ele>
        <time>2017-10-07T13:04:00Z</time>
      </trkpt>
      <trkpt lat="43.99399" lon="6.90158">
        <ele>1253.3790283203</ele>
        <time>2017-10-07T13:04:05Z</time>
      </trkpt>
      <trkpt lat="43.99405" lon="6.90181">
        <ele>1248.3790283203</ele>
        <time>2017-10-07T13:04:12Z</time>
      </trkpt>
      <trkpt lat="43.99401" lon="6.90202">
        <ele>1243.3790283203</ele>
        <time>2017-10-07T13:04:18Z</time>
      </trkpt>
      <trkpt lat="43.99394" lon="6.90208">
        <ele>1243.3790283203</ele>
        <time>2017-10-07T13:04:23Z</time>
      </trkpt>
      <trkpt lat="43.99387" lon="6.90212">
        <ele>1236.3790283203</ele>
        <time>2017-10-07T13:04:58Z</time>
      </trkpt>
      <trkpt lat="43.9938" lon="6.90211">
        <ele>1233.3790283203</ele>
        <time>2017-10-07T13:05:09Z</time>
      </trkpt>
      <trkpt lat="43.99372" lon="6.90208">
        <ele>1228.3790283203</ele>
        <time>2017-10-07T13:05:26Z</time>
      </trkpt>
      <trkpt lat="43.99355" lon="6.9022">
        <ele>1222.3790283203</ele>
        <time>2017-10-07T13:05:40Z</time>
      </trkpt>
      <trkpt lat="43.99346" lon="6.90238">
        <ele>1217.3790283203</ele>
        <time>2017-10-07T13:05:47Z</time>
      </trkpt>
      <trkpt lat="43.99338" lon="6.90241">
        <ele>1213.3790283203</ele>
        <time>2017-10-07T13:05:53Z</time>
      </trkpt>
      <trkpt lat="43.99324" lon="6.90234">
        <ele>1207.3790283203</ele>
        <time>2017-10-07T13:06:01Z</time>
      </trkpt>
      <trkpt lat="43.99317" lon="6.90237">
        <ele>1205.3790283203</ele>
        <time>2017-10-07T13:06:18Z</time>
      </trkpt>
      <trkpt lat="43.99314" lon="6.90247">
        <ele>1207.3790283203</ele>
        <time>2017-10-07T13:06:30Z</time>
      </trkpt>
      <trkpt lat="43.9931" lon="6.9026">
        <ele>1204.3790283203</ele>
        <time>2017-10-07T13:06:33Z</time>
      </trkpt>
      <trkpt lat="43.99303" lon="6.90283">
        <ele>1200.3790283203</ele>
        <time>2017-10-07T13:06:39Z</time>
      </trkpt>
      <trkpt lat="43.99289" lon="6.90299">
        <ele>1200.3790283203</ele>
        <time>2017-10-07T13:06:46Z</time>
      </trkpt>
      <trkpt lat="43.99275" lon="6.90306">
        <ele>1196.3790283203</ele>
        <time>2017-10-07T13:06:51Z</time>
      </trkpt>
      <trkpt lat="43.9926" lon="6.90311">
        <ele>1190.3790283203</ele>
        <time>2017-10-07T13:06:57Z</time>
      </trkpt>
      <trkpt lat="43.99243" lon="6.90317">
        <ele>1186.3790283203</ele>
        <time>2017-10-07T13:07:04Z</time>
      </trkpt>
      <trkpt lat="43.99227" lon="6.90326">
        <ele>1180.3790283203</ele>
        <time>2017-10-07T13:07:11Z</time>
      </trkpt>
      <trkpt lat="43.99205" lon="6.90334">
        <ele>1173.3790283203</ele>
        <time>2017-10-07T13:07:17Z</time>
      </trkpt>
      <trkpt lat="43.99201" lon="6.90343">
        <ele>1171.3790283203</ele>
        <time>2017-10-07T13:07:23Z</time>
      </trkpt>
      <trkpt lat="43.99203" lon="6.90353">
        <ele>1172.3790283203</ele>
        <time>2017-10-07T13:07:28Z</time>
      </trkpt>
      <trkpt lat="43.99205" lon="6.90363">
        <ele>1168.3790283203</ele>
        <time>2017-10-07T13:07:33Z</time>
      </trkpt>
      <trkpt lat="43.99197" lon="6.90382">
        <ele>1159.3800048828</ele>
        <time>2017-10-07T13:07:42Z</time>
      </trkpt>
      <trkpt lat="43.9919" lon="6.9039">
        <ele>1156.3800048828</ele>
        <time>2017-10-07T13:07:55Z</time>
      </trkpt>
      <trkpt lat="43.99189" lon="6.904">
        <ele>1155.3800048828</ele>
        <time>2017-10-07T13:08:04Z</time>
      </trkpt>
      <trkpt lat="43.99185" lon="6.90409">
        <ele>1154.3800048828</ele>
        <time>2017-10-07T13:08:17Z</time>
      </trkpt>
      <trkpt lat="43.9919" lon="6.90421">
        <ele>1162.3800048828</ele>
        <time>2017-10-07T13:08:27Z</time>
      </trkpt>
      <trkpt lat="43.99194" lon="6.90437">
        <ele>1159.3800048828</ele>
        <time>2017-10-07T13:08:33Z</time>
      </trkpt>
      <trkpt lat="43.99184" lon="6.90455">
        <ele>1152.3800048828</ele>
        <time>2017-10-07T13:08:40Z</time>
      </trkpt>
      <trkpt lat="43.99172" lon="6.90485">
        <ele>1148.3800048828</ele>
        <time>2017-10-07T13:08:46Z</time>
      </trkpt>
      <trkpt lat="43.99165" lon="6.90511">
        <ele>1145.3800048828</ele>
        <time>2017-10-07T13:08:52Z</time>
      </trkpt>
      <trkpt lat="43.99144" lon="6.90533">
        <ele>1141.3800048828</ele>
        <time>2017-10-07T13:08:59Z</time>
      </trkpt>
      <trkpt lat="43.99134" lon="6.90556">
        <ele>1139.3800048828</ele>
        <time>2017-10-07T13:09:06Z</time>
      </trkpt>
      <trkpt lat="43.99132" lon="6.90576">
        <ele>1134.3800048828</ele>
        <time>2017-10-07T13:09:11Z</time>
      </trkpt>
      <trkpt lat="43.99135" lon="6.90599">
        <ele>1130.3800048828</ele>
        <time>2017-10-07T13:09:16Z</time>
      </trkpt>
      <trkpt lat="43.99128" lon="6.90626">
        <ele>1122.3800048828</ele>
        <time>2017-10-07T13:09:21Z</time>
      </trkpt>
      <trkpt lat="43.99118" lon="6.90654">
        <ele>1120.3800048828</ele>
        <time>2017-10-07T13:09:27Z</time>
      </trkpt>
      <trkpt lat="43.99108" lon="6.90677">
        <ele>1117.3800048828</ele>
        <time>2017-10-07T13:09:31Z</time>
      </trkpt>
      <trkpt lat="43.991" lon="6.90701">
        <ele>1111.3800048828</ele>
        <time>2017-10-07T13:09:36Z</time>
      </trkpt>
      <trkpt lat="43.99095" lon="6.90721">
        <ele>1108.3800048828</ele>
        <time>2017-10-07T13:09:40Z</time>
      </trkpt>
      <trkpt lat="43.99082" lon="6.90735">
        <ele>1106.3800048828</ele>
        <time>2017-10-07T13:09:45Z</time>
      </trkpt>
      <trkpt lat="43.99066" lon="6.90741">
        <ele>1107.3800048828</ele>
        <time>2017-10-07T13:09:51Z</time>
      </trkpt>
      <trkpt lat="43.99052" lon="6.90745">
        <ele>1108.3800048828</ele>
        <time>2017-10-07T13:10:23Z</time>
      </trkpt>
      <trkpt lat="43.99045" lon="6.9074">
        <ele>1106.3800048828</ele>
        <time>2017-10-07T13:10:33Z</time>
      </trkpt>
      <trkpt lat="43.99028" lon="6.9073">
        <ele>1107.3800048828</ele>
        <time>2017-10-07T13:10:39Z</time>
      </trkpt>
      <trkpt lat="43.99002" lon="6.90739">
        <ele>1105.3800048828</ele>
        <time>2017-10-07T13:10:46Z</time>
      </trkpt>
      <trkpt lat="43.98993" lon="6.9072">
        <ele>1104.3800048828</ele>
        <time>2017-10-07T13:10:52Z</time>
      </trkpt>
      <trkpt lat="43.98979" lon="6.90708">
        <ele>1103.3800048828</ele>
        <time>2017-10-07T13:11:04Z</time>
      </trkpt>
      <trkpt lat="43.98972" lon="6.90715">
        <ele>1103.3800048828</ele>
        <time>2017-10-07T13:11:14Z</time>
      </trkpt>
      <trkpt lat="43.98962" lon="6.90734">
        <ele>1106.3800048828</ele>
        <time>2017-10-07T13:11:21Z</time>
      </trkpt>
      <trkpt lat="43.98943" lon="6.90735">
        <ele>1107.3800048828</ele>
        <time>2017-10-07T13:11:28Z</time>
      </trkpt>
      <trkpt lat="43.98926" lon="6.90736">
        <ele>1108.3800048828</ele>
        <time>2017-10-07T13:11:33Z</time>
      </trkpt>
      <trkpt lat="43.98918" lon="6.90736">
        <ele>1107.3800048828</ele>
        <time>2017-10-07T13:11:35Z</time>
      </trkpt>
      <trkpt lat="43.9891" lon="6.90755">
        <ele>1111.3800048828</ele>
        <time>2017-10-07T13:11:43Z</time>
      </trkpt>
      <trkpt lat="43.98898" lon="6.9077">
        <ele>1113.3800048828</ele>
        <time>2017-10-07T13:11:52Z</time>
      </trkpt>
      <trkpt lat="43.98891" lon="6.90776">
        <ele>1112.3800048828</ele>
        <time>2017-10-07T13:11:57Z</time>
      </trkpt>
      <trkpt lat="43.98886" lon="6.90784">
        <ele>1114.3800048828</ele>
        <time>2017-10-07T13:12:03Z</time>
      </trkpt>
      <trkpt lat="43.98879" lon="6.90789">
        <ele>1114.3800048828</ele>
        <time>2017-10-07T13:12:08Z</time>
      </trkpt>
      <trkpt lat="43.98869" lon="6.90806">
        <ele>1111.3800048828</ele>
        <time>2017-10-07T13:12:19Z</time>
      </trkpt>
      <trkpt lat="43.98867" lon="6.90828">
        <ele>1114.3800048828</ele>
        <time>2017-10-07T13:12:26Z</time>
      </trkpt>
      <trkpt lat="43.9886" lon="6.90833">
        <ele>1112.3800048828</ele>
        <time>2017-10-07T13:12:38Z</time>
      </trkpt>
      <trkpt lat="43.98867" lon="6.90834">
        <ele>1120.3800048828</ele>
        <time>2017-10-07T13:18:29Z</time>
      </trkpt>
      <trkpt lat="43.9886" lon="6.90837">
        <ele>1118.3800048828</ele>
        <time>2017-10-07T13:18:39Z</time>
      </trkpt>
      <trkpt lat="43.98853" lon="6.9084">
        <ele>1119.3800048828</ele>
        <time>2017-10-07T13:18:55Z</time>
      </trkpt>
      <trkpt lat="43.98847" lon="6.90845">
        <ele>1114.3800048828</ele>
        <time>2017-10-07T13:19:22Z</time>
      </trkpt>
      <trkpt lat="43.98835" lon="6.90849">
        <ele>1110.3800048828</ele>
        <time>2017-10-07T13:19:30Z</time>
      </trkpt>
      <trkpt lat="43.98828" lon="6.90853">
        <ele>1114.3800048828</ele>
        <time>2017-10-07T13:20:11Z</time>
      </trkpt>
      <trkpt lat="43.98821" lon="6.90855">
        <ele>1112.3800048828</ele>
        <time>2017-10-07T13:20:32Z</time>
      </trkpt>
      <trkpt lat="43.98811" lon="6.90861">
        <ele>1113.3800048828</ele>
        <time>2017-10-07T13:20:37Z</time>
      </trkpt>
      <trkpt lat="43.98818" lon="6.90873">
        <ele>1108.3800048828</ele>
        <time>2017-10-07T13:20:45Z</time>
      </trkpt>
      <trkpt lat="43.9882" lon="6.90883">
        <ele>1093.3800048828</ele>
        <time>2017-10-07T13:20:55Z</time>
      </trkpt>
      <trkpt lat="43.98819" lon="6.90902">
        <ele>1091.3800048828</ele>
        <time>2017-10-07T13:21:03Z</time>
      </trkpt>
      <trkpt lat="43.98817" lon="6.90919">
        <ele>1092.3800048828</ele>
        <time>2017-10-07T13:21:35Z</time>
      </trkpt>
      <trkpt lat="43.98824" lon="6.90923">
        <ele>1093.3800048828</ele>
        <time>2017-10-07T13:21:43Z</time>
      </trkpt>
      <trkpt lat="43.98832" lon="6.90925">
        <ele>1094.3800048828</ele>
        <time>2017-10-07T13:22:10Z</time>
      </trkpt>
      <trkpt lat="43.98839" lon="6.90931">
        <ele>1094.3800048828</ele>
        <time>2017-10-07T13:22:18Z</time>
      </trkpt>
      <trkpt lat="43.98851" lon="6.90948">
        <ele>1095.3800048828</ele>
        <time>2017-10-07T13:22:26Z</time>
      </trkpt>
      <trkpt lat="43.98856" lon="6.90957">
        <ele>1096.3800048828</ele>
        <time>2017-10-07T13:22:32Z</time>
      </trkpt>
      <trkpt lat="43.98861" lon="6.90964">
        <ele>1096.3800048828</ele>
        <time>2017-10-07T13:22:38Z</time>
      </trkpt>
      <trkpt lat="43.98867" lon="6.9097">
        <ele>1098.3800048828</ele>
        <time>2017-10-07T13:22:46Z</time>
      </trkpt>
      <trkpt lat="43.98871" lon="6.9098">
        <ele>1100.3800048828</ele>
        <time>2017-10-07T13:22:54Z</time>
      </trkpt>
      <trkpt lat="43.98871" lon="6.90991">
        <ele>1106.3800048828</ele>
        <time>2017-10-07T13:23:05Z</time>
      </trkpt>
      <trkpt lat="43.98869" lon="6.91001">
        <ele>1103.3800048828</ele>
        <time>2017-10-07T13:23:16Z</time>
      </trkpt>
      <trkpt lat="43.98871" lon="6.91011">
        <ele>1103.3800048828</ele>
        <time>2017-10-07T13:23:22Z</time>
      </trkpt>
      <trkpt lat="43.98875" lon="6.91021">
        <ele>1104.3800048828</ele>
        <time>2017-10-07T13:23:29Z</time>
      </trkpt>
      <trkpt lat="43.98877" lon="6.91032">
        <ele>1102.3800048828</ele>
        <time>2017-10-07T13:23:35Z</time>
      </trkpt>
      <trkpt lat="43.98879" lon="6.91042">
        <ele>1102.3800048828</ele>
        <time>2017-10-07T13:23:41Z</time>
      </trkpt>
      <trkpt lat="43.98882" lon="6.91053">
        <ele>1104.3800048828</ele>
        <time>2017-10-07T13:23:48Z</time>
      </trkpt>
      <trkpt lat="43.98885" lon="6.91062">
        <ele>1107.3800048828</ele>
        <time>2017-10-07T13:23:54Z</time>
      </trkpt>
      <trkpt lat="43.98888" lon="6.91071">
        <ele>1108.3800048828</ele>
        <time>2017-10-07T13:24:01Z</time>
      </trkpt>
      <trkpt lat="43.98887" lon="6.91082">
        <ele>1109.3800048828</ele>
        <time>2017-10-07T13:24:10Z</time>
      </trkpt>
      <trkpt lat="43.9888" lon="6.91079">
        <ele>1110.3800048828</ele>
        <time>2017-10-07T13:24:27Z</time>
      </trkpt>
      <trkpt lat="43.98874" lon="6.91075">
        <ele>1112.3800048828</ele>
        <time>2017-10-07T13:24:38Z</time>
      </trkpt>
      <trkpt lat="43.98866" lon="6.91074">
        <ele>1111.3800048828</ele>
        <time>2017-10-07T13:24:46Z</time>
      </trkpt>
      <trkpt lat="43.98868" lon="6.91085">
        <ele>1116.3800048828</ele>
        <time>2017-10-07T13:24:59Z</time>
      </trkpt>
      <trkpt lat="43.98866" lon="6.91095">
        <ele>1117.3800048828</ele>
        <time>2017-10-07T13:25:10Z</time>
      </trkpt>
      <trkpt lat="43.98866" lon="6.91105">
        <ele>1117.3800048828</ele>
        <time>2017-10-07T13:25:18Z</time>
      </trkpt>
      <trkpt lat="43.98865" lon="6.91116">
        <ele>1120.3800048828</ele>
        <time>2017-10-07T13:25:29Z</time>
      </trkpt>
      <trkpt lat="43.98865" lon="6.91127">
        <ele>1120.3809814453</ele>
        <time>2017-10-07T13:25:40Z</time>
      </trkpt>
      <trkpt lat="43.98865" lon="6.91137">
        <ele>1124.3809814453</ele>
        <time>2017-10-07T13:26:00Z</time>
      </trkpt>
      <trkpt lat="43.98863" lon="6.91147">
        <ele>1125.3809814453</ele>
        <time>2017-10-07T13:26:14Z</time>
      </trkpt>
      <trkpt lat="43.98866" lon="6.91156">
        <ele>1127.3809814453</ele>
        <time>2017-10-07T13:26:27Z</time>
      </trkpt>
      <trkpt lat="43.98866" lon="6.91167">
        <ele>1129.3809814453</ele>
        <time>2017-10-07T13:26:47Z</time>
      </trkpt>
      <trkpt lat="43.98868" lon="6.91176">
        <ele>1132.3809814453</ele>
        <time>2017-10-07T13:27:05Z</time>
      </trkpt>
      <trkpt lat="43.98862" lon="6.91182">
        <ele>1135.3809814453</ele>
        <time>2017-10-07T13:27:28Z</time>
      </trkpt>
      <trkpt lat="43.98857" lon="6.9119">
        <ele>1137.3809814453</ele>
        <time>2017-10-07T13:27:44Z</time>
      </trkpt>
      <trkpt lat="43.98852" lon="6.91198">
        <ele>1139.3809814453</ele>
        <time>2017-10-07T13:28:08Z</time>
      </trkpt>
      <trkpt lat="43.9885" lon="6.91207">
        <ele>1141.3809814453</ele>
        <time>2017-10-07T13:28:21Z</time>
      </trkpt>
      <trkpt lat="43.98846" lon="6.91217">
        <ele>1143.3809814453</ele>
        <time>2017-10-07T13:28:41Z</time>
      </trkpt>
      <trkpt lat="43.98842" lon="6.91226">
        <ele>1144.3809814453</ele>
        <time>2017-10-07T13:28:55Z</time>
      </trkpt>
      <trkpt lat="43.98836" lon="6.91233">
        <ele>1143.3809814453</ele>
        <time>2017-10-07T13:29:05Z</time>
      </trkpt>
      <trkpt lat="43.9883" lon="6.91241">
        <ele>1146.3809814453</ele>
        <time>2017-10-07T13:29:21Z</time>
      </trkpt>
      <trkpt lat="43.98826" lon="6.91249">
        <ele>1146.3809814453</ele>
        <time>2017-10-07T13:29:41Z</time>
      </trkpt>
      <trkpt lat="43.98819" lon="6.91254">
        <ele>1144.3809814453</ele>
        <time>2017-10-07T13:29:53Z</time>
      </trkpt>
      <trkpt lat="43.98813" lon="6.91259">
        <ele>1147.3809814453</ele>
        <time>2017-10-07T13:30:20Z</time>
      </trkpt>
      <trkpt lat="43.9881" lon="6.91268">
        <ele>1150.3809814453</ele>
        <time>2017-10-07T13:30:31Z</time>
      </trkpt>
      <trkpt lat="43.98804" lon="6.91275">
        <ele>1151.3809814453</ele>
        <time>2017-10-07T13:30:39Z</time>
      </trkpt>
      <trkpt lat="43.98798" lon="6.91281">
        <ele>1157.3809814453</ele>
        <time>2017-10-07T13:30:57Z</time>
      </trkpt>
      <trkpt lat="43.98792" lon="6.91288">
        <ele>1161.3809814453</ele>
        <time>2017-10-07T13:31:04Z</time>
      </trkpt>
      <trkpt lat="43.98786" lon="6.91296">
        <ele>1160.3809814453</ele>
        <time>2017-10-07T13:31:11Z</time>
      </trkpt>
      <trkpt lat="43.9878" lon="6.91302">
        <ele>1160.3809814453</ele>
        <time>2017-10-07T13:31:19Z</time>
      </trkpt>
      <trkpt lat="43.98775" lon="6.91311">
        <ele>1161.3809814453</ele>
        <time>2017-10-07T13:31:26Z</time>
      </trkpt>
      <trkpt lat="43.98769" lon="6.91316">
        <ele>1162.3809814453</ele>
        <time>2017-10-07T13:31:36Z</time>
      </trkpt>
      <trkpt lat="43.98766" lon="6.91326">
        <ele>1163.3809814453</ele>
        <time>2017-10-07T13:31:48Z</time>
      </trkpt>
      <trkpt lat="43.98767" lon="6.91336">
        <ele>1166.3809814453</ele>
        <time>2017-10-07T13:32:01Z</time>
      </trkpt>
      <trkpt lat="43.98767" lon="6.91346">
        <ele>1165.3809814453</ele>
        <time>2017-10-07T13:32:08Z</time>
      </trkpt>
      <trkpt lat="43.9877" lon="6.91358">
        <ele>1166.3809814453</ele>
        <time>2017-10-07T13:32:17Z</time>
      </trkpt>
      <trkpt lat="43.98768" lon="6.91368">
        <ele>1167.3809814453</ele>
        <time>2017-10-07T13:32:26Z</time>
      </trkpt>
      <trkpt lat="43.98765" lon="6.91378">
        <ele>1171.3809814453</ele>
        <time>2017-10-07T13:32:36Z</time>
      </trkpt>
      <trkpt lat="43.9876" lon="6.91385">
        <ele>1174.3809814453</ele>
        <time>2017-10-07T13:32:47Z</time>
      </trkpt>
      <trkpt lat="43.98754" lon="6.91392">
        <ele>1176.3809814453</ele>
        <time>2017-10-07T13:32:58Z</time>
      </trkpt>
      <trkpt lat="43.98751" lon="6.91402">
        <ele>1179.3809814453</ele>
        <time>2017-10-07T13:33:09Z</time>
      </trkpt>
      <trkpt lat="43.98747" lon="6.91409">
        <ele>1174.3809814453</ele>
        <time>2017-10-07T13:35:03Z</time>
      </trkpt>
      <trkpt lat="43.98739" lon="6.91431">
        <ele>1175.3809814453</ele>
        <time>2017-10-07T13:35:11Z</time>
      </trkpt>
      <trkpt lat="43.98729" lon="6.91449">
        <ele>1174.3809814453</ele>
        <time>2017-10-07T13:35:17Z</time>
      </trkpt>
      <trkpt lat="43.9872" lon="6.91473">
        <ele>1169.3809814453</ele>
        <time>2017-10-07T13:35:23Z</time>
      </trkpt>
      <trkpt lat="43.98708" lon="6.91493">
        <ele>1167.3809814453</ele>
        <time>2017-10-07T13:35:29Z</time>
      </trkpt>
      <trkpt lat="43.98693" lon="6.91511">
        <ele>1168.3809814453</ele>
        <time>2017-10-07T13:35:35Z</time>
      </trkpt>
      <trkpt lat="43.98681" lon="6.91531">
        <ele>1169.3809814453</ele>
        <time>2017-10-07T13:35:41Z</time>
      </trkpt>
      <trkpt lat="43.98672" lon="6.91548">
        <ele>1171.3809814453</ele>
        <time>2017-10-07T13:35:47Z</time>
      </trkpt>
      <trkpt lat="43.98666" lon="6.91569">
        <ele>1172.3809814453</ele>
        <time>2017-10-07T13:35:54Z</time>
      </trkpt>
      <trkpt lat="43.9866" lon="6.9159">
        <ele>1172.3809814453</ele>
        <time>2017-10-07T13:36:00Z</time>
      </trkpt>
      <trkpt lat="43.98659" lon="6.91611">
        <ele>1173.3809814453</ele>
        <time>2017-10-07T13:36:07Z</time>
      </trkpt>
      <trkpt lat="43.9866" lon="6.91622">
        <ele>1175.3809814453</ele>
        <time>2017-10-07T13:36:12Z</time>
      </trkpt>
      <trkpt lat="43.98664" lon="6.91633">
        <ele>1176.3809814453</ele>
        <time>2017-10-07T13:36:18Z</time>
      </trkpt>
      <trkpt lat="43.98667" lon="6.91643">
        <ele>1177.3809814453</ele>
        <time>2017-10-07T13:36:23Z</time>
      </trkpt>
      <trkpt lat="43.98668" lon="6.91654">
        <ele>1178.3809814453</ele>
        <time>2017-10-07T13:36:28Z</time>
      </trkpt>
      <trkpt lat="43.98669" lon="6.91665">
        <ele>1178.3809814453</ele>
        <time>2017-10-07T13:36:33Z</time>
      </trkpt>
      <trkpt lat="43.98669" lon="6.91676">
        <ele>1178.3809814453</ele>
        <time>2017-10-07T13:36:38Z</time>
      </trkpt>
      <trkpt lat="43.98672" lon="6.91687">
        <ele>1180.3809814453</ele>
        <time>2017-10-07T13:36:44Z</time>
      </trkpt>
      <trkpt lat="43.98674" lon="6.91698">
        <ele>1182.3809814453</ele>
        <time>2017-10-07T13:36:50Z</time>
      </trkpt>
      <trkpt lat="43.98677" lon="6.91709">
        <ele>1183.3809814453</ele>
        <time>2017-10-07T13:36:56Z</time>
      </trkpt>
      <trkpt lat="43.9868" lon="6.91718">
        <ele>1182.3809814453</ele>
        <time>2017-10-07T13:37:01Z</time>
      </trkpt>
      <trkpt lat="43.98682" lon="6.91729">
        <ele>1184.3809814453</ele>
        <time>2017-10-07T13:37:07Z</time>
      </trkpt>
      <trkpt lat="43.98686" lon="6.91738">
        <ele>1184.3809814453</ele>
        <time>2017-10-07T13:37:13Z</time>
      </trkpt>
      <trkpt lat="43.98688" lon="6.91748">
        <ele>1186.3809814453</ele>
        <time>2017-10-07T13:37:19Z</time>
      </trkpt>
      <trkpt lat="43.98691" lon="6.91759">
        <ele>1186.3819580078</ele>
        <time>2017-10-07T13:37:24Z</time>
      </trkpt>
      <trkpt lat="43.98698" lon="6.91778">
        <ele>1187.3819580078</ele>
        <time>2017-10-07T13:37:32Z</time>
      </trkpt>
      <trkpt lat="43.98702" lon="6.91788">
        <ele>1188.3819580078</ele>
        <time>2017-10-07T13:37:37Z</time>
      </trkpt>
      <trkpt lat="43.98705" lon="6.91798">
        <ele>1189.3819580078</ele>
        <time>2017-10-07T13:37:42Z</time>
      </trkpt>
      <trkpt lat="43.98705" lon="6.91821">
        <ele>1188.3819580078</ele>
        <time>2017-10-07T13:37:50Z</time>
      </trkpt>
      <trkpt lat="43.98701" lon="6.91844">
        <ele>1190.3819580078</ele>
        <time>2017-10-07T13:37:59Z</time>
      </trkpt>
      <trkpt lat="43.98699" lon="6.91856">
        <ele>1190.3819580078</ele>
        <time>2017-10-07T13:38:04Z</time>
      </trkpt>
      <trkpt lat="43.98699" lon="6.91868">
        <ele>1191.3819580078</ele>
        <time>2017-10-07T13:38:09Z</time>
      </trkpt>
      <trkpt lat="43.98696" lon="6.91892">
        <ele>1191.3819580078</ele>
        <time>2017-10-07T13:38:17Z</time>
      </trkpt>
      <trkpt lat="43.98691" lon="6.91915">
        <ele>1192.3819580078</ele>
        <time>2017-10-07T13:38:25Z</time>
      </trkpt>
      <trkpt lat="43.98689" lon="6.91937">
        <ele>1193.3819580078</ele>
        <time>2017-10-07T13:38:34Z</time>
      </trkpt>
      <trkpt lat="43.98688" lon="6.9196">
        <ele>1193.3819580078</ele>
        <time>2017-10-07T13:38:42Z</time>
      </trkpt>
      <trkpt lat="43.98687" lon="6.91982">
        <ele>1194.3819580078</ele>
        <time>2017-10-07T13:38:50Z</time>
      </trkpt>
      <trkpt lat="43.98685" lon="6.92003">
        <ele>1195.3819580078</ele>
        <time>2017-10-07T13:38:58Z</time>
      </trkpt>
      <trkpt lat="43.98685" lon="6.92026">
        <ele>1192.3819580078</ele>
        <time>2017-10-07T13:39:06Z</time>
      </trkpt>
      <trkpt lat="43.98685" lon="6.92037">
        <ele>1194.3819580078</ele>
        <time>2017-10-07T13:39:11Z</time>
      </trkpt>
      <trkpt lat="43.98685" lon="6.92048">
        <ele>1195.3819580078</ele>
        <time>2017-10-07T13:39:16Z</time>
      </trkpt>
      <trkpt lat="43.98686" lon="6.9206">
        <ele>1196.3819580078</ele>
        <time>2017-10-07T13:39:22Z</time>
      </trkpt>
      <trkpt lat="43.98689" lon="6.9207">
        <ele>1198.3819580078</ele>
        <time>2017-10-07T13:39:27Z</time>
      </trkpt>
      <trkpt lat="43.98692" lon="6.92082">
        <ele>1199.3819580078</ele>
        <time>2017-10-07T13:39:34Z</time>
      </trkpt>
      <trkpt lat="43.98688" lon="6.92102">
        <ele>1203.3819580078</ele>
        <time>2017-10-07T13:39:44Z</time>
      </trkpt>
      <trkpt lat="43.98688" lon="6.92112">
        <ele>1202.3819580078</ele>
        <time>2017-10-07T13:39:49Z</time>
      </trkpt>
      <trkpt lat="43.98689" lon="6.92123">
        <ele>1202.3819580078</ele>
        <time>2017-10-07T13:39:55Z</time>
      </trkpt>
      <trkpt lat="43.9869" lon="6.92135">
        <ele>1203.3819580078</ele>
        <time>2017-10-07T13:40:00Z</time>
      </trkpt>
      <trkpt lat="43.98691" lon="6.92146">
        <ele>1203.3819580078</ele>
        <time>2017-10-07T13:40:05Z</time>
      </trkpt>
      <trkpt lat="43.98697" lon="6.9217">
        <ele>1204.3819580078</ele>
        <time>2017-10-07T13:40:13Z</time>
      </trkpt>
      <trkpt lat="43.987" lon="6.92195">
        <ele>1205.3819580078</ele>
        <time>2017-10-07T13:40:21Z</time>
      </trkpt>
      <trkpt lat="43.98704" lon="6.92217">
        <ele>1207.3819580078</ele>
        <time>2017-10-07T13:40:29Z</time>
      </trkpt>
      <trkpt lat="43.9871" lon="6.92239">
        <ele>1208.3819580078</ele>
        <time>2017-10-07T13:40:38Z</time>
      </trkpt>
      <trkpt lat="43.98715" lon="6.92248">
        <ele>1208.3830566406</ele>
        <time>2017-10-07T13:40:43Z</time>
      </trkpt>
      <trkpt lat="43.98724" lon="6.92267">
        <ele>1209.3830566406</ele>
        <time>2017-10-07T13:40:51Z</time>
      </trkpt>
      <trkpt lat="43.98727" lon="6.92277">
        <ele>1210.3830566406</ele>
        <time>2017-10-07T13:40:57Z</time>
      </trkpt>
      <trkpt lat="43.98732" lon="6.92297">
        <ele>1212.3830566406</ele>
        <time>2017-10-07T13:41:06Z</time>
      </trkpt>
      <trkpt lat="43.98734" lon="6.92319">
        <ele>1212.3830566406</ele>
        <time>2017-10-07T13:41:14Z</time>
      </trkpt>
      <trkpt lat="43.98737" lon="6.92342">
        <ele>1210.3830566406</ele>
        <time>2017-10-07T13:41:21Z</time>
      </trkpt>
      <trkpt lat="43.98738" lon="6.92367">
        <ele>1210.3830566406</ele>
        <time>2017-10-07T13:41:26Z</time>
      </trkpt>
      <trkpt lat="43.98737" lon="6.92404">
        <ele>1210.3830566406</ele>
        <time>2017-10-07T13:41:32Z</time>
      </trkpt>
      <trkpt lat="43.98731" lon="6.9244">
        <ele>1209.3830566406</ele>
        <time>2017-10-07T13:41:38Z</time>
      </trkpt>
      <trkpt lat="43.98732" lon="6.92476">
        <ele>1208.3830566406</ele>
        <time>2017-10-07T13:41:44Z</time>
      </trkpt>
      <trkpt lat="43.98743" lon="6.92519">
        <ele>1204.3830566406</ele>
        <time>2017-10-07T13:41:49Z</time>
      </trkpt>
      <trkpt lat="43.98745" lon="6.92574">
        <ele>1202.3830566406</ele>
        <time>2017-10-07T13:41:55Z</time>
      </trkpt>
      <trkpt lat="43.98742" lon="6.92622">
        <ele>1202.3830566406</ele>
        <time>2017-10-07T13:42:01Z</time>
      </trkpt>
      <trkpt lat="43.98728" lon="6.92668">
        <ele>1202.3830566406</ele>
        <time>2017-10-07T13:42:07Z</time>
      </trkpt>
      <trkpt lat="43.98711" lon="6.92709">
        <ele>1202.3830566406</ele>
        <time>2017-10-07T13:42:13Z</time>
      </trkpt>
      <trkpt lat="43.98694" lon="6.92753">
        <ele>1202.3840332031</ele>
        <time>2017-10-07T13:42:19Z</time>
      </trkpt>
      <trkpt lat="43.98682" lon="6.92789">
        <ele>1203.3840332031</ele>
        <time>2017-10-07T13:42:25Z</time>
      </trkpt>
      <trkpt lat="43.98677" lon="6.92815">
        <ele>1204.3840332031</ele>
        <time>2017-10-07T13:42:31Z</time>
      </trkpt>
      <trkpt lat="43.98675" lon="6.92839">
        <ele>1204.3840332031</ele>
        <time>2017-10-07T13:42:37Z</time>
      </trkpt>
      <trkpt lat="43.98672" lon="6.92862">
        <ele>1204.3840332031</ele>
        <time>2017-10-07T13:42:43Z</time>
      </trkpt>
      <trkpt lat="43.98666" lon="6.92885">
        <ele>1204.3840332031</ele>
        <time>2017-10-07T13:42:49Z</time>
      </trkpt>
      <trkpt lat="43.98663" lon="6.9291">
        <ele>1204.3840332031</ele>
        <time>2017-10-07T13:42:55Z</time>
      </trkpt>
      <trkpt lat="43.98663" lon="6.92936">
        <ele>1206.3840332031</ele>
        <time>2017-10-07T13:43:01Z</time>
      </trkpt>
      <trkpt lat="43.9866" lon="6.92958">
        <ele>1207.3840332031</ele>
        <time>2017-10-07T13:43:07Z</time>
      </trkpt>
      <trkpt lat="43.98655" lon="6.92984">
        <ele>1206.3840332031</ele>
        <time>2017-10-07T13:43:13Z</time>
      </trkpt>
      <trkpt lat="43.98648" lon="6.93007">
        <ele>1205.3840332031</ele>
        <time>2017-10-07T13:43:19Z</time>
      </trkpt>
      <trkpt lat="43.98642" lon="6.93034">
        <ele>1205.3840332031</ele>
        <time>2017-10-07T13:43:25Z</time>
      </trkpt>
      <trkpt lat="43.98636" lon="6.93057">
        <ele>1205.3840332031</ele>
        <time>2017-10-07T13:43:30Z</time>
      </trkpt>
      <trkpt lat="43.98614" lon="6.93085">
        <ele>1201.3840332031</ele>
        <time>2017-10-07T13:43:36Z</time>
      </trkpt>
      <trkpt lat="43.98593" lon="6.93108">
        <ele>1195.3840332031</ele>
        <time>2017-10-07T13:43:42Z</time>
      </trkpt>
      <trkpt lat="43.98585" lon="6.9313">
        <ele>1194.3840332031</ele>
        <time>2017-10-07T13:43:47Z</time>
      </trkpt>
      <trkpt lat="43.98582" lon="6.93152">
        <ele>1196.3840332031</ele>
        <time>2017-10-07T13:43:55Z</time>
      </trkpt>
      <trkpt lat="43.98579" lon="6.93173">
        <ele>1197.3840332031</ele>
        <time>2017-10-07T13:44:02Z</time>
      </trkpt>
      <trkpt lat="43.98579" lon="6.93196">
        <ele>1198.3840332031</ele>
        <time>2017-10-07T13:44:09Z</time>
      </trkpt>
      <trkpt lat="43.98585" lon="6.93216">
        <ele>1197.3840332031</ele>
        <time>2017-10-07T13:44:15Z</time>
      </trkpt>
      <trkpt lat="43.98588" lon="6.93237">
        <ele>1198.3840332031</ele>
        <time>2017-10-07T13:44:22Z</time>
      </trkpt>
      <trkpt lat="43.98591" lon="6.93263">
        <ele>1199.3840332031</ele>
        <time>2017-10-07T13:44:30Z</time>
      </trkpt>
      <trkpt lat="43.98591" lon="6.93285">
        <ele>1201.3840332031</ele>
        <time>2017-10-07T13:44:39Z</time>
      </trkpt>
      <trkpt lat="43.98591" lon="6.93298">
        <ele>1202.3840332031</ele>
        <time>2017-10-07T13:44:45Z</time>
      </trkpt>
      <trkpt lat="43.98592" lon="6.93309">
        <ele>1203.3840332031</ele>
        <time>2017-10-07T13:44:50Z</time>
      </trkpt>
      <trkpt lat="43.98592" lon="6.93331">
        <ele>1204.3850097656</ele>
        <time>2017-10-07T13:44:59Z</time>
      </trkpt>
      <trkpt lat="43.98591" lon="6.93343">
        <ele>1203.3850097656</ele>
        <time>2017-10-07T13:45:04Z</time>
      </trkpt>
      <trkpt lat="43.98592" lon="6.93354">
        <ele>1205.3850097656</ele>
        <time>2017-10-07T13:45:09Z</time>
      </trkpt>
      <trkpt lat="43.98592" lon="6.93376">
        <ele>1207.3850097656</ele>
        <time>2017-10-07T13:45:17Z</time>
      </trkpt>
      <trkpt lat="43.98594" lon="6.93399">
        <ele>1209.3850097656</ele>
        <time>2017-10-07T13:45:25Z</time>
      </trkpt>
      <trkpt lat="43.98595" lon="6.93422">
        <ele>1212.3850097656</ele>
        <time>2017-10-07T13:45:33Z</time>
      </trkpt>
      <trkpt lat="43.98595" lon="6.93444">
        <ele>1213.3850097656</ele>
        <time>2017-10-07T13:45:40Z</time>
      </trkpt>
      <trkpt lat="43.98597" lon="6.93467">
        <ele>1214.3850097656</ele>
        <time>2017-10-07T13:45:47Z</time>
      </trkpt>
      <trkpt lat="43.98601" lon="6.93489">
        <ele>1214.3850097656</ele>
        <time>2017-10-07T13:45:55Z</time>
      </trkpt>
      <trkpt lat="43.98607" lon="6.93513">
        <ele>1214.3850097656</ele>
        <time>2017-10-07T13:46:03Z</time>
      </trkpt>
      <trkpt lat="43.98611" lon="6.93534">
        <ele>1216.3850097656</ele>
        <time>2017-10-07T13:46:10Z</time>
      </trkpt>
      <trkpt lat="43.98615" lon="6.93557">
        <ele>1217.3850097656</ele>
        <time>2017-10-07T13:46:18Z</time>
      </trkpt>
      <trkpt lat="43.98617" lon="6.93581">
        <ele>1218.3850097656</ele>
        <time>2017-10-07T13:46:26Z</time>
      </trkpt>
      <trkpt lat="43.9862" lon="6.93603">
        <ele>1219.3850097656</ele>
        <time>2017-10-07T13:46:34Z</time>
      </trkpt>
      <trkpt lat="43.98615" lon="6.93626">
        <ele>1218.3850097656</ele>
        <time>2017-10-07T13:46:42Z</time>
      </trkpt>
      <trkpt lat="43.98605" lon="6.93646">
        <ele>1221.3850097656</ele>
        <time>2017-10-07T13:46:50Z</time>
      </trkpt>
      <trkpt lat="43.986" lon="6.93668">
        <ele>1223.3850097656</ele>
        <time>2017-10-07T13:46:58Z</time>
      </trkpt>
      <trkpt lat="43.98599" lon="6.93691">
        <ele>1225.3850097656</ele>
        <time>2017-10-07T13:47:06Z</time>
      </trkpt>
      <trkpt lat="43.98597" lon="6.93713">
        <ele>1226.3850097656</ele>
        <time>2017-10-07T13:47:15Z</time>
      </trkpt>
      <trkpt lat="43.98598" lon="6.93735">
        <ele>1226.3850097656</ele>
        <time>2017-10-07T13:47:24Z</time>
      </trkpt>
      <trkpt lat="43.98598" lon="6.93747">
        <ele>1228.3850097656</ele>
        <time>2017-10-07T13:47:30Z</time>
      </trkpt>
      <trkpt lat="43.98598" lon="6.93759">
        <ele>1229.3850097656</ele>
        <time>2017-10-07T13:47:35Z</time>
      </trkpt>
      <trkpt lat="43.98599" lon="6.9378">
        <ele>1230.3850097656</ele>
        <time>2017-10-07T13:47:43Z</time>
      </trkpt>
      <trkpt lat="43.98601" lon="6.93791">
        <ele>1231.3850097656</ele>
        <time>2017-10-07T13:47:48Z</time>
      </trkpt>
      <trkpt lat="43.98603" lon="6.93801">
        <ele>1233.3850097656</ele>
        <time>2017-10-07T13:47:53Z</time>
      </trkpt>
      <trkpt lat="43.98612" lon="6.93821">
        <ele>1235.3859863281</ele>
        <time>2017-10-07T13:48:02Z</time>
      </trkpt>
      <trkpt lat="43.98615" lon="6.9383">
        <ele>1235.3859863281</ele>
        <time>2017-10-07T13:48:07Z</time>
      </trkpt>
      <trkpt lat="43.98626" lon="6.93848">
        <ele>1236.3859863281</ele>
        <time>2017-10-07T13:48:15Z</time>
      </trkpt>
      <trkpt lat="43.98635" lon="6.93867">
        <ele>1237.3859863281</ele>
        <time>2017-10-07T13:48:23Z</time>
      </trkpt>
      <trkpt lat="43.98638" lon="6.93878">
        <ele>1238.3859863281</ele>
        <time>2017-10-07T13:48:28Z</time>
      </trkpt>
      <trkpt lat="43.98641" lon="6.9389">
        <ele>1239.3859863281</ele>
        <time>2017-10-07T13:48:33Z</time>
      </trkpt>
      <trkpt lat="43.98644" lon="6.93911">
        <ele>1239.3859863281</ele>
        <time>2017-10-07T13:48:41Z</time>
      </trkpt>
      <trkpt lat="43.98646" lon="6.93933">
        <ele>1237.3859863281</ele>
        <time>2017-10-07T13:48:49Z</time>
      </trkpt>
      <trkpt lat="43.98647" lon="6.93945">
        <ele>1239.3859863281</ele>
        <time>2017-10-07T13:48:54Z</time>
      </trkpt>
      <trkpt lat="43.9865" lon="6.93955">
        <ele>1239.3859863281</ele>
        <time>2017-10-07T13:48:59Z</time>
      </trkpt>
      <trkpt lat="43.98652" lon="6.93966">
        <ele>1240.3859863281</ele>
        <time>2017-10-07T13:49:04Z</time>
      </trkpt>
      <trkpt lat="43.98656" lon="6.93977">
        <ele>1241.3859863281</ele>
        <time>2017-10-07T13:49:10Z</time>
      </trkpt>
      <trkpt lat="43.98656" lon="6.93988">
        <ele>1243.3859863281</ele>
        <time>2017-10-07T13:49:16Z</time>
      </trkpt>
      <trkpt lat="43.98655" lon="6.93999">
        <ele>1242.3859863281</ele>
        <time>2017-10-07T13:49:22Z</time>
      </trkpt>
      <trkpt lat="43.98651" lon="6.94008">
        <ele>1239.3859863281</ele>
        <time>2017-10-07T13:49:27Z</time>
      </trkpt>
      <trkpt lat="43.98648" lon="6.94017">
        <ele>1241.3859863281</ele>
        <time>2017-10-07T13:49:33Z</time>
      </trkpt>
      <trkpt lat="43.98647" lon="6.94028">
        <ele>1242.3859863281</ele>
        <time>2017-10-07T13:49:40Z</time>
      </trkpt>
      <trkpt lat="43.98649" lon="6.94039">
        <ele>1243.3859863281</ele>
        <time>2017-10-07T13:49:46Z</time>
      </trkpt>
      <trkpt lat="43.98652" lon="6.94048">
        <ele>1244.3859863281</ele>
        <time>2017-10-07T13:49:53Z</time>
      </trkpt>
      <trkpt lat="43.98654" lon="6.94059">
        <ele>1246.3859863281</ele>
        <time>2017-10-07T13:50:01Z</time>
      </trkpt>
      <trkpt lat="43.98656" lon="6.9407">
        <ele>1248.3859863281</ele>
        <time>2017-10-07T13:50:08Z</time>
      </trkpt>
      <trkpt lat="43.98658" lon="6.94079">
        <ele>1251.3859863281</ele>
        <time>2017-10-07T13:50:16Z</time>
      </trkpt>
      <trkpt lat="43.9866" lon="6.94089">
        <ele>1249.3859863281</ele>
        <time>2017-10-07T13:52:29Z</time>
      </trkpt>
      <trkpt lat="43.98665" lon="6.94097">
        <ele>1253.3859863281</ele>
        <time>2017-10-07T13:54:26Z</time>
      </trkpt>
      <trkpt lat="43.98669" lon="6.94107">
        <ele>1253.3859863281</ele>
        <time>2017-10-07T13:54:31Z</time>
      </trkpt>
      <trkpt lat="43.98672" lon="6.94128">
        <ele>1254.3859863281</ele>
        <time>2017-10-07T13:54:40Z</time>
      </trkpt>
      <trkpt lat="43.98671" lon="6.9414">
        <ele>1254.3859863281</ele>
        <time>2017-10-07T13:54:45Z</time>
      </trkpt>
      <trkpt lat="43.98671" lon="6.94152">
        <ele>1256.3859863281</ele>
        <time>2017-10-07T13:54:51Z</time>
      </trkpt>
      <trkpt lat="43.98674" lon="6.94163">
        <ele>1257.3859863281</ele>
        <time>2017-10-07T13:54:57Z</time>
      </trkpt>
      <trkpt lat="43.98676" lon="6.94174">
        <ele>1257.3859863281</ele>
        <time>2017-10-07T13:55:02Z</time>
      </trkpt>
      <trkpt lat="43.98679" lon="6.94184">
        <ele>1257.3859863281</ele>
        <time>2017-10-07T13:55:07Z</time>
      </trkpt>
      <trkpt lat="43.98683" lon="6.94193">
        <ele>1259.3859863281</ele>
        <time>2017-10-07T13:55:12Z</time>
      </trkpt>
      <trkpt lat="43.98686" lon="6.94202">
        <ele>1261.3859863281</ele>
        <time>2017-10-07T13:55:19Z</time>
      </trkpt>
      <trkpt lat="43.98689" lon="6.94212">
        <ele>1262.3859863281</ele>
        <time>2017-10-07T13:55:26Z</time>
      </trkpt>
      <trkpt lat="43.98689" lon="6.94223">
        <ele>1265.3859863281</ele>
        <time>2017-10-07T13:55:33Z</time>
      </trkpt>
      <trkpt lat="43.98688" lon="6.94233">
        <ele>1266.3859863281</ele>
        <time>2017-10-07T13:55:39Z</time>
      </trkpt>
      <trkpt lat="43.98686" lon="6.94244">
        <ele>1267.3859863281</ele>
        <time>2017-10-07T13:55:46Z</time>
      </trkpt>
      <trkpt lat="43.98686" lon="6.94255">
        <ele>1267.3869628906</ele>
        <time>2017-10-07T13:55:53Z</time>
      </trkpt>
      <trkpt lat="43.98687" lon="6.94267">
        <ele>1269.3869628906</ele>
        <time>2017-10-07T13:56:01Z</time>
      </trkpt>
      <trkpt lat="43.98687" lon="6.94278">
        <ele>1269.3869628906</ele>
        <time>2017-10-07T13:56:07Z</time>
      </trkpt>
      <trkpt lat="43.98691" lon="6.94288">
        <ele>1269.3869628906</ele>
        <time>2017-10-07T13:56:14Z</time>
      </trkpt>
      <trkpt lat="43.98698" lon="6.94295">
        <ele>1270.3869628906</ele>
        <time>2017-10-07T13:56:22Z</time>
      </trkpt>
      <trkpt lat="43.98704" lon="6.94302">
        <ele>1272.3869628906</ele>
        <time>2017-10-07T13:56:29Z</time>
      </trkpt>
      <trkpt lat="43.98709" lon="6.9431">
        <ele>1272.3869628906</ele>
        <time>2017-10-07T13:56:36Z</time>
      </trkpt>
      <trkpt lat="43.98713" lon="6.94319">
        <ele>1274.3869628906</ele>
        <time>2017-10-07T13:56:43Z</time>
      </trkpt>
      <trkpt lat="43.98716" lon="6.94328">
        <ele>1275.3869628906</ele>
        <time>2017-10-07T13:56:50Z</time>
      </trkpt>
      <trkpt lat="43.98719" lon="6.94337">
        <ele>1275.3869628906</ele>
        <time>2017-10-07T13:56:57Z</time>
      </trkpt>
      <trkpt lat="43.98722" lon="6.94348">
        <ele>1277.3869628906</ele>
        <time>2017-10-07T13:57:05Z</time>
      </trkpt>
      <trkpt lat="43.98725" lon="6.94358">
        <ele>1277.3869628906</ele>
        <time>2017-10-07T13:57:11Z</time>
      </trkpt>
      <trkpt lat="43.98727" lon="6.94368">
        <ele>1281.3869628906</ele>
        <time>2017-10-07T13:57:19Z</time>
      </trkpt>
      <trkpt lat="43.9873" lon="6.94378">
        <ele>1281.3869628906</ele>
        <time>2017-10-07T13:57:25Z</time>
      </trkpt>
      <trkpt lat="43.98733" lon="6.94388">
        <ele>1283.3869628906</ele>
        <time>2017-10-07T13:57:32Z</time>
      </trkpt>
      <trkpt lat="43.98736" lon="6.94397">
        <ele>1282.3869628906</ele>
        <time>2017-10-07T13:57:37Z</time>
      </trkpt>
      <trkpt lat="43.98739" lon="6.94407">
        <ele>1283.3869628906</ele>
        <time>2017-10-07T13:57:43Z</time>
      </trkpt>
      <trkpt lat="43.98743" lon="6.94418">
        <ele>1284.3869628906</ele>
        <time>2017-10-07T13:57:50Z</time>
      </trkpt>
      <trkpt lat="43.98746" lon="6.94428">
        <ele>1285.3869628906</ele>
        <time>2017-10-07T13:57:56Z</time>
      </trkpt>
      <trkpt lat="43.98747" lon="6.94439">
        <ele>1284.3869628906</ele>
        <time>2017-10-07T13:58:02Z</time>
      </trkpt>
      <trkpt lat="43.98749" lon="6.94449">
        <ele>1286.3869628906</ele>
        <time>2017-10-07T13:58:08Z</time>
      </trkpt>
      <trkpt lat="43.9875" lon="6.94459">
        <ele>1287.3869628906</ele>
        <time>2017-10-07T13:58:14Z</time>
      </trkpt>
      <trkpt lat="43.98752" lon="6.9447">
        <ele>1289.3869628906</ele>
        <time>2017-10-07T13:58:20Z</time>
      </trkpt>
      <trkpt lat="43.98754" lon="6.94481">
        <ele>1290.3869628906</ele>
        <time>2017-10-07T13:58:26Z</time>
      </trkpt>
      <trkpt lat="43.98758" lon="6.94492">
        <ele>1291.3869628906</ele>
        <time>2017-10-07T13:58:33Z</time>
      </trkpt>
      <trkpt lat="43.98758" lon="6.94503">
        <ele>1293.3869628906</ele>
        <time>2017-10-07T13:58:40Z</time>
      </trkpt>
      <trkpt lat="43.98758" lon="6.94514">
        <ele>1294.3869628906</ele>
        <time>2017-10-07T13:58:46Z</time>
      </trkpt>
      <trkpt lat="43.98757" lon="6.94525">
        <ele>1295.3869628906</ele>
        <time>2017-10-07T13:58:52Z</time>
      </trkpt>
      <trkpt lat="43.98757" lon="6.94536">
        <ele>1295.3869628906</ele>
        <time>2017-10-07T13:58:59Z</time>
      </trkpt>
      <trkpt lat="43.98761" lon="6.94546">
        <ele>1297.3869628906</ele>
        <time>2017-10-07T13:59:05Z</time>
      </trkpt>
      <trkpt lat="43.98765" lon="6.94554">
        <ele>1297.3869628906</ele>
        <time>2017-10-07T13:59:10Z</time>
      </trkpt>
      <trkpt lat="43.98775" lon="6.94569">
        <ele>1298.3869628906</ele>
        <time>2017-10-07T13:59:19Z</time>
      </trkpt>
      <trkpt lat="43.98786" lon="6.94589">
        <ele>1298.3869628906</ele>
        <time>2017-10-07T13:59:27Z</time>
      </trkpt>
      <trkpt lat="43.98793" lon="6.9461">
        <ele>1297.3869628906</ele>
        <time>2017-10-07T13:59:35Z</time>
      </trkpt>
      <trkpt lat="43.98796" lon="6.9462">
        <ele>1298.3869628906</ele>
        <time>2017-10-07T13:59:40Z</time>
      </trkpt>
      <trkpt lat="43.98802" lon="6.94639">
        <ele>1299.3869628906</ele>
        <time>2017-10-07T13:59:48Z</time>
      </trkpt>
      <trkpt lat="43.98811" lon="6.94657">
        <ele>1299.3879394531</ele>
        <time>2017-10-07T13:59:56Z</time>
      </trkpt>
      <trkpt lat="43.98819" lon="6.94663">
        <ele>1299.3879394531</ele>
        <time>2017-10-07T14:00:01Z</time>
      </trkpt>
      <trkpt lat="43.98826" lon="6.94668">
        <ele>1302.3879394531</ele>
        <time>2017-10-07T14:00:07Z</time>
      </trkpt>
      <trkpt lat="43.98832" lon="6.94674">
        <ele>1302.3879394531</ele>
        <time>2017-10-07T14:00:14Z</time>
      </trkpt>
      <trkpt lat="43.98838" lon="6.94682">
        <ele>1303.3879394531</ele>
        <time>2017-10-07T14:00:20Z</time>
      </trkpt>
      <trkpt lat="43.98843" lon="6.94689">
        <ele>1302.3879394531</ele>
        <time>2017-10-07T14:00:25Z</time>
      </trkpt>
      <trkpt lat="43.9885" lon="6.94696">
        <ele>1302.3879394531</ele>
        <time>2017-10-07T14:00:30Z</time>
      </trkpt>
      <trkpt lat="43.98856" lon="6.94704">
        <ele>1304.3879394531</ele>
        <time>2017-10-07T14:00:35Z</time>
      </trkpt>
      <trkpt lat="43.98862" lon="6.94712">
        <ele>1305.3879394531</ele>
        <time>2017-10-07T14:00:40Z</time>
      </trkpt>
      <trkpt lat="43.98867" lon="6.9472">
        <ele>1305.3879394531</ele>
        <time>2017-10-07T14:00:46Z</time>
      </trkpt>
      <trkpt lat="43.98873" lon="6.94727">
        <ele>1307.3879394531</ele>
        <time>2017-10-07T14:00:51Z</time>
      </trkpt>
      <trkpt lat="43.98879" lon="6.94735">
        <ele>1309.3879394531</ele>
        <time>2017-10-07T14:00:56Z</time>
      </trkpt>
      <trkpt lat="43.98891" lon="6.9475">
        <ele>1308.3879394531</ele>
        <time>2017-10-07T14:01:02Z</time>
      </trkpt>
      <trkpt lat="43.98901" lon="6.94768">
        <ele>1308.3879394531</ele>
        <time>2017-10-07T14:01:07Z</time>
      </trkpt>
      <trkpt lat="43.98911" lon="6.94792">
        <ele>1306.3879394531</ele>
        <time>2017-10-07T14:01:12Z</time>
      </trkpt>
      <trkpt lat="43.98918" lon="6.94824">
        <ele>1306.3879394531</ele>
        <time>2017-10-07T14:01:18Z</time>
      </trkpt>
      <trkpt lat="43.98918" lon="6.94865">
        <ele>1307.3879394531</ele>
        <time>2017-10-07T14:01:24Z</time>
      </trkpt>
      <trkpt lat="43.98891" lon="6.94883">
        <ele>1304.3879394531</ele>
        <time>2017-10-07T14:01:30Z</time>
      </trkpt>
      <trkpt lat="43.98866" lon="6.94898">
        <ele>1303.3879394531</ele>
        <time>2017-10-07T14:01:36Z</time>
      </trkpt>
      <trkpt lat="43.98839" lon="6.94912">
        <ele>1303.3879394531</ele>
        <time>2017-10-07T14:01:42Z</time>
      </trkpt>
      <trkpt lat="43.98819" lon="6.94941">
        <ele>1302.3879394531</ele>
        <time>2017-10-07T14:01:48Z</time>
      </trkpt>
      <trkpt lat="43.98814" lon="6.94988">
        <ele>1299.3879394531</ele>
        <time>2017-10-07T14:01:54Z</time>
      </trkpt>
      <trkpt lat="43.98812" lon="6.95038">
        <ele>1299.3879394531</ele>
        <time>2017-10-07T14:02:00Z</time>
      </trkpt>
      <trkpt lat="43.98807" lon="6.95091">
        <ele>1296.3879394531</ele>
        <time>2017-10-07T14:02:06Z</time>
      </trkpt>
      <trkpt lat="43.98796" lon="6.95143">
        <ele>1293.3879394531</ele>
        <time>2017-10-07T14:02:12Z</time>
      </trkpt>
      <trkpt lat="43.98789" lon="6.95186">
        <ele>1292.3890380859</ele>
        <time>2017-10-07T14:02:18Z</time>
      </trkpt>
      <trkpt lat="43.98782" lon="6.95206">
        <ele>1290.3890380859</ele>
        <time>2017-10-07T14:02:23Z</time>
      </trkpt>
      <trkpt lat="43.98789" lon="6.95205">
        <ele>1293.3890380859</ele>
        <time>2017-10-07T14:04:37Z</time>
      </trkpt>
      <trkpt lat="43.98796" lon="6.95202">
        <ele>1295.3890380859</ele>
        <time>2017-10-07T14:04:49Z</time>
      </trkpt>
      <trkpt lat="43.98804" lon="6.95201">
        <ele>1291.3890380859</ele>
        <time>2017-10-07T14:05:02Z</time>
      </trkpt>
      <trkpt lat="43.98822" lon="6.952">
        <ele>1289.3890380859</ele>
        <time>2017-10-07T14:05:07Z</time>
      </trkpt>
      <trkpt lat="43.98843" lon="6.95217">
        <ele>1287.3890380859</ele>
        <time>2017-10-07T14:05:15Z</time>
      </trkpt>
      <trkpt lat="43.98848" lon="6.95238">
        <ele>1284.3890380859</ele>
        <time>2017-10-07T14:05:21Z</time>
      </trkpt>
      <trkpt lat="43.98859" lon="6.95254">
        <ele>1281.3890380859</ele>
        <time>2017-10-07T14:05:27Z</time>
      </trkpt>
      <trkpt lat="43.98874" lon="6.95264">
        <ele>1280.3890380859</ele>
        <time>2017-10-07T14:05:34Z</time>
      </trkpt>
      <trkpt lat="43.98889" lon="6.95274">
        <ele>1278.3890380859</ele>
        <time>2017-10-07T14:05:41Z</time>
      </trkpt>
      <trkpt lat="43.98892" lon="6.95283">
        <ele>1278.3890380859</ele>
        <time>2017-10-07T14:05:49Z</time>
      </trkpt>
      <trkpt lat="43.98897" lon="6.95291">
        <ele>1277.3890380859</ele>
        <time>2017-10-07T14:06:02Z</time>
      </trkpt>
      <trkpt lat="43.98903" lon="6.95301">
        <ele>1275.3890380859</ele>
        <time>2017-10-07T14:06:10Z</time>
      </trkpt>
      <trkpt lat="43.98908" lon="6.95308">
        <ele>1274.3890380859</ele>
        <time>2017-10-07T14:06:19Z</time>
      </trkpt>
      <trkpt lat="43.98912" lon="6.95317">
        <ele>1275.3890380859</ele>
        <time>2017-10-07T14:06:26Z</time>
      </trkpt>
      <trkpt lat="43.98917" lon="6.95325">
        <ele>1276.3890380859</ele>
        <time>2017-10-07T14:06:34Z</time>
      </trkpt>
      <trkpt lat="43.98924" lon="6.95331">
        <ele>1280.3890380859</ele>
        <time>2017-10-07T14:06:42Z</time>
      </trkpt>
      <trkpt lat="43.98928" lon="6.95339">
        <ele>1277.3890380859</ele>
        <time>2017-10-07T14:06:53Z</time>
      </trkpt>
      <trkpt lat="43.98934" lon="6.95346">
        <ele>1275.3890380859</ele>
        <time>2017-10-07T14:09:03Z</time>
      </trkpt>
      <trkpt lat="43.98941" lon="6.95352">
        <ele>1274.3890380859</ele>
        <time>2017-10-07T14:09:08Z</time>
      </trkpt>
      <trkpt lat="43.98947" lon="6.95355">
        <ele>1275.3890380859</ele>
        <time>2017-10-07T14:09:15Z</time>
      </trkpt>
      <trkpt lat="43.98956" lon="6.95356">
        <ele>1276.3890380859</ele>
        <time>2017-10-07T14:09:23Z</time>
      </trkpt>
      <trkpt lat="43.98963" lon="6.95359">
        <ele>1278.3890380859</ele>
        <time>2017-10-07T14:09:31Z</time>
      </trkpt>
      <trkpt lat="43.9897" lon="6.95362">
        <ele>1278.3890380859</ele>
        <time>2017-10-07T14:09:42Z</time>
      </trkpt>
      <trkpt lat="43.98971" lon="6.95373">
        <ele>1287.3890380859</ele>
        <time>2017-10-07T14:10:06Z</time>
      </trkpt>
      <trkpt lat="43.98975" lon="6.95382">
        <ele>1284.3890380859</ele>
        <time>2017-10-07T14:10:13Z</time>
      </trkpt>
      <trkpt lat="43.98978" lon="6.95392">
        <ele>1283.3890380859</ele>
        <time>2017-10-07T14:10:22Z</time>
      </trkpt>
      <trkpt lat="43.9898" lon="6.95402">
        <ele>1283.3890380859</ele>
        <time>2017-10-07T14:10:31Z</time>
      </trkpt>
      <trkpt lat="43.98984" lon="6.95411">
        <ele>1287.3890380859</ele>
        <time>2017-10-07T14:10:43Z</time>
      </trkpt>
      <trkpt lat="43.9899" lon="6.95418">
        <ele>1291.3890380859</ele>
        <time>2017-10-07T14:10:59Z</time>
      </trkpt>
      <trkpt lat="43.98995" lon="6.95426">
        <ele>1293.3890380859</ele>
        <time>2017-10-07T14:11:10Z</time>
      </trkpt>
      <trkpt lat="43.99001" lon="6.95433">
        <ele>1294.3890380859</ele>
        <time>2017-10-07T14:11:31Z</time>
      </trkpt>
      <trkpt lat="43.99006" lon="6.95442">
        <ele>1294.3890380859</ele>
        <time>2017-10-07T14:11:39Z</time>
      </trkpt>
      <trkpt lat="43.99012" lon="6.95449">
        <ele>1295.3890380859</ele>
        <time>2017-10-07T14:11:44Z</time>
      </trkpt>
      <trkpt lat="43.99017" lon="6.95456">
        <ele>1293.3890380859</ele>
        <time>2017-10-07T14:11:50Z</time>
      </trkpt>
      <trkpt lat="43.99024" lon="6.95463">
        <ele>1290.3890380859</ele>
        <time>2017-10-07T14:11:56Z</time>
      </trkpt>
      <trkpt lat="43.9903" lon="6.9547">
        <ele>1287.3890380859</ele>
        <time>2017-10-07T14:12:01Z</time>
      </trkpt>
      <trkpt lat="43.99036" lon="6.95479">
        <ele>1288.3890380859</ele>
        <time>2017-10-07T14:12:07Z</time>
      </trkpt>
      <trkpt lat="43.99039" lon="6.9549">
        <ele>1287.3900146484</ele>
        <time>2017-10-07T14:12:14Z</time>
      </trkpt>
      <trkpt lat="43.99044" lon="6.95497">
        <ele>1287.3900146484</ele>
        <time>2017-10-07T14:12:20Z</time>
      </trkpt>
      <trkpt lat="43.99049" lon="6.95506">
        <ele>1287.3900146484</ele>
        <time>2017-10-07T14:12:26Z</time>
      </trkpt>
      <trkpt lat="43.99052" lon="6.95516">
        <ele>1288.3900146484</ele>
        <time>2017-10-07T14:12:34Z</time>
      </trkpt>
      <trkpt lat="43.99056" lon="6.95525">
        <ele>1289.3900146484</ele>
        <time>2017-10-07T14:12:41Z</time>
      </trkpt>
      <trkpt lat="43.99063" lon="6.95531">
        <ele>1294.3900146484</ele>
        <time>2017-10-07T14:12:49Z</time>
      </trkpt>
      <trkpt lat="43.9907" lon="6.95531">
        <ele>1304.3900146484</ele>
        <time>2017-10-07T14:13:23Z</time>
      </trkpt>
      <trkpt lat="43.99077" lon="6.95533">
        <ele>1307.3900146484</ele>
        <time>2017-10-07T14:13:41Z</time>
      </trkpt>
      <trkpt lat="43.99085" lon="6.95534">
        <ele>1308.3900146484</ele>
        <time>2017-10-07T14:14:03Z</time>
      </trkpt>
      <trkpt lat="43.99089" lon="6.95542">
        <ele>1309.3900146484</ele>
        <time>2017-10-07T14:14:22Z</time>
      </trkpt>
      <trkpt lat="43.99095" lon="6.9555">
        <ele>1313.3900146484</ele>
        <time>2017-10-07T14:14:38Z</time>
      </trkpt>
      <trkpt lat="43.991" lon="6.95559">
        <ele>1312.3900146484</ele>
        <time>2017-10-07T14:14:44Z</time>
      </trkpt>
      <trkpt lat="43.99105" lon="6.95566">
        <ele>1314.3900146484</ele>
        <time>2017-10-07T14:14:56Z</time>
      </trkpt>
      <trkpt lat="43.99109" lon="6.95575">
        <ele>1316.3900146484</ele>
        <time>2017-10-07T14:15:05Z</time>
      </trkpt>
      <trkpt lat="43.99111" lon="6.95585">
        <ele>1318.3900146484</ele>
        <time>2017-10-07T14:15:14Z</time>
      </trkpt>
      <trkpt lat="43.99115" lon="6.95595">
        <ele>1318.3900146484</ele>
        <time>2017-10-07T14:15:23Z</time>
      </trkpt>
      <trkpt lat="43.99121" lon="6.95602">
        <ele>1319.3900146484</ele>
        <time>2017-10-07T14:15:30Z</time>
      </trkpt>
      <trkpt lat="43.99127" lon="6.95608">
        <ele>1319.3900146484</ele>
        <time>2017-10-07T14:15:38Z</time>
      </trkpt>
      <trkpt lat="43.99133" lon="6.95614">
        <ele>1322.3900146484</ele>
        <time>2017-10-07T14:15:49Z</time>
      </trkpt>
      <trkpt lat="43.99138" lon="6.95622">
        <ele>1324.3900146484</ele>
        <time>2017-10-07T14:16:00Z</time>
      </trkpt>
      <trkpt lat="43.99144" lon="6.9563">
        <ele>1328.3900146484</ele>
        <time>2017-10-07T14:16:11Z</time>
      </trkpt>
      <trkpt lat="43.9915" lon="6.95635">
        <ele>1329.3900146484</ele>
        <time>2017-10-07T14:16:22Z</time>
      </trkpt>
      <trkpt lat="43.99155" lon="6.95644">
        <ele>1326.3900146484</ele>
        <time>2017-10-07T14:16:32Z</time>
      </trkpt>
      <trkpt lat="43.99159" lon="6.95653">
        <ele>1329.3900146484</ele>
        <time>2017-10-07T14:16:39Z</time>
      </trkpt>
      <trkpt lat="43.99161" lon="6.95664">
        <ele>1332.3900146484</ele>
        <time>2017-10-07T14:16:47Z</time>
      </trkpt>
      <trkpt lat="43.99163" lon="6.95675">
        <ele>1330.3900146484</ele>
        <time>2017-10-07T14:17:01Z</time>
      </trkpt>
      <trkpt lat="43.99163" lon="6.95685">
        <ele>1332.3900146484</ele>
        <time>2017-10-07T14:17:12Z</time>
      </trkpt>
      <trkpt lat="43.99168" lon="6.95693">
        <ele>1335.3900146484</ele>
        <time>2017-10-07T14:17:24Z</time>
      </trkpt>
      <trkpt lat="43.99171" lon="6.95702">
        <ele>1332.3900146484</ele>
        <time>2017-10-07T14:17:55Z</time>
      </trkpt>
      <trkpt lat="43.99174" lon="6.95716">
        <ele>1332.3900146484</ele>
        <time>2017-10-07T14:20:15Z</time>
      </trkpt>
      <trkpt lat="43.99172" lon="6.95738">
        <ele>1328.3900146484</ele>
        <time>2017-10-07T14:20:20Z</time>
      </trkpt>
      <trkpt lat="43.9917" lon="6.95761">
        <ele>1324.3900146484</ele>
        <time>2017-10-07T14:20:25Z</time>
      </trkpt>
      <trkpt lat="43.9917" lon="6.95787">
        <ele>1318.3900146484</ele>
        <time>2017-10-07T14:20:31Z</time>
      </trkpt>
      <trkpt lat="43.99165" lon="6.95807">
        <ele>1315.3900146484</ele>
        <time>2017-10-07T14:20:39Z</time>
      </trkpt>
      <trkpt lat="43.99163" lon="6.95817">
        <ele>1314.3900146484</ele>
        <time>2017-10-07T14:20:44Z</time>
      </trkpt>
      <trkpt lat="43.99164" lon="6.95838">
        <ele>1310.3900146484</ele>
        <time>2017-10-07T14:20:51Z</time>
      </trkpt>
      <trkpt lat="43.99159" lon="6.95856">
        <ele>1304.3900146484</ele>
        <time>2017-10-07T14:20:58Z</time>
      </trkpt>
      <trkpt lat="43.9916" lon="6.95873">
        <ele>1296.3900146484</ele>
        <time>2017-10-07T14:21:21Z</time>
      </trkpt>
      <trkpt lat="43.99166" lon="6.9589">
        <ele>1288.3909912109</ele>
        <time>2017-10-07T14:21:29Z</time>
      </trkpt>
      <trkpt lat="43.99168" lon="6.95913">
        <ele>1286.3909912109</ele>
        <time>2017-10-07T14:21:35Z</time>
      </trkpt>
      <trkpt lat="43.99171" lon="6.95937">
        <ele>1283.3909912109</ele>
        <time>2017-10-07T14:21:40Z</time>
      </trkpt>
      <trkpt lat="43.99173" lon="6.95961">
        <ele>1277.3909912109</ele>
        <time>2017-10-07T14:21:45Z</time>
      </trkpt>
      <trkpt lat="43.99176" lon="6.95986">
        <ele>1275.3909912109</ele>
        <time>2017-10-07T14:21:51Z</time>
      </trkpt>
      <trkpt lat="43.99183" lon="6.95991">
        <ele>1273.3909912109</ele>
        <time>2017-10-07T14:21:56Z</time>
      </trkpt>
      <trkpt lat="43.9919" lon="6.95995">
        <ele>1272.3909912109</ele>
        <time>2017-10-07T14:22:01Z</time>
      </trkpt>
      <trkpt lat="43.99202" lon="6.96011">
        <ele>1269.3909912109</ele>
        <time>2017-10-07T14:22:13Z</time>
      </trkpt>
      <trkpt lat="43.99212" lon="6.96033">
        <ele>1267.3909912109</ele>
        <time>2017-10-07T14:22:18Z</time>
      </trkpt>
      <trkpt lat="43.9923" lon="6.9607">
        <ele>1260.3909912109</ele>
        <time>2017-10-07T14:22:24Z</time>
      </trkpt>
      <trkpt lat="43.99252" lon="6.96106">
        <ele>1256.3909912109</ele>
        <time>2017-10-07T14:22:30Z</time>
      </trkpt>
      <trkpt lat="43.99273" lon="6.96132">
        <ele>1256.3909912109</ele>
        <time>2017-10-07T14:22:36Z</time>
      </trkpt>
      <trkpt lat="43.99289" lon="6.96162">
        <ele>1253.3909912109</ele>
        <time>2017-10-07T14:22:42Z</time>
      </trkpt>
      <trkpt lat="43.99309" lon="6.96187">
        <ele>1244.3909912109</ele>
        <time>2017-10-07T14:22:50Z</time>
      </trkpt>
      <trkpt lat="43.99314" lon="6.96202">
        <ele>1246.3909912109</ele>
        <time>2017-10-07T14:24:13Z</time>
      </trkpt>
      <trkpt lat="43.9933" lon="6.96241">
        <ele>1240.3909912109</ele>
        <time>2017-10-07T14:24:18Z</time>
      </trkpt>
      <trkpt lat="43.99342" lon="6.96292">
        <ele>1232.3919677734</ele>
        <time>2017-10-07T14:24:24Z</time>
      </trkpt>
      <trkpt lat="43.99346" lon="6.96334">
        <ele>1227.3919677734</ele>
        <time>2017-10-07T14:24:29Z</time>
      </trkpt>
      <trkpt lat="43.99338" lon="6.96346">
        <ele>1221.3919677734</ele>
        <time>2017-10-07T14:24:31Z</time>
      </trkpt>
      <trkpt lat="43.99337" lon="6.96357">
        <ele>1215.3919677734</ele>
        <time>2017-10-07T14:24:33Z</time>
      </trkpt>
      <trkpt lat="43.99344" lon="6.96385">
        <ele>1211.3919677734</ele>
        <time>2017-10-07T14:24:37Z</time>
      </trkpt>
      <trkpt lat="43.99351" lon="6.9643">
        <ele>1211.3919677734</ele>
        <time>2017-10-07T14:24:43Z</time>
      </trkpt>
      <trkpt lat="43.99366" lon="6.96472">
        <ele>1207.3919677734</ele>
        <time>2017-10-07T14:24:49Z</time>
      </trkpt>
      <trkpt lat="43.99379" lon="6.96514">
        <ele>1203.3919677734</ele>
        <time>2017-10-07T14:24:55Z</time>
      </trkpt>
      <trkpt lat="43.99387" lon="6.96558">
        <ele>1194.3919677734</ele>
        <time>2017-10-07T14:25:01Z</time>
      </trkpt>
      <trkpt lat="43.99389" lon="6.96605">
        <ele>1188.3919677734</ele>
        <time>2017-10-07T14:25:07Z</time>
      </trkpt>
      <trkpt lat="43.99402" lon="6.96644">
        <ele>1180.3919677734</ele>
        <time>2017-10-07T14:25:13Z</time>
      </trkpt>
      <trkpt lat="43.99427" lon="6.9669">
        <ele>1161.3929443359</ele>
        <time>2017-10-07T14:25:19Z</time>
      </trkpt>
      <trkpt lat="43.99433" lon="6.9673">
        <ele>1155.3929443359</ele>
        <time>2017-10-07T14:25:25Z</time>
      </trkpt>
      <trkpt lat="43.99443" lon="6.96767">
        <ele>1151.3929443359</ele>
        <time>2017-10-07T14:25:31Z</time>
      </trkpt>
      <trkpt lat="43.99455" lon="6.96805">
        <ele>1146.3929443359</ele>
        <time>2017-10-07T14:25:36Z</time>
      </trkpt>
      <trkpt lat="43.9946" lon="6.96853">
        <ele>1140.3929443359</ele>
        <time>2017-10-07T14:25:42Z</time>
      </trkpt>
      <trkpt lat="43.99471" lon="6.96898">
        <ele>1138.3929443359</ele>
        <time>2017-10-07T14:25:48Z</time>
      </trkpt>
      <trkpt lat="43.99476" lon="6.96942">
        <ele>1134.3929443359</ele>
        <time>2017-10-07T14:25:54Z</time>
      </trkpt>
      <trkpt lat="43.99481" lon="6.96967">
        <ele>1131.3929443359</ele>
        <time>2017-10-07T14:26:00Z</time>
      </trkpt>
      <trkpt lat="43.99488" lon="6.9699">
        <ele>1126.3929443359</ele>
        <time>2017-10-07T14:26:06Z</time>
      </trkpt>
      <trkpt lat="43.9948" lon="6.97004">
        <ele>1113.3929443359</ele>
        <time>2017-10-07T14:27:12Z</time>
      </trkpt>
      <trkpt lat="43.99476" lon="6.96996">
        <ele>1111.3929443359</ele>
        <time>2017-10-07T14:27:33Z</time>
      </trkpt>
      <trkpt lat="43.99477" lon="6.97006">
        <ele>1106.3929443359</ele>
        <time>2017-10-07T14:27:52Z</time>
      </trkpt>
      <trkpt lat="43.99476" lon="6.97031">
        <ele>1100.3929443359</ele>
        <time>2017-10-07T14:27:59Z</time>
      </trkpt>
      <trkpt lat="43.99483" lon="6.97065">
        <ele>1092.3929443359</ele>
        <time>2017-10-07T14:28:05Z</time>
      </trkpt>
      <trkpt lat="43.99491" lon="6.97085">
        <ele>1088.3929443359</ele>
        <time>2017-10-07T14:28:11Z</time>
      </trkpt>
      <trkpt lat="43.99498" lon="6.97104">
        <ele>1085.3929443359</ele>
        <time>2017-10-07T14:28:19Z</time>
      </trkpt>
      <trkpt lat="43.99501" lon="6.97114">
        <ele>1083.3929443359</ele>
        <time>2017-10-07T14:28:25Z</time>
      </trkpt>
      <trkpt lat="43.9951" lon="6.97133">
        <ele>1077.3940429688</ele>
        <time>2017-10-07T14:28:30Z</time>
      </trkpt>
      <trkpt lat="43.99519" lon="6.97155">
        <ele>1072.3940429688</ele>
        <time>2017-10-07T14:28:36Z</time>
      </trkpt>
      <trkpt lat="43.99505" lon="6.97165">
        <ele>1066.3940429688</ele>
        <time>2017-10-07T14:28:43Z</time>
      </trkpt>
      <trkpt lat="43.99489" lon="6.97164">
        <ele>1061.3940429688</ele>
        <time>2017-10-07T14:28:49Z</time>
      </trkpt>
      <trkpt lat="43.99483" lon="6.97173">
        <ele>1054.3940429688</ele>
        <time>2017-10-07T14:28:58Z</time>
      </trkpt>
      <trkpt lat="43.99489" lon="6.97195">
        <ele>1049.3940429688</ele>
        <time>2017-10-07T14:29:16Z</time>
      </trkpt>
      <trkpt lat="43.99475" lon="6.97194">
        <ele>1044.3940429688</ele>
        <time>2017-10-07T14:29:22Z</time>
      </trkpt>
      <trkpt lat="43.99468" lon="6.97192">
        <ele>1040.3940429688</ele>
        <time>2017-10-07T14:29:53Z</time>
      </trkpt>
      <trkpt lat="43.99461" lon="6.97181">
        <ele>1041.3940429688</ele>
        <time>2017-10-07T14:30:04Z</time>
      </trkpt>
      <trkpt lat="43.99449" lon="6.97168">
        <ele>1034.3940429688</ele>
        <time>2017-10-07T14:30:10Z</time>
      </trkpt>
      <trkpt lat="43.99436" lon="6.97157">
        <ele>1031.3929443359</ele>
        <time>2017-10-07T14:30:16Z</time>
      </trkpt>
      <trkpt lat="43.99423" lon="6.97141">
        <ele>1028.3929443359</ele>
        <time>2017-10-07T14:30:24Z</time>
      </trkpt>
      <trkpt lat="43.99422" lon="6.97151">
        <ele>1026.3929443359</ele>
        <time>2017-10-07T14:30:32Z</time>
      </trkpt>
      <trkpt lat="43.99416" lon="6.97162">
        <ele>1022.3930053711</ele>
        <time>2017-10-07T14:30:50Z</time>
      </trkpt>
      <trkpt lat="43.99405" lon="6.97163">
        <ele>1013.3930053711</ele>
        <time>2017-10-07T14:31:02Z</time>
      </trkpt>
      <trkpt lat="43.99409" lon="6.97187">
        <ele>1008.3930053711</ele>
        <time>2017-10-07T14:31:08Z</time>
      </trkpt>
      <trkpt lat="43.9941" lon="6.97211">
        <ele>1002.3939819336</ele>
        <time>2017-10-07T14:31:14Z</time>
      </trkpt>
      <trkpt lat="43.99414" lon="6.97245">
        <ele>997.39398193359</ele>
        <time>2017-10-07T14:31:20Z</time>
      </trkpt>
      <trkpt lat="43.99412" lon="6.97266">
        <ele>994.39398193359</ele>
        <time>2017-10-07T14:31:28Z</time>
      </trkpt>
      <trkpt lat="43.99405" lon="6.97257">
        <ele>992.39398193359</ele>
        <time>2017-10-07T14:31:32Z</time>
      </trkpt>
      <trkpt lat="43.99393" lon="6.97245">
        <ele>982.39398193359</ele>
        <time>2017-10-07T14:31:50Z</time>
      </trkpt>
      <trkpt lat="43.99382" lon="6.97228">
        <ele>977.39398193359</ele>
        <time>2017-10-07T14:31:57Z</time>
      </trkpt>
      <trkpt lat="43.99369" lon="6.97225">
        <ele>971.39300537109</ele>
        <time>2017-10-07T14:33:01Z</time>
      </trkpt>
      <trkpt lat="43.99371" lon="6.97236">
        <ele>971.39398193359</ele>
        <time>2017-10-07T14:33:11Z</time>
      </trkpt>
      <trkpt lat="43.99369" lon="6.97246">
        <ele>972.39398193359</ele>
        <time>2017-10-07T14:33:22Z</time>
      </trkpt>
      <trkpt lat="43.99364" lon="6.97255">
        <ele>976.39398193359</ele>
        <time>2017-10-07T14:33:46Z</time>
      </trkpt>
      <trkpt lat="43.99357" lon="6.97256">
        <ele>975.39398193359</ele>
        <time>2017-10-07T14:33:57Z</time>
      </trkpt>
      <trkpt lat="43.99348" lon="6.97256">
        <ele>976.39398193359</ele>
        <time>2017-10-07T14:34:06Z</time>
      </trkpt>
      <trkpt lat="43.99342" lon="6.97263">
        <ele>980.39398193359</ele>
        <time>2017-10-07T14:34:15Z</time>
      </trkpt>
      <trkpt lat="43.99339" lon="6.97273">
        <ele>979.39398193359</ele>
        <time>2017-10-07T14:34:22Z</time>
      </trkpt>
      <trkpt lat="43.99335" lon="6.97282">
        <ele>978.39398193359</ele>
        <time>2017-10-07T14:34:35Z</time>
      </trkpt>
      <trkpt lat="43.99328" lon="6.97307">
        <ele>976.39398193359</ele>
        <time>2017-10-07T14:34:43Z</time>
      </trkpt>
      <trkpt lat="43.99318" lon="6.97336">
        <ele>974.39398193359</ele>
        <time>2017-10-07T14:34:51Z</time>
      </trkpt>
      <trkpt lat="43.99313" lon="6.97342">
        <ele>968.39398193359</ele>
        <time>2017-10-07T14:35:01Z</time>
      </trkpt>
      <trkpt lat="43.99318" lon="6.97354">
        <ele>967.39398193359</ele>
        <time>2017-10-07T14:35:08Z</time>
      </trkpt>
      <trkpt lat="43.99319" lon="6.97369">
        <ele>964.39398193359</ele>
        <time>2017-10-07T14:35:11Z</time>
      </trkpt>
      <trkpt lat="43.99316" lon="6.97379">
        <ele>962.39398193359</ele>
        <time>2017-10-07T14:35:14Z</time>
      </trkpt>
      <trkpt lat="43.99309" lon="6.97382">
        <ele>961.39398193359</ele>
        <time>2017-10-07T14:35:17Z</time>
      </trkpt>
      <trkpt lat="43.99295" lon="6.97395">
        <ele>959.39398193359</ele>
        <time>2017-10-07T14:35:24Z</time>
      </trkpt>
      <trkpt lat="43.99297" lon="6.97405">
        <ele>959.39398193359</ele>
        <time>2017-10-07T14:35:37Z</time>
      </trkpt>
      <trkpt lat="43.99301" lon="6.97425">
        <ele>956.39398193359</ele>
        <time>2017-10-07T14:35:44Z</time>
      </trkpt>
      <trkpt lat="43.993" lon="6.97436">
        <ele>953.39398193359</ele>
        <time>2017-10-07T14:35:55Z</time>
      </trkpt>
      <trkpt lat="43.99301" lon="6.97467">
        <ele>952.39398193359</ele>
        <time>2017-10-07T14:36:01Z</time>
      </trkpt>
      <trkpt lat="43.99299" lon="6.97477">
        <ele>952.39398193359</ele>
        <time>2017-10-07T14:37:35Z</time>
      </trkpt>
      <trkpt lat="43.99301" lon="6.97489">
        <ele>951.39398193359</ele>
        <time>2017-10-07T14:37:40Z</time>
      </trkpt>
      <trkpt lat="43.99298" lon="6.97513">
        <ele>948.39398193359</ele>
        <time>2017-10-07T14:37:45Z</time>
      </trkpt>
      <trkpt lat="43.99302" lon="6.97539">
        <ele>950.39398193359</ele>
        <time>2017-10-07T14:37:51Z</time>
      </trkpt>
      <trkpt lat="43.99305" lon="6.97571">
        <ele>949.39398193359</ele>
        <time>2017-10-07T14:37:57Z</time>
      </trkpt>
      <trkpt lat="43.99313" lon="6.97604">
        <ele>949.39398193359</ele>
        <time>2017-10-07T14:38:03Z</time>
      </trkpt>
      <trkpt lat="43.99309" lon="6.97643">
        <ele>948.39398193359</ele>
        <time>2017-10-07T14:38:09Z</time>
      </trkpt>
      <trkpt lat="43.99305" lon="6.9768">
        <ele>944.39398193359</ele>
        <time>2017-10-07T14:38:15Z</time>
      </trkpt>
      <trkpt lat="43.99304" lon="6.97717">
        <ele>941.39398193359</ele>
        <time>2017-10-07T14:38:21Z</time>
      </trkpt>
      <trkpt lat="43.99308" lon="6.97758">
        <ele>936.39398193359</ele>
        <time>2017-10-07T14:38:27Z</time>
      </trkpt>
      <trkpt lat="43.99298" lon="6.97791">
        <ele>931.39501953125</ele>
        <time>2017-10-07T14:38:33Z</time>
      </trkpt>
      <trkpt lat="43.99284" lon="6.97799">
        <ele>929.39501953125</ele>
        <time>2017-10-07T14:38:40Z</time>
      </trkpt>
      <trkpt lat="43.99278" lon="6.97806">
        <ele>931.39501953125</ele>
        <time>2017-10-07T14:38:46Z</time>
      </trkpt>
      <trkpt lat="43.99274" lon="6.97816">
        <ele>930.39501953125</ele>
        <time>2017-10-07T14:38:57Z</time>
      </trkpt>
      <trkpt lat="43.99269" lon="6.97835">
        <ele>928.39501953125</ele>
        <time>2017-10-07T14:39:04Z</time>
      </trkpt>
      <trkpt lat="43.99264" lon="6.9786">
        <ele>923.39501953125</ele>
        <time>2017-10-07T14:39:10Z</time>
      </trkpt>
      <trkpt lat="43.99253" lon="6.97876">
        <ele>917.39501953125</ele>
        <time>2017-10-07T14:40:03Z</time>
      </trkpt>
      <trkpt lat="43.99243" lon="6.97894">
        <ele>910.39501953125</ele>
        <time>2017-10-07T14:40:13Z</time>
      </trkpt>
      <trkpt lat="43.99244" lon="6.97905">
        <ele>906.39501953125</ele>
        <time>2017-10-07T14:40:21Z</time>
      </trkpt>
      <trkpt lat="43.99235" lon="6.97908">
        <ele>908.39501953125</ele>
        <time>2017-10-07T14:41:15Z</time>
      </trkpt>
      <trkpt lat="43.99219" lon="6.97901">
        <ele>905.39501953125</ele>
        <time>2017-10-07T14:41:21Z</time>
      </trkpt>
      <trkpt lat="43.99214" lon="6.97912">
        <ele>898.39501953125</ele>
        <time>2017-10-07T14:42:18Z</time>
      </trkpt>
      <trkpt lat="43.99221" lon="6.9795">
        <ele>893.39501953125</ele>
        <time>2017-10-07T14:42:24Z</time>
      </trkpt>
      <trkpt lat="43.9921" lon="6.97943">
        <ele>879.39501953125</ele>
        <time>2017-10-07T14:46:22Z</time>
      </trkpt>
      <trkpt lat="43.992" lon="6.97923">
        <ele>875.39501953125</ele>
        <time>2017-10-07T14:46:27Z</time>
      </trkpt>
      <trkpt lat="43.99183" lon="6.97899">
        <ele>872.39501953125</ele>
        <time>2017-10-07T14:46:33Z</time>
      </trkpt>
      <trkpt lat="43.99173" lon="6.97872">
        <ele>867.39398193359</ele>
        <time>2017-10-07T14:47:31Z</time>
      </trkpt>
      <trkpt lat="43.99171" lon="6.97884">
        <ele>865.39501953125</ele>
        <time>2017-10-07T14:48:36Z</time>
      </trkpt>
      <trkpt lat="43.99166" lon="6.97904">
        <ele>857.39501953125</ele>
        <time>2017-10-07T14:48:43Z</time>
      </trkpt>
      <trkpt lat="43.99158" lon="6.97922">
        <ele>852.39501953125</ele>
        <time>2017-10-07T14:48:52Z</time>
      </trkpt>
      <trkpt lat="43.99152" lon="6.97926">
        <ele>849.39501953125</ele>
        <time>2017-10-07T14:49:30Z</time>
      </trkpt>
      <trkpt lat="43.99145" lon="6.97922">
        <ele>846.39501953125</ele>
        <time>2017-10-07T14:49:48Z</time>
      </trkpt>
      <trkpt lat="43.99139" lon="6.97913">
        <ele>842.39501953125</ele>
        <time>2017-10-07T14:49:53Z</time>
      </trkpt>
      <trkpt lat="43.99131" lon="6.97907">
        <ele>840.39501953125</ele>
        <time>2017-10-07T14:49:58Z</time>
      </trkpt>
      <trkpt lat="43.99119" lon="6.97897">
        <ele>835.39398193359</ele>
        <time>2017-10-07T14:50:05Z</time>
      </trkpt>
      <trkpt lat="43.99116" lon="6.97907">
        <ele>832.39398193359</ele>
        <time>2017-10-07T14:50:16Z</time>
      </trkpt>
      <trkpt lat="43.99117" lon="6.97919">
        <ele>829.39501953125</ele>
        <time>2017-10-07T14:52:07Z</time>
      </trkpt>
      <trkpt lat="43.99126" lon="6.97949">
        <ele>828.39501953125</ele>
        <time>2017-10-07T14:52:14Z</time>
      </trkpt>
      <trkpt lat="43.99119" lon="6.97943">
        <ele>823.39501953125</ele>
        <time>2017-10-07T14:52:26Z</time>
      </trkpt>
      <trkpt lat="43.99114" lon="6.97937">
        <ele>821.39501953125</ele>
        <time>2017-10-07T14:52:33Z</time>
      </trkpt>
      <trkpt lat="43.99114" lon="6.97947">
        <ele>819.39501953125</ele>
        <time>2017-10-07T14:52:43Z</time>
      </trkpt>
      <trkpt lat="43.99116" lon="6.9796">
        <ele>814.39501953125</ele>
        <time>2017-10-07T14:53:05Z</time>
      </trkpt>
      <trkpt lat="43.99116" lon="6.97971">
        <ele>812.39501953125</ele>
        <time>2017-10-07T14:53:10Z</time>
      </trkpt>
      <trkpt lat="43.99115" lon="6.97983">
        <ele>810.39501953125</ele>
        <time>2017-10-07T14:53:15Z</time>
      </trkpt>
      <trkpt lat="43.9911" lon="6.9799">
        <ele>803.39501953125</ele>
        <time>2017-10-07T14:53:42Z</time>
      </trkpt>
      <trkpt lat="43.9911" lon="6.98003">
        <ele>799.39501953125</ele>
        <time>2017-10-07T14:53:47Z</time>
      </trkpt>
      <trkpt lat="43.99115" lon="6.98011">
        <ele>800.39501953125</ele>
        <time>2017-10-07T14:53:53Z</time>
      </trkpt>
      <trkpt lat="43.99117" lon="6.98021">
        <ele>798.39501953125</ele>
        <time>2017-10-07T14:54:04Z</time>
      </trkpt>
      <trkpt lat="43.99121" lon="6.98033">
        <ele>796.39501953125</ele>
        <time>2017-10-07T14:54:11Z</time>
      </trkpt>
      <trkpt lat="43.99122" lon="6.98054">
        <ele>791.39501953125</ele>
        <time>2017-10-07T14:54:17Z</time>
      </trkpt>
      <trkpt lat="43.99128" lon="6.9808">
        <ele>790.39501953125</ele>
        <time>2017-10-07T14:54:23Z</time>
      </trkpt>
      <trkpt lat="43.99138" lon="6.98118">
        <ele>788.39501953125</ele>
        <time>2017-10-07T14:54:29Z</time>
      </trkpt>
      <trkpt lat="43.9914" lon="6.98141">
        <ele>789.39501953125</ele>
        <time>2017-10-07T14:54:34Z</time>
      </trkpt>
      <trkpt lat="43.99138" lon="6.98168">
        <ele>788.39501953125</ele>
        <time>2017-10-07T14:54:40Z</time>
      </trkpt>
      <trkpt lat="43.99137" lon="6.9819">
        <ele>784.39501953125</ele>
        <time>2017-10-07T14:54:47Z</time>
      </trkpt>
      <trkpt lat="43.99137" lon="6.98214">
        <ele>782.39501953125</ele>
        <time>2017-10-07T14:54:53Z</time>
      </trkpt>
      <trkpt lat="43.99139" lon="6.98226">
        <ele>780.39501953125</ele>
        <time>2017-10-07T14:54:55Z</time>
      </trkpt>
      <trkpt lat="43.99146" lon="6.98249">
        <ele>778.39501953125</ele>
        <time>2017-10-07T14:55:00Z</time>
      </trkpt>
      <trkpt lat="43.99153" lon="6.98272">
        <ele>773.39501953125</ele>
        <time>2017-10-07T14:55:05Z</time>
      </trkpt>
      <trkpt lat="43.99158" lon="6.98294">
        <ele>767.39501953125</ele>
        <time>2017-10-07T14:55:15Z</time>
      </trkpt>
      <trkpt lat="43.99158" lon="6.98314">
        <ele>764.39501953125</ele>
        <time>2017-10-07T14:55:22Z</time>
      </trkpt>
      <trkpt lat="43.99161" lon="6.9834">
        <ele>763.39501953125</ele>
        <time>2017-10-07T14:55:28Z</time>
      </trkpt>
      <trkpt lat="43.99154" lon="6.98362">
        <ele>761.39501953125</ele>
        <time>2017-10-07T14:55:35Z</time>
      </trkpt>
      <trkpt lat="43.99157" lon="6.98384">
        <ele>764.39501953125</ele>
        <time>2017-10-07T14:55:43Z</time>
      </trkpt>
      <trkpt lat="43.9916" lon="6.98395">
        <ele>761.39599609375</ele>
        <time>2017-10-07T14:55:51Z</time>
      </trkpt>
      <trkpt lat="43.99161" lon="6.98421">
        <ele>760.39599609375</ele>
        <time>2017-10-07T14:55:57Z</time>
      </trkpt>
      <trkpt lat="43.99155" lon="6.9844">
        <ele>750.39599609375</ele>
        <time>2017-10-07T14:56:04Z</time>
      </trkpt>
      <trkpt lat="43.99148" lon="6.98437">
        <ele>745.39599609375</ele>
        <time>2017-10-07T14:56:10Z</time>
      </trkpt>
      <trkpt lat="43.99143" lon="6.98427">
        <ele>742.39599609375</ele>
        <time>2017-10-07T14:56:16Z</time>
      </trkpt>
      <trkpt lat="43.99137" lon="6.98418">
        <ele>740.39599609375</ele>
        <time>2017-10-07T14:56:59Z</time>
      </trkpt>
      <trkpt lat="43.99131" lon="6.98425">
        <ele>737.39599609375</ele>
        <time>2017-10-07T14:57:08Z</time>
      </trkpt>
      <trkpt lat="43.99119" lon="6.98441">
        <ele>735.39599609375</ele>
        <time>2017-10-07T14:57:14Z</time>
      </trkpt>
      <trkpt lat="43.99115" lon="6.98429">
        <ele>733.39599609375</ele>
        <time>2017-10-07T14:57:19Z</time>
      </trkpt>
      <trkpt lat="43.99107" lon="6.98434">
        <ele>731.39599609375</ele>
        <time>2017-10-07T14:57:24Z</time>
      </trkpt>
      <trkpt lat="43.99092" lon="6.9844">
        <ele>721.39599609375</ele>
        <time>2017-10-07T14:59:50Z</time>
      </trkpt>
      <trkpt lat="43.99087" lon="6.98448">
        <ele>717.39599609375</ele>
        <time>2017-10-07T14:59:55Z</time>
      </trkpt>
      <trkpt lat="43.99082" lon="6.98456">
        <ele>714.39599609375</ele>
        <time>2017-10-07T15:00:02Z</time>
      </trkpt>
      <trkpt lat="43.99075" lon="6.9846">
        <ele>711.39599609375</ele>
        <time>2017-10-07T15:00:26Z</time>
      </trkpt>
      <trkpt lat="43.99071" lon="6.98469">
        <ele>711.39599609375</ele>
        <time>2017-10-07T15:00:49Z</time>
      </trkpt>
      <trkpt lat="43.99066" lon="6.98461">
        <ele>706.39599609375</ele>
        <time>2017-10-07T15:01:07Z</time>
      </trkpt>
      <trkpt lat="43.99059" lon="6.98462">
        <ele>703.39599609375</ele>
        <time>2017-10-07T15:01:23Z</time>
      </trkpt>
      <trkpt lat="43.99051" lon="6.98462">
        <ele>697.39501953125</ele>
        <time>2017-10-07T15:02:01Z</time>
      </trkpt>
      <trkpt lat="43.99044" lon="6.9846">
        <ele>695.39501953125</ele>
        <time>2017-10-07T15:02:17Z</time>
      </trkpt>
      <trkpt lat="43.99038" lon="6.98466">
        <ele>692.39501953125</ele>
        <time>2017-10-07T15:02:25Z</time>
      </trkpt>
      <trkpt lat="43.99031" lon="6.98471">
        <ele>691.39501953125</ele>
        <time>2017-10-07T15:02:33Z</time>
      </trkpt>
      <trkpt lat="43.99022" lon="6.98471">
        <ele>686.39501953125</ele>
        <time>2017-10-07T15:02:38Z</time>
      </trkpt>
      <trkpt lat="43.99014" lon="6.98471">
        <ele>677.39501953125</ele>
        <time>2017-10-07T15:03:40Z</time>
      </trkpt>
      <trkpt lat="43.99008" lon="6.98479">
        <ele>669.39501953125</ele>
        <time>2017-10-07T15:03:56Z</time>
      </trkpt>
      <trkpt lat="43.99007" lon="6.98489">
        <ele>665.39501953125</ele>
        <time>2017-10-07T15:04:02Z</time>
      </trkpt>
      <trkpt lat="43.99001" lon="6.98497">
        <ele>658.39501953125</ele>
        <time>2017-10-07T15:04:36Z</time>
      </trkpt>
      <trkpt lat="43.99" lon="6.98519">
        <ele>654.39599609375</ele>
        <time>2017-10-07T15:04:42Z</time>
      </trkpt>
      <trkpt lat="43.99" lon="6.98544">
        <ele>650.39599609375</ele>
        <time>2017-10-07T15:04:47Z</time>
      </trkpt>
      <trkpt lat="43.98992" lon="6.98563">
        <ele>643.39599609375</ele>
        <time>2017-10-07T15:04:54Z</time>
      </trkpt>
      <trkpt lat="43.98993" lon="6.98583">
        <ele>634.39599609375</ele>
        <time>2017-10-07T15:05:02Z</time>
      </trkpt>
      <trkpt lat="43.9899" lon="6.98574">
        <ele>638.39599609375</ele>
        <time>2017-10-07T15:09:13Z</time>
      </trkpt>
      <trkpt lat="43.98974" lon="6.98568">
        <ele>634.39599609375</ele>
        <time>2017-10-07T15:09:20Z</time>
      </trkpt>
      <trkpt lat="43.98964" lon="6.98551">
        <ele>636.39599609375</ele>
        <time>2017-10-07T15:09:27Z</time>
      </trkpt>
      <trkpt lat="43.98957" lon="6.98531">
        <ele>636.39501953125</ele>
        <time>2017-10-07T15:09:35Z</time>
      </trkpt>
      <trkpt lat="43.98955" lon="6.98508">
        <ele>636.39501953125</ele>
        <time>2017-10-07T15:09:42Z</time>
      </trkpt>
      <trkpt lat="43.98947" lon="6.98505">
        <ele>634.39501953125</ele>
        <time>2017-10-07T15:09:47Z</time>
      </trkpt>
      <trkpt lat="43.98947" lon="6.98516">
        <ele>633.39501953125</ele>
        <time>2017-10-07T15:10:03Z</time>
      </trkpt>
      <trkpt lat="43.98941" lon="6.98541">
        <ele>629.39501953125</ele>
        <time>2017-10-07T15:10:08Z</time>
      </trkpt>
      <trkpt lat="43.98938" lon="6.98592">
        <ele>623.39599609375</ele>
        <time>2017-10-07T15:10:14Z</time>
      </trkpt>
      <trkpt lat="43.98936" lon="6.9863">
        <ele>617.39599609375</ele>
        <time>2017-10-07T15:10:21Z</time>
      </trkpt>
      <trkpt lat="43.98927" lon="6.98631">
        <ele>615.39599609375</ele>
        <time>2017-10-07T15:10:26Z</time>
      </trkpt>
      <trkpt lat="43.98911" lon="6.98643">
        <ele>615.39599609375</ele>
        <time>2017-10-07T15:10:32Z</time>
      </trkpt>
      <trkpt lat="43.98906" lon="6.98665">
        <ele>614.39599609375</ele>
        <time>2017-10-07T15:10:38Z</time>
      </trkpt>
      <trkpt lat="43.98917" lon="6.98686">
        <ele>614.39599609375</ele>
        <time>2017-10-07T15:10:44Z</time>
      </trkpt>
      <trkpt lat="43.98924" lon="6.98709">
        <ele>618.39599609375</ele>
        <time>2017-10-07T15:10:50Z</time>
      </trkpt>
      <trkpt lat="43.98931" lon="6.98731">
        <ele>619.39599609375</ele>
        <time>2017-10-07T15:10:57Z</time>
      </trkpt>
      <trkpt lat="43.98943" lon="6.98747">
        <ele>619.39599609375</ele>
        <time>2017-10-07T15:11:05Z</time>
      </trkpt>
      <trkpt lat="43.98948" lon="6.98754">
        <ele>620.39599609375</ele>
        <time>2017-10-07T15:12:19Z</time>
      </trkpt>
      <trkpt lat="43.9895" lon="6.98768">
        <ele>615.39599609375</ele>
        <time>2017-10-07T15:13:24Z</time>
      </trkpt>
      <trkpt lat="43.9896" lon="6.988">
        <ele>618.39599609375</ele>
        <time>2017-10-07T15:13:30Z</time>
      </trkpt>
      <trkpt lat="43.98962" lon="6.98822">
        <ele>619.39599609375</ele>
        <time>2017-10-07T15:13:35Z</time>
      </trkpt>
      <trkpt lat="43.98961" lon="6.9885">
        <ele>614.39599609375</ele>
        <time>2017-10-07T15:13:44Z</time>
      </trkpt>
      <trkpt lat="43.98966" lon="6.98857">
        <ele>609.39599609375</ele>
        <time>2017-10-07T15:13:52Z</time>
      </trkpt>
      <trkpt lat="43.98974" lon="6.98857">
        <ele>614.39599609375</ele>
        <time>2017-10-07T15:13:57Z</time>
      </trkpt>
      <trkpt lat="43.98981" lon="6.98861">
        <ele>615.39599609375</ele>
        <time>2017-10-07T15:14:04Z</time>
      </trkpt>
      <trkpt lat="43.98988" lon="6.98868">
        <ele>617.39599609375</ele>
        <time>2017-10-07T15:14:10Z</time>
      </trkpt>
      <trkpt lat="43.9899" lon="6.98878">
        <ele>616.39599609375</ele>
        <time>2017-10-07T15:14:16Z</time>
      </trkpt>
      <trkpt lat="43.98994" lon="6.98886">
        <ele>618.39599609375</ele>
        <time>2017-10-07T15:14:25Z</time>
      </trkpt>
      <trkpt lat="43.98994" lon="6.98896">
        <ele>621.39599609375</ele>
        <time>2017-10-07T15:14:34Z</time>
      </trkpt>
      <trkpt lat="43.99001" lon="6.98905">
        <ele>625.39599609375</ele>
        <time>2017-10-07T15:14:39Z</time>
      </trkpt>
      <trkpt lat="43.99006" lon="6.98918">
        <ele>623.39599609375</ele>
        <time>2017-10-07T15:14:42Z</time>
      </trkpt>
      <trkpt lat="43.9901" lon="6.98938">
        <ele>621.39599609375</ele>
        <time>2017-10-07T15:14:49Z</time>
      </trkpt>
      <trkpt lat="43.9901" lon="6.98948">
        <ele>621.39599609375</ele>
        <time>2017-10-07T15:14:54Z</time>
      </trkpt>
      <trkpt lat="43.99014" lon="6.98959">
        <ele>623.39599609375</ele>
        <time>2017-10-07T15:14:59Z</time>
      </trkpt>
      <trkpt lat="43.99017" lon="6.98969">
        <ele>624.39599609375</ele>
        <time>2017-10-07T15:15:05Z</time>
      </trkpt>
      <trkpt lat="43.9902" lon="6.9898">
        <ele>626.39599609375</ele>
        <time>2017-10-07T15:15:12Z</time>
      </trkpt>
      <trkpt lat="43.99021" lon="6.9899">
        <ele>627.39697265625</ele>
        <time>2017-10-07T15:15:18Z</time>
      </trkpt>
      <trkpt lat="43.99025" lon="6.98999">
        <ele>626.39697265625</ele>
        <time>2017-10-07T15:15:35Z</time>
      </trkpt>
      <trkpt lat="43.99031" lon="6.99005">
        <ele>628.39697265625</ele>
        <time>2017-10-07T15:15:45Z</time>
      </trkpt>
      <trkpt lat="43.99038" lon="6.99009">
        <ele>632.39697265625</ele>
        <time>2017-10-07T15:15:58Z</time>
      </trkpt>
      <trkpt lat="43.99035" lon="6.99018">
        <ele>634.39697265625</ele>
        <time>2017-10-07T15:16:16Z</time>
      </trkpt>
      <trkpt lat="43.9904" lon="6.99026">
        <ele>634.39697265625</ele>
        <time>2017-10-07T15:16:38Z</time>
      </trkpt>
      <trkpt lat="43.99047" lon="6.99027">
        <ele>634.39697265625</ele>
        <time>2017-10-07T15:16:49Z</time>
      </trkpt>
      <trkpt lat="43.99052" lon="6.99035">
        <ele>638.39697265625</ele>
        <time>2017-10-07T15:17:10Z</time>
      </trkpt>
      <trkpt lat="43.99048" lon="6.99044">
        <ele>645.39697265625</ele>
        <time>2017-10-07T15:17:25Z</time>
      </trkpt>
      <trkpt lat="43.99056" lon="6.99046">
        <ele>645.39697265625</ele>
        <time>2017-10-07T15:17:35Z</time>
      </trkpt>
      <trkpt lat="43.99055" lon="6.99056">
        <ele>648.39697265625</ele>
        <time>2017-10-07T15:17:56Z</time>
      </trkpt>
      <trkpt lat="43.99053" lon="6.99068">
        <ele>648.39697265625</ele>
        <time>2017-10-07T15:18:08Z</time>
      </trkpt>
      <trkpt lat="43.99049" lon="6.99076">
        <ele>652.39697265625</ele>
        <time>2017-10-07T15:18:15Z</time>
      </trkpt>
      <trkpt lat="43.99045" lon="6.99085">
        <ele>654.39697265625</ele>
        <time>2017-10-07T15:18:19Z</time>
      </trkpt>
      <trkpt lat="43.99038" lon="6.99106">
        <ele>654.39697265625</ele>
        <time>2017-10-07T15:18:26Z</time>
      </trkpt>
      <trkpt lat="43.99031" lon="6.99127">
        <ele>653.39697265625</ele>
        <time>2017-10-07T15:18:33Z</time>
      </trkpt>
      <trkpt lat="43.99024" lon="6.99137">
        <ele>653.39697265625</ele>
        <time>2017-10-07T15:18:37Z</time>
      </trkpt>
      <trkpt lat="43.9901" lon="6.99143">
        <ele>654.39697265625</ele>
        <time>2017-10-07T15:18:44Z</time>
      </trkpt>
      <trkpt lat="43.99004" lon="6.99151">
        <ele>653.39697265625</ele>
        <time>2017-10-07T15:18:50Z</time>
      </trkpt>
      <trkpt lat="43.98998" lon="6.99159">
        <ele>655.39697265625</ele>
        <time>2017-10-07T15:18:56Z</time>
      </trkpt>
      <trkpt lat="43.98986" lon="6.99175">
        <ele>657.39697265625</ele>
        <time>2017-10-07T15:19:06Z</time>
      </trkpt>
      <trkpt lat="43.98977" lon="6.99178">
        <ele>651.39697265625</ele>
        <time>2017-10-07T15:19:08Z</time>
      </trkpt>
      <trkpt lat="43.98968" lon="6.99177">
        <ele>651.39697265625</ele>
        <time>2017-10-07T15:19:11Z</time>
      </trkpt>
      <trkpt lat="43.98958" lon="6.99181">
        <ele>653.39697265625</ele>
        <time>2017-10-07T15:19:16Z</time>
      </trkpt>
      <trkpt lat="43.9895" lon="6.99186">
        <ele>652.39697265625</ele>
        <time>2017-10-07T15:19:19Z</time>
      </trkpt>
      <trkpt lat="43.98935" lon="6.99198">
        <ele>655.39697265625</ele>
        <time>2017-10-07T15:19:25Z</time>
      </trkpt>
      <trkpt lat="43.98923" lon="6.99212">
        <ele>650.39697265625</ele>
        <time>2017-10-07T15:19:31Z</time>
      </trkpt>
      <trkpt lat="43.98911" lon="6.99228">
        <ele>647.39697265625</ele>
        <time>2017-10-07T15:19:36Z</time>
      </trkpt>
      <trkpt lat="43.98904" lon="6.99233">
        <ele>646.39697265625</ele>
        <time>2017-10-07T15:19:43Z</time>
      </trkpt>
      <trkpt lat="43.98901" lon="6.99243">
        <ele>646.39697265625</ele>
        <time>2017-10-07T15:19:53Z</time>
      </trkpt>
      <trkpt lat="43.98901" lon="6.99254">
        <ele>641.39697265625</ele>
        <time>2017-10-07T15:20:05Z</time>
      </trkpt>
      <trkpt lat="43.98901" lon="6.99265">
        <ele>639.39697265625</ele>
        <time>2017-10-07T15:20:12Z</time>
      </trkpt>
      <trkpt lat="43.98896" lon="6.99277">
        <ele>637.39697265625</ele>
        <time>2017-10-07T15:20:15Z</time>
      </trkpt>
      <trkpt lat="43.9889" lon="6.99299">
        <ele>631.39697265625</ele>
        <time>2017-10-07T15:20:21Z</time>
      </trkpt>
      <trkpt lat="43.98891" lon="6.99324">
        <ele>625.39697265625</ele>
        <time>2017-10-07T15:20:26Z</time>
      </trkpt>
      <trkpt lat="43.9888" lon="6.99359">
        <ele>619.39697265625</ele>
        <time>2017-10-07T15:20:32Z</time>
      </trkpt>
      <trkpt lat="43.9887" lon="6.99391">
        <ele>614.39697265625</ele>
        <time>2017-10-07T15:20:38Z</time>
      </trkpt>
      <trkpt lat="43.98868" lon="6.99414">
        <ele>610.39697265625</ele>
        <time>2017-10-07T15:20:42Z</time>
      </trkpt>
      <trkpt lat="43.98879" lon="6.99442">
        <ele>604.39697265625</ele>
        <time>2017-10-07T15:20:48Z</time>
      </trkpt>
      <trkpt lat="43.98891" lon="6.99479">
        <ele>599.39697265625</ele>
        <time>2017-10-07T15:20:54Z</time>
      </trkpt>
      <trkpt lat="43.98899" lon="6.99526">
        <ele>596.39697265625</ele>
        <time>2017-10-07T15:21:00Z</time>
      </trkpt>
      <trkpt lat="43.98901" lon="6.99559">
        <ele>594.39697265625</ele>
        <time>2017-10-07T15:21:08Z</time>
      </trkpt>
      <trkpt lat="43.98909" lon="6.99549">
        <ele>589.39697265625</ele>
        <time>2017-10-07T15:21:13Z</time>
      </trkpt>
      <trkpt lat="43.98918" lon="6.99562">
        <ele>585.39801025391</ele>
        <time>2017-10-07T15:21:18Z</time>
      </trkpt>
      <trkpt lat="43.9892" lon="6.99585">
        <ele>580.39801025391</ele>
        <time>2017-10-07T15:21:24Z</time>
      </trkpt>
      <trkpt lat="43.98926" lon="6.99591">
        <ele>574.39801025391</ele>
        <time>2017-10-07T15:21:30Z</time>
      </trkpt>
      <trkpt lat="43.98919" lon="6.99616">
        <ele>572.39801025391</ele>
        <time>2017-10-07T15:21:36Z</time>
      </trkpt>
      <trkpt lat="43.98903" lon="6.99649">
        <ele>566.39801025391</ele>
        <time>2017-10-07T15:21:42Z</time>
      </trkpt>
      <trkpt lat="43.98908" lon="6.99684">
        <ele>563.39801025391</ele>
        <time>2017-10-07T15:21:48Z</time>
      </trkpt>
      <trkpt lat="43.98913" lon="6.99695">
        <ele>560.39801025391</ele>
        <time>2017-10-07T15:21:53Z</time>
      </trkpt>
      <trkpt lat="43.98918" lon="6.99722">
        <ele>555.39801025391</ele>
        <time>2017-10-07T15:21:59Z</time>
      </trkpt>
      <trkpt lat="43.98923" lon="6.99738">
        <ele>550.39801025391</ele>
        <time>2017-10-07T15:22:05Z</time>
      </trkpt>
      <trkpt lat="43.98939" lon="6.99743">
        <ele>544.39801025391</ele>
        <time>2017-10-07T15:22:12Z</time>
      </trkpt>
      <trkpt lat="43.98928" lon="6.99764">
        <ele>539.39801025391</ele>
        <time>2017-10-07T15:22:18Z</time>
      </trkpt>
      <trkpt lat="43.98926" lon="6.99776">
        <ele>537.39801025391</ele>
        <time>2017-10-07T15:22:50Z</time>
      </trkpt>
      <trkpt lat="43.98919" lon="6.99804">
        <ele>530.39801025391</ele>
        <time>2017-10-07T15:22:57Z</time>
      </trkpt>
      <trkpt lat="43.98913" lon="6.99825">
        <ele>525.39801025391</ele>
        <time>2017-10-07T15:23:02Z</time>
      </trkpt>
      <trkpt lat="43.9891" lon="6.99836">
        <ele>520.39801025391</ele>
        <time>2017-10-07T15:23:08Z</time>
      </trkpt>
      <trkpt lat="43.98911" lon="6.9985">
        <ele>517.39801025391</ele>
        <time>2017-10-07T15:23:15Z</time>
      </trkpt>
      <trkpt lat="43.98922" lon="6.99855">
        <ele>509.39801025391</ele>
        <time>2017-10-07T15:23:24Z</time>
      </trkpt>
      <trkpt lat="43.98913" lon="6.9988">
        <ele>505.39801025391</ele>
        <time>2017-10-07T15:23:29Z</time>
      </trkpt>
      <trkpt lat="43.98904" lon="6.99899">
        <ele>498.39801025391</ele>
        <time>2017-10-07T15:23:36Z</time>
      </trkpt>
      <trkpt lat="43.98896" lon="6.99914">
        <ele>494.39801025391</ele>
        <time>2017-10-07T15:23:44Z</time>
      </trkpt>
      <trkpt lat="43.98904" lon="6.99918">
        <ele>493.39801025391</ele>
        <time>2017-10-07T15:23:47Z</time>
      </trkpt>
      <trkpt lat="43.98914" lon="6.99929">
        <ele>491.39801025391</ele>
        <time>2017-10-07T15:25:21Z</time>
      </trkpt>
    </trkseg>
  </trk>
</gpx>